Darstellungsparameter: Aktuell verwendete Einstellungen:
Skalierung der Graphiken ... ?
xyx+y,   Skalierungsfaktor:      Skalierung: Modus: x, Faktor: 1
Darstellungszeitraum ... ?
Vom - - bis: - -   Zeitraum: 05.03.2019 - 02.04.2019
Min/Max/Avg-Anzeige ... ?
Zeige MMA aktuell
Zeige MMA Monat
Zeige MMA alles
Zeige --A aktuell
Zeige --A Monat
Zeige --A alles
Keine MMA-Anzeige
MMA:
Keine MMA-Graphiken
MMA-Basis: 05.03.2019 - 02.04.2019
Quicknavigation für Darstellung... ?
Tage:      1T, 2T, 3T, 5T -1T -2T -3T -5T +1T +2T +3T +5T
Wochen: 1W, 2W, 3W -1W -2W -3W +1W +2W +3W
Monate: 1M, 3M, 6M -1M -3M -6M +1M +3M +6M
Jahre:    1J, 3J, 5J, 10J -1J -3J -5J -10J +1J +3J +5J +10J
Nutze für die Darstellung ... ?
Originaldaten oder Mittelwerte auf ...
Stundenbasis Tagesbasis Wochenbasis
Monatsbasis Jahresbasis      Datenbasis: Original-Daten
Darstellen als:
Statistik (Auto) Statistik J:M      Darstellung:
Zur Graphik,    zurück zur Übersicht aller Sensoren.
 
Tabellarische Datenbersicht: ?
 
Sensor: Nr:Datum:Temp:Feuchte:
Aussen-T/F 1 05-03-2019 00:06:17 6.1 C 33 %
2 05-03-2019 00:18:18 6.3 C 30 %
3 05-03-2019 00:30:18 6.4 C 28 %
4 05-03-2019 00:42:18 6.4 C 27 %
5 05-03-2019 00:54:18 6.3 C 27 %
6 05-03-2019 01:06:18 6.3 C 29 %
7 05-03-2019 01:18:18 6.3 C 29 %
8 05-03-2019 01:30:18 6.3 C 30 %
9 05-03-2019 01:42:18 6.3 C 30 %
10 05-03-2019 01:54:17 6.2 C 29 %
11 05-03-2019 02:06:17 6.3 C 28 %
12 05-03-2019 02:18:17 6.3 C 28 %
13 05-03-2019 02:30:17 6.2 C 27 %
14 05-03-2019 02:42:17 6.3 C 27 %
15 05-03-2019 02:54:17 6.3 C 27 %
16 05-03-2019 03:06:17 6.3 C 27 %
17 05-03-2019 03:18:17 6.3 C 27 %
18 05-03-2019 03:30:17 6.1 C 29 %
19 05-03-2019 03:42:17 5.9 C 30 %
20 05-03-2019 03:54:17 5.9 C 30 %
21 05-03-2019 04:06:17 5.8 C 29 %
22 05-03-2019 04:18:17 5.9 C 29 %
23 05-03-2019 04:30:17 5.8 C 30 %
24 05-03-2019 04:42:17 5.9 C 29 %
25 05-03-2019 04:54:17 6 C 27 %
Sensor: Nr:Datum:Temp:Feuchte:
Aussen-T/F 26 05-03-2019 05:06:17 5.8 C 29 %
27 05-03-2019 05:18:18 5.7 C 30 %
28 05-03-2019 05:30:18 5.7 C 30 %
29 05-03-2019 05:42:18 5.8 C 30 %
30 05-03-2019 05:54:18 5.6 C 30 %
31 05-03-2019 06:06:17 5.7 C 27 %
32 05-03-2019 06:18:17 5.3 C 29 %
33 05-03-2019 06:30:17 5.6 C 27 %
34 05-03-2019 06:42:18 5.6 C 27 %
35 05-03-2019 06:54:18 5.7 C 26 %
36 05-03-2019 07:06:18 5.7 C 26 %
37 05-03-2019 07:18:17 5.9 C 26 %
38 05-03-2019 07:30:17 6 C 26 %
39 05-03-2019 07:42:17 6 C 25 %
40 05-03-2019 07:54:17 6.2 C 25 %
41 05-03-2019 08:06:18 6.1 C 26 %
42 05-03-2019 08:18:17 6 C 27 %
43 05-03-2019 08:30:17 6.2 C 27 %
44 05-03-2019 08:42:17 6.2 C 27 %
45 05-03-2019 08:54:17 5.8 C 30 %
46 05-03-2019 09:06:17 5.8 C 32 %
47 05-03-2019 09:18:17 6 C 30 %
48 05-03-2019 09:30:17 5.8 C 32 %
49 05-03-2019 09:42:17 5.6 C 35 %
50 05-03-2019 09:54:17 5.7 C 36 %
Sensor: Nr:Datum:Temp:Feuchte:
Aussen-T/F 51 05-03-2019 10:06:18 5.9 C 36 %
52 05-03-2019 10:18:17 6.2 C 35 %
53 05-03-2019 10:30:18 6.2 C 35 %
54 05-03-2019 10:42:18 6.2 C 35 %
55 05-03-2019 10:54:17 6.4 C 35 %
56 05-03-2019 11:06:17 6.4 C 34 %
57 05-03-2019 11:18:17 6.6 C 34 %
58 05-03-2019 11:30:17 6.6 C 34 %
59 05-03-2019 11:42:17 6.7 C 32 %
60 05-03-2019 11:54:17 6.7 C 31 %
61 05-03-2019 12:06:17 6.9 C 30 %
62 05-03-2019 12:18:17 7 C 27 %
63 05-03-2019 12:30:18 6.9 C 28 %
64 05-03-2019 12:42:18 7 C 28 %
65 05-03-2019 12:54:17 7.1 C 27 %
66 05-03-2019 13:06:17 7.6 C 26 %
67 05-03-2019 13:18:17 7.7 C 25 %
68 05-03-2019 13:30:17 7.8 C 25 %
69 05-03-2019 13:42:17 8.1 C 25 %
70 05-03-2019 13:54:17 7.9 C 21 %
71 05-03-2019 14:06:17 8.3 C 23 %
72 05-03-2019 14:18:17 8.5 C 20 %
73 05-03-2019 14:30:17 8.4 C 20 %
74 05-03-2019 14:42:17 8.6 C 20 %
75 05-03-2019 14:54:17 8.5 C 20 %
Sensor: Nr:Datum:Temp:Feuchte:
Aussen-T/F 76 05-03-2019 15:06:18 8.6 C 20 %
77 05-03-2019 15:18:17 8.6 C 20 %
78 05-03-2019 15:30:17 8.9 C 20 %
79 05-03-2019 15:42:17 8.7 C 20 %
80 05-03-2019 15:54:18 8.7 C 20 %
81 05-03-2019 16:06:17 8.6 C 20 %
82 05-03-2019 16:18:16 10.7 C 20 %
83 05-03-2019 16:30:17 10.5 C 20 %
84 05-03-2019 16:42:17 10.6 C 20 %
85 05-03-2019 16:54:17 10.5 C 20 %
86 05-03-2019 17:06:18 9.7 C 20 %
87 05-03-2019 17:18:17 10.1 C 20 %
88 05-03-2019 17:30:17 8.5 C 20 %
89 05-03-2019 17:42:17 7.9 C 25 %
90 05-03-2019 17:54:17 7.2 C 28 %
91 05-03-2019 18:06:18 6.7 C 31 %
92 05-03-2019 18:18:17 6.2 C 33 %
93 05-03-2019 18:30:17 6 C 33 %
94 05-03-2019 18:42:17 6 C 32 %
95 05-03-2019 18:54:17 6 C 31 %
96 05-03-2019 19:06:17 6.3 C 30 %
97 05-03-2019 19:18:17 6.1 C 31 %
98 05-03-2019 19:30:17 6.2 C 31 %
99 05-03-2019 19:42:17 6 C 31 %
100 05-03-2019 19:54:17 5.8 C 32 %
Sensor: Nr:Datum:Temp:Feuchte:
Aussen-T/F 101 05-03-2019 20:06:18 5.1 C 35 %
102 05-03-2019 20:18:17 4.4 C 39 %
103 05-03-2019 20:30:17 4 C 40 %
104 05-03-2019 20:42:17 3.5 C 45 %
105 05-03-2019 20:54:17 3.2 C 46 %
106 05-03-2019 21:06:17 2.8 C 47 %
107 05-03-2019 21:18:17 2.7 C 50 %
108 05-03-2019 21:30:17 2.9 C 52 %
109 05-03-2019 21:42:17 3.2 C 52 %
110 05-03-2019 21:54:18 3.4 C 53 %
111 05-03-2019 22:06:17 3.8 C 54 %
112 05-03-2019 22:18:17 4.1 C 52 %
113 05-03-2019 22:30:18 4.2 C 51 %
114 05-03-2019 22:42:18 4.2 C 51 %
115 05-03-2019 22:54:17 4.4 C 47 %
116 05-03-2019 23:06:17 4.4 C 46 %
117 05-03-2019 23:18:18 4.7 C 46 %
118 05-03-2019 23:30:17 4.8 C 46 %
119 05-03-2019 23:42:17 4.9 C 45 %
120 05-03-2019 23:54:17 4.9 C 45 %
121 06-03-2019 00:06:18 5 C 45 %
122 06-03-2019 00:18:17 5 C 45 %
123 06-03-2019 00:30:17 5.2 C 44 %
124 06-03-2019 00:42:17 5.2 C 43 %
125 06-03-2019 00:54:17 5.5 C 44 %
Sensor: Nr:Datum:Temp:Feuchte:
Aussen-T/F 126 06-03-2019 01:06:18 5.6 C 44 %
127 06-03-2019 01:18:17 5.5 C 42 %
128 06-03-2019 01:30:17 5.5 C 43 %
129 06-03-2019 01:42:17 5.6 C 44 %
130 06-03-2019 01:54:17 6.2 C 44 %
131 06-03-2019 02:06:17 6.4 C 41 %
132 06-03-2019 02:18:17 6.5 C 40 %
133 06-03-2019 02:30:17 6.6 C 39 %
134 06-03-2019 02:42:17 6.7 C 38 %
135 06-03-2019 02:54:17 6.5 C 39 %
136 06-03-2019 03:06:18 6.4 C 40 %
137 06-03-2019 03:18:17 6.2 C 41 %
138 06-03-2019 03:30:17 6.1 C 42 %
139 06-03-2019 03:42:17 6.1 C 43 %
140 06-03-2019 03:54:17 6.1 C 44 %
141 06-03-2019 04:06:18 6 C 44 %
142 06-03-2019 04:18:17 5.8 C 45 %
143 06-03-2019 04:30:17 5.8 C 46 %
144 06-03-2019 04:42:17 6.4 C 46 %
145 06-03-2019 04:54:17 6.4 C 43 %
146 06-03-2019 05:06:17 6.5 C 42 %
147 06-03-2019 05:18:17 6.6 C 41 %
148 06-03-2019 05:30:17 6.5 C 41 %
149 06-03-2019 05:42:17 6.2 C 41 %
150 06-03-2019 05:54:17 5.8 C 43 %
Sensor: Nr:Datum:Temp:Feuchte:
Aussen-T/F 151 06-03-2019 06:06:17 6.1 C 43 %
152 06-03-2019 06:18:17 5.6 C 42 %
153 06-03-2019 06:30:18 5.2 C 42 %
154 06-03-2019 06:42:18 4.5 C 45 %
155 06-03-2019 06:54:17 5.2 C 47 %
156 06-03-2019 07:06:17 4.5 C 46 %
157 06-03-2019 07:18:17 4.1 C 47 %
158 06-03-2019 07:30:17 4.2 C 50 %
159 06-03-2019 07:42:17 4.4 C 51 %
160 06-03-2019 07:54:17 4.6 C 51 %
161 06-03-2019 08:06:17 5 C 50 %
162 06-03-2019 08:18:17 5.6 C 49 %
163 06-03-2019 08:30:17 6.4 C 42 %
164 06-03-2019 08:42:17 6.8 C 38 %
165 06-03-2019 08:54:17 7.3 C 32 %
166 06-03-2019 09:06:17 7.6 C 31 %
167 06-03-2019 09:18:17 7.8 C 31 %
168 06-03-2019 09:30:17 8.2 C 30 %
169 06-03-2019 09:42:17 8.4 C 28 %
170 06-03-2019 09:54:17 8.9 C 28 %
171 06-03-2019 10:06:17 9.8 C 26 %
172 06-03-2019 10:18:17 10.4 C 20 %
173 06-03-2019 10:30:17 10.8 C 20 %
174 06-03-2019 10:42:17 10.8 C 20 %
175 06-03-2019 10:54:17 10.9 C 20 %
Sensor: Nr:Datum:Temp:Feuchte:
Aussen-T/F 176 06-03-2019 11:06:17 11.7 C 20 %
177 06-03-2019 11:18:18 12.4 C 20 %
178 06-03-2019 11:30:17 14.1 C 20 %
179 06-03-2019 11:42:17 13.7 C 20 %
180 06-03-2019 11:54:17 14.2 C 20 %
181 06-03-2019 12:06:18 13.5 C 20 %
182 06-03-2019 12:18:17 13.5 C 20 %
183 06-03-2019 12:30:17 13.2 C 20 %
184 06-03-2019 12:42:17 13.2 C 20 %
185 06-03-2019 12:54:17 13.4 C 20 %
186 06-03-2019 13:06:18 13.6 C 20 %
187 06-03-2019 13:18:17 13.8 C 20 %
188 06-03-2019 13:30:17 13.7 C 20 %
189 06-03-2019 13:42:17 13.7 C 20 %
190 06-03-2019 13:54:17 13.7 C 20 %
191 06-03-2019 14:06:18 13.7 C 20 %
192 06-03-2019 14:18:17 13.6 C 20 %
193 06-03-2019 14:30:17 13.7 C 20 %
194 06-03-2019 14:42:17 14.3 C 20 %
195 06-03-2019 14:54:17 14.5 C 20 %
196 06-03-2019 15:06:17 14.5 C 20 %
197 06-03-2019 15:18:17 14.5 C 20 %
198 06-03-2019 15:30:17 14.6 C 20 %
199 06-03-2019 15:42:17 14.5 C 20 %
200 06-03-2019 15:54:17 14.6 C 20 %
Sensor: Nr:Datum:Temp:Feuchte:
Aussen-T/F 201 06-03-2019 16:06:17 14.8 C 20 %
202 06-03-2019 16:18:17 15.1 C 20 %
203 06-03-2019 16:30:17 15.3 C 20 %
204 06-03-2019 16:42:17 14.6 C 20 %
205 06-03-2019 16:54:17 12.4 C 20 %
206 06-03-2019 17:06:17 12.2 C 25 %
207 06-03-2019 17:18:17 12.3 C 26 %
208 06-03-2019 17:30:17 13.1 C 20 %
209 06-03-2019 17:42:17 13.1 C 20 %
210 06-03-2019 17:54:17 12.8 C 20 %
211 06-03-2019 18:06:17 12.1 C 20 %
212 06-03-2019 18:18:17 12.2 C 20 %
213 06-03-2019 18:30:17 11.7 C 25 %
214 06-03-2019 18:42:17 11.7 C 25 %
215 06-03-2019 18:54:17 11.2 C 25 %
216 06-03-2019 19:06:17 10.7 C 29 %
217 06-03-2019 19:18:17 10.5 C 31 %
218 06-03-2019 19:30:17 10.1 C 33 %
219 06-03-2019 19:42:17 10.2 C 34 %
220 06-03-2019 19:54:17 9.9 C 36 %
221 06-03-2019 20:06:17 10 C 35 %
222 06-03-2019 20:18:17 9.8 C 37 %
223 06-03-2019 20:30:17 9.6 C 37 %
224 06-03-2019 20:42:17 9.5 C 38 %
225 06-03-2019 20:54:17 10 C 36 %
Sensor: Nr:Datum:Temp:Feuchte:
Aussen-T/F 226 06-03-2019 21:06:17 10.1 C 33 %
227 06-03-2019 21:18:17 10.1 C 33 %
228 06-03-2019 21:30:17 10.1 C 34 %
229 06-03-2019 21:42:17 10.1 C 34 %
230 06-03-2019 21:54:17 9.9 C 35 %
231 06-03-2019 22:06:18 10 C 35 %
232 06-03-2019 22:18:17 10.1 C 34 %
233 06-03-2019 22:30:17 10 C 34 %
234 06-03-2019 22:42:17 10 C 33 %
235 06-03-2019 22:54:17 9.9 C 34 %
236 06-03-2019 23:06:17 9.7 C 36 %
237 06-03-2019 23:18:17 9.6 C 36 %
238 06-03-2019 23:30:17 10.2 C 31 %
239 06-03-2019 23:42:17 10.1 C 31 %
240 06-03-2019 23:54:17 9.8 C 33 %
241 07-03-2019 00:06:17 9.5 C 38 %
242 07-03-2019 00:18:17 9.8 C 36 %
243 07-03-2019 00:30:17 9.6 C 37 %
244 07-03-2019 00:42:18 9.3 C 40 %
245 07-03-2019 00:54:17 9.8 C 39 %
246 07-03-2019 01:06:17 9.8 C 40 %
247 07-03-2019 01:18:17 9.8 C 41 %
248 07-03-2019 01:30:17 9.9 C 41 %
249 07-03-2019 01:42:17 9.9 C 43 %
250 07-03-2019 01:54:17 9.7 C 45 %
Sensor: Nr:Datum:Temp:Feuchte:
Aussen-T/F 251 07-03-2019 02:06:17 9.5 C 48 %
252 07-03-2019 02:18:17 9 C 49 %
253 07-03-2019 02:30:17 8.5 C 51 %
254 07-03-2019 02:42:17 8.7 C 52 %
255 07-03-2019 02:54:17 8.8 C 53 %
256 07-03-2019 03:06:17 8.7 C 52 %
257 07-03-2019 03:18:17 8.6 C 52 %
258 07-03-2019 03:30:18 8.6 C 51 %
259 07-03-2019 03:42:18 8.7 C 50 %
260 07-03-2019 03:54:17 8.6 C 49 %
261 07-03-2019 04:06:17 9 C 44 %
262 07-03-2019 04:18:17 9.5 C 42 %
263 07-03-2019 04:30:17 9.5 C 38 %
264 07-03-2019 04:42:17 9.5 C 37 %
265 07-03-2019 04:54:17 9.1 C 37 %
266 07-03-2019 05:06:17 9.8 C 35 %
267 07-03-2019 05:19:17 10 C 32 %
268 07-03-2019 05:30:17 10.6 C 29 %
269 07-03-2019 05:42:17 11 C 28 %
270 07-03-2019 05:54:17 11.5 C 26 %
271 07-03-2019 06:06:17 11.4 C 26 %
272 07-03-2019 06:18:17 11.6 C 24 %
273 07-03-2019 06:30:18 11.2 C 24 %
274 07-03-2019 06:42:18 11.2 C 23 %
275 07-03-2019 06:55:17 11.2 C 23 %
Sensor: Nr:Datum:Temp:Feuchte:
Aussen-T/F 276 07-03-2019 07:06:17 11 C 24 %
277 07-03-2019 07:18:18 11 C 22 %
278 07-03-2019 07:31:17 10.8 C 22 %
279 07-03-2019 07:42:17 10.5 C 20 %
280 07-03-2019 07:54:17 10.4 C 20 %
281 07-03-2019 08:06:17 10.3 C 20 %
282 07-03-2019 08:19:17 10.2 C 21 %
283 07-03-2019 08:30:17 10.2 C 22 %
284 07-03-2019 08:42:17 10.1 C 25 %
285 07-03-2019 08:54:17 10.4 C 25 %
286 07-03-2019 09:06:17 10 C 26 %
287 07-03-2019 09:19:17 10 C 26 %
288 07-03-2019 09:30:17 9.1 C 34 %
289 07-03-2019 09:42:17 9.5 C 31 %
290 07-03-2019 09:54:17 9.6 C 30 %
291 07-03-2019 10:07:17 9.8 C 29 %
292 07-03-2019 10:19:17 9.7 C 30 %
293 07-03-2019 10:30:17 10 C 28 %
294 07-03-2019 10:42:17 10.5 C 28 %
295 07-03-2019 10:54:17 10.2 C 28 %
296 07-03-2019 11:07:17 8.8 C 37 %
297 07-03-2019 11:19:17 9.2 C 34 %
298 07-03-2019 11:30:17 9.7 C 30 %
299 07-03-2019 11:42:17 9.7 C 28 %
300 07-03-2019 11:55:17 10 C 25 %
Sensor: Nr:Datum:Temp:Feuchte:
Aussen-T/F 301 07-03-2019 12:07:17 10 C 22 %
302 07-03-2019 12:18:17 10.2 C 20 %
303 07-03-2019 12:30:18 10.4 C 20 %
304 07-03-2019 12:42:18 10.5 C 20 %
305 07-03-2019 12:55:17 11.4 C 20 %
306 07-03-2019 13:07:17 11.5 C 20 %
307 07-03-2019 13:18:18 12.2 C 20 %
308 07-03-2019 13:31:17 12 C 20 %
309 07-03-2019 13:43:17 12.1 C 20 %
310 07-03-2019 13:55:17 10.8 C 20 %
311 07-03-2019 14:06:17 8.6 C 31 %
312 07-03-2019 14:19:17 9.1 C 29 %
313 07-03-2019 14:31:17 10 C 26 %
314 07-03-2019 14:43:17 10.5 C 22 %
315 07-03-2019 14:55:17 11.2 C 20 %
316 07-03-2019 15:06:17 11.4 C 20 %
317 07-03-2019 15:19:17 11.4 C 20 %
318 07-03-2019 15:31:17 9.7 C 20 %
319 07-03-2019 15:43:17 8.9 C 31 %
320 07-03-2019 15:55:17 8.4 C 32 %
321 07-03-2019 16:07:17 9.1 C 32 %
322 07-03-2019 16:19:17 9.7 C 29 %
323 07-03-2019 16:31:17 9.9 C 25 %
324 07-03-2019 16:43:17 10.1 C 20 %
325 07-03-2019 16:55:17 9.5 C 26 %
Sensor: Nr:Datum:Temp:Feuchte:
Aussen-T/F 326 07-03-2019 17:07:18 10.1 C 25 %
327 07-03-2019 17:19:17 10 C 20 %
328 07-03-2019 17:31:17 10.6 C 20 %
329 07-03-2019 17:43:18 9.5 C 20 %
330 07-03-2019 17:55:17 10.5 C 20 %
331 07-03-2019 18:06:18 10.4 C 20 %
332 07-03-2019 18:19:17 9.2 C 20 %
333 07-03-2019 18:31:17 9.1 C 20 %
334 07-03-2019 18:43:17 8.9 C 20 %
335 07-03-2019 18:55:17 8.5 C 20 %
336 07-03-2019 19:07:17 8.3 C 23 %
337 07-03-2019 19:19:17 7.8 C 28 %
338 07-03-2019 19:31:17 7.7 C 28 %
339 07-03-2019 19:43:17 7.3 C 32 %
340 07-03-2019 19:55:17 7.5 C 30 %
341 07-03-2019 20:06:18 8.1 C 25 %
342 07-03-2019 20:19:17 8.2 C 25 %
343 07-03-2019 20:31:17 8.5 C 21 %
344 07-03-2019 20:43:17 8.5 C 21 %
345 07-03-2019 20:55:18 8.6 C 21 %
346 07-03-2019 21:07:17 8.6 C 20 %
347 07-03-2019 21:19:17 8.5 C 21 %
348 07-03-2019 21:31:17 8.9 C 20 %
349 07-03-2019 21:43:18 8.8 C 20 %
350 07-03-2019 21:55:17 8.8 C 20 %
Sensor: Nr:Datum:Temp:Feuchte:
Aussen-T/F 351 07-03-2019 22:07:17 8.9 C 20 %
352 07-03-2019 22:19:18 8.9 C 20 %
353 07-03-2019 22:31:17 8.6 C 20 %
354 07-03-2019 22:43:17 8.5 C 21 %
355 07-03-2019 22:55:17 8.4 C 20 %
356 07-03-2019 23:07:17 8.1 C 21 %
357 07-03-2019 23:19:17 7.9 C 25 %
358 07-03-2019 23:31:17 8.1 C 23 %
359 07-03-2019 23:43:17 8.2 C 23 %
360 07-03-2019 23:55:18 7.6 C 28 %
361 08-03-2019 00:07:17 7.6 C 29 %
362 08-03-2019 00:19:17 7 C 35 %
363 08-03-2019 00:31:18 6.3 C 40 %
364 08-03-2019 00:43:18 5.9 C 42 %
365 08-03-2019 00:55:17 5.5 C 45 %
366 08-03-2019 01:07:17 5.7 C 45 %
367 08-03-2019 01:19:17 6 C 41 %
368 08-03-2019 01:31:17 6.1 C 40 %
369 08-03-2019 01:43:17 6.5 C 36 %
370 08-03-2019 01:55:17 7.2 C 32 %
371 08-03-2019 02:07:17 7.4 C 27 %
372 08-03-2019 02:19:17 7.7 C 26 %
373 08-03-2019 02:31:17 7.8 C 25 %
374 08-03-2019 02:43:17 7.8 C 21 %
375 08-03-2019 02:55:18 7.8 C 21 %
Sensor: Nr:Datum:Temp:Feuchte:
Aussen-T/F 376 08-03-2019 03:07:17 7.8 C 21 %
377 08-03-2019 03:19:17 7.8 C 20 %
378 08-03-2019 03:31:17 7.6 C 20 %
379 08-03-2019 03:43:17 7.8 C 20 %
380 08-03-2019 03:55:17 7.5 C 20 %
381 08-03-2019 04:07:17 7.4 C 21 %
382 08-03-2019 04:19:17 7.6 C 21 %
383 08-03-2019 04:31:17 7.5 C 21 %
384 08-03-2019 04:43:17 7.5 C 23 %
385 08-03-2019 04:55:17 7.5 C 23 %
386 08-03-2019 05:07:17 7.4 C 23 %
387 08-03-2019 05:19:17 7.2 C 25 %
388 08-03-2019 05:31:17 7.2 C 25 %
389 08-03-2019 05:43:18 7.2 C 26 %
390 08-03-2019 05:55:18 7.1 C 26 %
391 08-03-2019 06:07:17 7 C 26 %
392 08-03-2019 06:19:17 7 C 27 %
393 08-03-2019 06:31:17 7.1 C 26 %
394 08-03-2019 06:43:17 7.2 C 26 %
395 08-03-2019 06:55:17 7.1 C 27 %
396 08-03-2019 07:07:17 7.1 C 27 %
397 08-03-2019 07:19:17 7.1 C 27 %
398 08-03-2019 07:31:17 7.3 C 27 %
399 08-03-2019 07:43:17 7.4 C 27 %
400 08-03-2019 07:55:17 7.4 C 27 %
Sensor: Nr:Datum:Temp:Feuchte:
Aussen-T/F 401 08-03-2019 08:07:18 7.4 C 28 %
402 08-03-2019 08:19:17 7.4 C 28 %
403 08-03-2019 08:31:17 7.5 C 28 %
404 08-03-2019 08:43:17 7.5 C 29 %
405 08-03-2019 08:55:17 7.4 C 30 %
406 08-03-2019 09:07:18 7.4 C 31 %
407 08-03-2019 09:19:17 7.3 C 32 %
408 08-03-2019 09:31:17 6.9 C 36 %
409 08-03-2019 09:43:17 6.6 C 40 %
410 08-03-2019 09:55:17 6.5 C 41 %
411 08-03-2019 10:07:18 6.5 C 40 %
412 08-03-2019 10:19:17 7.4 C 35 %
413 08-03-2019 10:31:17 7.7 C 30 %
414 08-03-2019 10:43:17 8.2 C 27 %
415 08-03-2019 10:55:17 8.4 C 27 %
416 08-03-2019 11:07:18 8.1 C 27 %
417 08-03-2019 11:19:17 8.3 C 26 %
418 08-03-2019 11:31:17 8.9 C 25 %
419 08-03-2019 11:43:17 9 C 21 %
420 08-03-2019 11:55:17 9.5 C 20 %
421 08-03-2019 12:07:18 9.9 C 20 %
422 08-03-2019 12:19:17 8.8 C 20 %
423 08-03-2019 12:31:17 8.9 C 20 %
424 08-03-2019 12:43:17 9.1 C 20 %
425 08-03-2019 12:55:17 9.5 C 20 %
Sensor: Nr:Datum:Temp:Feuchte:
Aussen-T/F 426 08-03-2019 13:07:17 9.2 C 20 %
427 08-03-2019 13:19:17 9.2 C 20 %
428 08-03-2019 13:31:17 9.8 C 20 %
429 08-03-2019 13:43:17 9.9 C 20 %
430 08-03-2019 13:55:17 10 C 20 %
431 08-03-2019 14:07:17 10 C 20 %
432 08-03-2019 14:19:17 9.7 C 20 %
433 08-03-2019 14:31:17 10.1 C 20 %
434 08-03-2019 14:43:17 10.2 C 20 %
435 08-03-2019 14:55:17 10.8 C 20 %
436 08-03-2019 15:07:17 11 C 20 %
437 08-03-2019 15:19:17 11.2 C 20 %
438 08-03-2019 15:31:17 11.8 C 20 %
439 08-03-2019 15:43:17 11.8 C 20 %
440 08-03-2019 15:55:17 10.5 C 20 %
441 08-03-2019 16:07:17 10.1 C 20 %
442 08-03-2019 16:19:17 10 C 20 %
443 08-03-2019 16:31:17 11.1 C 20 %
444 08-03-2019 16:43:18 9.7 C 20 %
445 08-03-2019 16:55:17 9.8 C 20 %
446 08-03-2019 17:07:17 9 C 20 %
447 08-03-2019 17:19:17 8.7 C 21 %
448 08-03-2019 17:31:17 8.4 C 27 %
449 08-03-2019 17:43:17 8.1 C 30 %
450 08-03-2019 17:55:17 7.4 C 33 %
Sensor: Nr:Datum:Temp:Feuchte:
Aussen-T/F 451 08-03-2019 18:07:17 6.9 C 38 %
452 08-03-2019 18:19:17 6.9 C 37 %
453 08-03-2019 18:31:17 6.7 C 37 %
454 08-03-2019 18:43:17 6.5 C 37 %
455 08-03-2019 18:55:18 6.3 C 40 %
456 08-03-2019 19:07:17 6.4 C 41 %
457 08-03-2019 19:19:17 6.4 C 41 %
458 08-03-2019 19:31:18 6.1 C 41 %
459 08-03-2019 19:43:18 6 C 42 %
460 08-03-2019 19:55:17 5.9 C 43 %
461 08-03-2019 20:07:17 5.6 C 43 %
462 08-03-2019 20:19:18 5.5 C 45 %
463 08-03-2019 20:31:17 5.4 C 45 %
464 08-03-2019 20:43:17 5.4 C 45 %
465 08-03-2019 20:55:17 5.6 C 46 %
466 08-03-2019 21:07:17 5.9 C 45 %
467 08-03-2019 21:19:18 6 C 42 %
468 08-03-2019 21:31:17 6.2 C 40 %
469 08-03-2019 21:43:17 6.1 C 40 %
470 08-03-2019 21:55:17 6.5 C 36 %
471 08-03-2019 22:07:17 6.4 C 36 %
472 08-03-2019 22:19:18 6.2 C 36 %
473 08-03-2019 22:31:17 6.5 C 35 %
474 08-03-2019 22:43:17 7.1 C 30 %
475 08-03-2019 22:55:17 7.5 C 28 %
Sensor: Nr:Datum:Temp:Feuchte:
Aussen-T/F 476 08-03-2019 23:07:17 7.8 C 26 %
477 08-03-2019 23:19:17 7.4 C 27 %
478 08-03-2019 23:31:18 7.7 C 26 %
479 08-03-2019 23:43:18 7.5 C 27 %
480 08-03-2019 23:55:17 7.7 C 25 %
481 09-03-2019 00:07:17 7.7 C 25 %
482 09-03-2019 00:19:17 7.8 C 25 %
483 09-03-2019 00:31:18 8 C 23 %
484 09-03-2019 00:43:18 8.3 C 20 %
485 09-03-2019 00:55:17 8.2 C 20 %
486 09-03-2019 01:07:17 8.5 C 20 %
487 09-03-2019 01:19:17 8.5 C 20 %
488 09-03-2019 01:31:17 8.7 C 20 %
489 09-03-2019 01:43:17 8.8 C 20 %
490 09-03-2019 01:55:17 8.9 C 20 %
491 09-03-2019 02:07:17 8.9 C 20 %
492 09-03-2019 02:19:17 9 C 20 %
493 09-03-2019 02:31:17 9 C 20 %
494 09-03-2019 02:43:17 9 C 20 %
495 09-03-2019 02:55:17 9 C 20 %
496 09-03-2019 03:07:17 8.8 C 20 %
497 09-03-2019 03:19:17 8.7 C 20 %
498 09-03-2019 03:31:17 8.6 C 23 %
499 09-03-2019 03:43:17 8.3 C 26 %
500 09-03-2019 03:55:17 7.9 C 30 %
Sensor: Nr:Datum:Temp:Feuchte:
Aussen-T/F 501 09-03-2019 04:07:17 7.5 C 33 %
502 09-03-2019 04:19:17 7.3 C 35 %
503 09-03-2019 04:31:17 7.3 C 35 %
504 09-03-2019 04:43:17 7.4 C 35 %
505 09-03-2019 04:55:17 7.2 C 36 %
506 09-03-2019 05:07:17 7.3 C 37 %
507 09-03-2019 05:19:17 7.3 C 38 %
508 09-03-2019 05:31:17 7.1 C 39 %
509 09-03-2019 05:43:17 7.1 C 40 %
510 09-03-2019 05:55:17 7.2 C 40 %
511 09-03-2019 06:07:17 7.5 C 40 %
512 09-03-2019 06:19:17 7.5 C 40 %
513 09-03-2019 06:31:17 7.6 C 40 %
514 09-03-2019 06:43:17 7.7 C 40 %
515 09-03-2019 06:55:17 7.8 C 40 %
516 09-03-2019 07:07:18 8 C 39 %
517 09-03-2019 07:19:17 8.1 C 38 %
518 09-03-2019 07:31:17 8.3 C 37 %
519 09-03-2019 07:43:17 8.6 C 35 %
520 09-03-2019 07:55:17 8.4 C 35 %
521 09-03-2019 08:07:17 8.9 C 34 %
522 09-03-2019 08:19:17 9 C 33 %
523 09-03-2019 08:31:17 9 C 33 %
524 09-03-2019 08:43:17 9.5 C 32 %
525 09-03-2019 08:55:17 9.8 C 31 %
Sensor: Nr:Datum:Temp:Feuchte:
Aussen-T/F 526 09-03-2019 09:07:17 9.8 C 31 %
527 09-03-2019 09:19:17 9.8 C 31 %
528 09-03-2019 09:31:17 9.8 C 32 %
529 09-03-2019 09:43:18 9.9 C 31 %
530 09-03-2019 09:55:17 9.9 C 31 %
531 09-03-2019 10:07:17 10 C 30 %
532 09-03-2019 10:19:17 10.2 C 28 %
533 09-03-2019 10:31:18 10.2 C 27 %
534 09-03-2019 10:43:18 10.2 C 28 %
535 09-03-2019 10:55:17 10.1 C 28 %
536 09-03-2019 11:07:17 10.3 C 27 %
537 09-03-2019 11:19:17 10.5 C 27 %
538 09-03-2019 11:31:18 10.6 C 27 %
539 09-03-2019 11:43:18 11 C 25 %
540 09-03-2019 11:55:17 11.2 C 25 %
541 09-03-2019 12:07:17 11.2 C 23 %
542 09-03-2019 12:19:17 11.3 C 24 %
543 09-03-2019 12:31:17 11.5 C 23 %
544 09-03-2019 12:43:18 12.1 C 20 %
545 09-03-2019 12:55:17 11.8 C 21 %
546 09-03-2019 13:07:17 12.1 C 21 %
547 09-03-2019 13:19:17 12.3 C 20 %
548 09-03-2019 13:31:17 12.7 C 20 %
549 09-03-2019 13:43:17 12.5 C 20 %
550 09-03-2019 13:55:18 12.8 C 20 %
Sensor: Nr:Datum:Temp:Feuchte:
Aussen-T/F 551 09-03-2019 14:07:17 13.1 C 20 %
552 09-03-2019 14:19:17 13.3 C 20 %
553 09-03-2019 14:31:18 13.4 C 20 %
554 09-03-2019 14:43:18 13.5 C 20 %
555 09-03-2019 14:55:17 12.8 C 20 %
556 09-03-2019 15:07:17 13 C 20 %
557 09-03-2019 15:19:17 12.9 C 20 %
558 09-03-2019 15:31:18 13.2 C 20 %
559 09-03-2019 15:43:18 14.1 C 20 %
560 09-03-2019 15:55:17 13.7 C 20 %
561 09-03-2019 16:07:17 13.5 C 20 %
562 09-03-2019 16:19:17 13 C 20 %
563 09-03-2019 16:31:17 13.4 C 20 %
564 09-03-2019 16:43:17 13.1 C 20 %
565 09-03-2019 16:55:17 13.2 C 20 %
566 09-03-2019 17:07:17 13.5 C 20 %
567 09-03-2019 17:19:17 12.7 C 20 %
568 09-03-2019 17:31:17 13.2 C 20 %
569 09-03-2019 17:43:17 12.7 C 20 %
570 09-03-2019 17:55:17 12.3 C 20 %
571 09-03-2019 18:07:17 11.8 C 20 %
572 09-03-2019 18:19:17 11.7 C 20 %
573 09-03-2019 18:31:17 11.6 C 20 %
574 09-03-2019 18:43:17 11.7 C 20 %
575 09-03-2019 18:55:17 11.7 C 20 %
Sensor: Nr:Datum:Temp:Feuchte:
Aussen-T/F 576 09-03-2019 19:07:18 10.7 C 20 %
577 09-03-2019 19:19:17 10.2 C 20 %
578 09-03-2019 19:31:17 9.6 C 27 %
579 09-03-2019 19:43:17 9.5 C 28 %
580 09-03-2019 19:55:17 9.2 C 30 %
581 09-03-2019 20:07:18 9 C 30 %
582 09-03-2019 20:19:17 9.1 C 31 %
583 09-03-2019 20:31:17 9 C 32 %
584 09-03-2019 20:43:17 9 C 32 %
585 09-03-2019 20:55:17 9 C 32 %
586 09-03-2019 21:07:17 9.3 C 28 %
587 09-03-2019 21:19:17 9.7 C 26 %
588 09-03-2019 21:31:18 9.2 C 32 %
589 09-03-2019 21:43:18 8.9 C 35 %
590 09-03-2019 21:55:17 8.7 C 35 %
591 09-03-2019 22:07:17 8.7 C 36 %
592 09-03-2019 22:19:17 8.8 C 36 %
593 09-03-2019 22:31:17 9.6 C 23 %
594 09-03-2019 22:43:17 10 C 20 %
595 09-03-2019 22:55:17 10.1 C 20 %
596 09-03-2019 23:07:18 10 C 20 %
597 09-03-2019 23:19:17 10 C 20 %
598 09-03-2019 23:31:17 10 C 20 %
599 09-03-2019 23:43:17 10 C 20 %
600 09-03-2019 23:55:17 9.8 C 20 %
Sensor: Nr:Datum:Temp:Feuchte:
Aussen-T/F 601 10-03-2019 00:07:17 9.8 C 20 %
602 10-03-2019 00:19:17 9.8 C 20 %
603 10-03-2019 00:31:17 9.7 C 20 %
604 10-03-2019 00:43:17 9.3 C 20 %
605 10-03-2019 00:55:17 9.3 C 20 %
606 10-03-2019 01:07:17 9.3 C 20 %
607 10-03-2019 01:19:17 9.2 C 20 %
608 10-03-2019 01:31:17 9.2 C 20 %
609 10-03-2019 01:43:17 9 C 20 %
610 10-03-2019 01:55:17 9.1 C 20 %
611 10-03-2019 02:07:17 9 C 20 %
612 10-03-2019 02:19:18 9 C 20 %
613 10-03-2019 02:31:17 9 C 20 %
614 10-03-2019 02:43:17 9.1 C 20 %
615 10-03-2019 02:55:17 9.1 C 20 %
616 10-03-2019 03:07:17 8.9 C 21 %
617 10-03-2019 03:19:17 8.5 C 25 %
618 10-03-2019 03:31:17 8.2 C 26 %
619 10-03-2019 03:43:17 7.7 C 30 %
620 10-03-2019 03:55:17 7.6 C 33 %
621 10-03-2019 04:07:17 7.8 C 33 %
622 10-03-2019 04:19:17 7.3 C 37 %
623 10-03-2019 04:31:17 7.1 C 42 %
624 10-03-2019 04:43:17 7 C 44 %
625 10-03-2019 04:55:17 6.8 C 46 %
Sensor: Nr:Datum:Temp:Feuchte:
Aussen-T/F 626 10-03-2019 05:07:17 6.9 C 49 %
627 10-03-2019 05:19:17 6.9 C 52 %
628 10-03-2019 05:31:17 6.8 C 53 %
629 10-03-2019 05:43:17 6.9 C 54 %
630 10-03-2019 05:55:18 6.8 C 54 %
631 10-03-2019 06:07:17 6.9 C 54 %
632 10-03-2019 06:19:18 7.1 C 53 %
633 10-03-2019 06:31:17 6.8 C 54 %
634 10-03-2019 06:43:17 6.7 C 53 %
635 10-03-2019 06:55:17 6.7 C 54 %
636 10-03-2019 07:07:18 6.9 C 54 %
637 10-03-2019 07:19:17 7.1 C 54 %
638 10-03-2019 07:31:17 7.2 C 54 %
639 10-03-2019 07:43:17 7.4 C 54 %
640 10-03-2019 07:55:17 7.4 C 54 %
641 10-03-2019 08:07:17 7.6 C 54 %
642 10-03-2019 08:19:17 8 C 54 %
643 10-03-2019 08:31:17 8.7 C 55 %
644 10-03-2019 08:43:17 9 C 53 %
645 10-03-2019 08:55:17 9.4 C 48 %
646 10-03-2019 09:07:17 9.7 C 46 %
647 10-03-2019 09:19:17 10 C 43 %
648 10-03-2019 09:31:17 10.3 C 43 %
649 10-03-2019 09:43:17 11 C 41 %
650 10-03-2019 09:55:17 11.2 C 40 %
Sensor: Nr:Datum:Temp:Feuchte:
Aussen-T/F 651 10-03-2019 10:07:18 11.4 C 40 %
652 10-03-2019 10:19:17 11.6 C 40 %
653 10-03-2019 10:31:17 11.7 C 40 %
654 10-03-2019 10:43:17 12.6 C 39 %
655 10-03-2019 10:55:17 12.7 C 35 %
656 10-03-2019 11:07:17 12.9 C 31 %
657 10-03-2019 11:19:17 13.3 C 25 %
658 10-03-2019 11:31:17 13.1 C 21 %
659 10-03-2019 11:43:17 13.3 C 21 %
660 10-03-2019 11:55:18 13.6 C 20 %
661 10-03-2019 12:07:17 13.9 C 20 %
662 10-03-2019 12:19:17 14 C 20 %
663 10-03-2019 12:31:18 14.2 C 20 %
664 10-03-2019 12:43:18 13.9 C 20 %
665 10-03-2019 12:55:17 14 C 20 %
666 10-03-2019 13:07:17 13.7 C 20 %
667 10-03-2019 13:19:17 13.7 C 20 %
668 10-03-2019 13:31:17 14.5 C 20 %
669 10-03-2019 13:43:17 14.8 C 20 %
670 10-03-2019 13:55:17 14.8 C 20 %
671 10-03-2019 14:07:17 14.5 C 20 %
672 10-03-2019 14:19:17 14.2 C 20 %
673 10-03-2019 14:31:17 14.1 C 20 %
674 10-03-2019 14:43:17 13.9 C 20 %
675 10-03-2019 14:55:17 13.7 C 20 %
Sensor: Nr:Datum:Temp:Feuchte:
Aussen-T/F 676 10-03-2019 15:07:17 13.5 C 20 %
677 10-03-2019 15:19:17 13.2 C 20 %
678 10-03-2019 15:31:17 13.4 C 20 %
679 10-03-2019 15:43:17 13.6 C 20 %
680 10-03-2019 15:55:17 13.4 C 20 %
681 10-03-2019 16:07:18 12.8 C 20 %
682 10-03-2019 16:19:17 12.2 C 20 %
683 10-03-2019 16:31:18 12.2 C 20 %
684 10-03-2019 16:43:18 12.1 C 20 %
685 10-03-2019 16:55:17 11.7 C 20 %
686 10-03-2019 17:07:17 11.7 C 20 %
687 10-03-2019 17:19:17 11.1 C 20 %
688 10-03-2019 17:31:17 9.1 C 20 %
689 10-03-2019 17:43:17 9 C 20 %
690 10-03-2019 17:55:17 8.7 C 20 %
691 10-03-2019 18:07:18 8.7 C 20 %
692 10-03-2019 18:19:17 6.5 C 31 %
693 10-03-2019 18:31:18 6.4 C 33 %
694 10-03-2019 18:43:18 6.1 C 35 %
695 10-03-2019 18:55:17 6 C 33 %
696 10-03-2019 19:07:17 6.4 C 30 %
697 10-03-2019 19:19:17 6.3 C 30 %
698 10-03-2019 19:31:18 6.6 C 27 %
699 10-03-2019 19:43:18 6.6 C 26 %
700 10-03-2019 19:55:17 6.8 C 21 %
Sensor: Nr:Datum:Temp:Feuchte:
Aussen-T/F 701 10-03-2019 20:07:17 6.9 C 20 %
702 10-03-2019 20:19:17 5.4 C 20 %
703 10-03-2019 20:31:17 5.1 C 20 %
704 10-03-2019 20:43:17 5 C 23 %
705 10-03-2019 20:55:17 5 C 25 %
706 10-03-2019 21:07:17 4.8 C 26 %
707 10-03-2019 21:19:17 4.7 C 27 %
708 10-03-2019 21:31:17 4.7 C 26 %
709 10-03-2019 21:43:17 4.9 C 25 %
710 10-03-2019 21:55:17 4.5 C 25 %
711 10-03-2019 22:07:17 4.3 C 26 %
712 10-03-2019 22:19:17 4.7 C 26 %
713 10-03-2019 22:31:17 4.8 C 26 %
714 10-03-2019 22:43:17 4.7 C 27 %
715 10-03-2019 22:55:17 4.5 C 28 %
716 10-03-2019 23:07:17 4.3 C 29 %
717 10-03-2019 23:19:17 4.6 C 27 %
718 10-03-2019 23:31:17 4.6 C 26 %
719 10-03-2019 23:43:17 4.3 C 27 %
720 10-03-2019 23:55:17 4.1 C 26 %
721 11-03-2019 00:07:17 3.8 C 29 %
722 11-03-2019 00:19:17 3.3 C 31 %
723 11-03-2019 00:31:17 3.6 C 30 %
724 11-03-2019 00:43:17 3.3 C 31 %
725 11-03-2019 00:55:18 3.7 C 30 %
Sensor: Nr:Datum:Temp:Feuchte:
Aussen-T/F 726 11-03-2019 01:07:17 3.8 C 28 %
727 11-03-2019 01:19:17 3.7 C 28 %
728 11-03-2019 01:31:18 3.5 C 29 %
729 11-03-2019 01:43:18 4.2 C 25 %
730 11-03-2019 01:55:17 4.3 C 23 %
731 11-03-2019 02:07:17 4.7 C 23 %
732 11-03-2019 02:19:17 4.7 C 25 %
733 11-03-2019 02:31:17 4.3 C 27 %
734 11-03-2019 02:43:17 4.3 C 28 %
735 11-03-2019 02:55:17 4.3 C 28 %
736 11-03-2019 03:07:17 4.4 C 29 %
737 11-03-2019 03:19:17 3 C 33 %
738 11-03-2019 03:31:17 1.5 C 41 %
739 11-03-2019 03:43:17 1.2 C 47 %
740 11-03-2019 03:55:17 1.3 C 51 %
741 11-03-2019 04:07:18 1.5 C 54 %
742 11-03-2019 04:19:17 1.6 C 55 %
743 11-03-2019 04:31:17 1.7 C 56 %
744 11-03-2019 04:43:17 1.5 C 55 %
745 11-03-2019 04:55:17 1.5 C 55 %
746 11-03-2019 05:07:17 1.5 C 55 %
747 11-03-2019 05:19:17 1.2 C 52 %
748 11-03-2019 05:31:17 1.2 C 51 %
749 11-03-2019 05:43:17 1.2 C 51 %
750 11-03-2019 05:55:17 1.2 C 49 %
Sensor: Nr:Datum:Temp:Feuchte:
Aussen-T/F 751 11-03-2019 06:07:18 0.8 C 48 %
752 11-03-2019 06:19:17 0.6 C 50 %
753 11-03-2019 06:31:17 0.6 C 52 %
754 11-03-2019 06:43:17 0.5 C 54 %
755 11-03-2019 06:55:17 0.5 C 54 %
756 11-03-2019 07:07:17 0.6 C 56 %
757 11-03-2019 07:19:17 0.7 C 56 %
758 11-03-2019 07:31:17 0.8 C 57 %
759 11-03-2019 07:43:17 1.1 C 55 %
760 11-03-2019 07:55:17 1.3 C 55 %
761 11-03-2019 08:07:17 1.2 C 54 %
762 11-03-2019 08:19:17 1.2 C 54 %
763 11-03-2019 08:31:18 1.8 C 53 %
764 11-03-2019 08:43:18 2.3 C 50 %
765 11-03-2019 08:55:17 2.7 C 44 %
766 11-03-2019 09:07:17 3.1 C 34 %
767 11-03-2019 09:19:18 3.3 C 32 %
768 11-03-2019 09:31:17 2.7 C 34 %
769 11-03-2019 09:43:17 2.4 C 38 %
770 11-03-2019 09:55:17 2.6 C 39 %
771 11-03-2019 10:07:17 3.2 C 37 %
772 11-03-2019 10:19:17 3.9 C 36 %
773 11-03-2019 10:31:17 3.7 C 34 %
774 11-03-2019 10:43:17 3.5 C 33 %
775 11-03-2019 10:55:17 3.7 C 32 %
Sensor: Nr:Datum:Temp:Feuchte:
Aussen-T/F 776 11-03-2019 11:07:18 4.3 C 31 %
777 11-03-2019 11:19:17 4.4 C 30 %
778 11-03-2019 11:31:17 5.8 C 27 %
779 11-03-2019 11:43:17 5.2 C 23 %
780 11-03-2019 11:55:18 5.1 C 21 %
781 11-03-2019 12:07:17 5 C 21 %
782 11-03-2019 12:19:17 5.2 C 20 %
783 11-03-2019 12:31:17 5.5 C 20 %
784 11-03-2019 12:43:17 5.6 C 20 %
785 11-03-2019 12:55:17 5.9 C 20 %
786 11-03-2019 13:07:17 5.6 C 20 %
787 11-03-2019 13:19:17 5.9 C 20 %
788 11-03-2019 13:31:17 6 C 20 %
789 11-03-2019 13:43:17 6.4 C 20 %
790 11-03-2019 13:55:17 6.1 C 20 %
791 11-03-2019 14:07:17 6.1 C 20 %
792 11-03-2019 14:19:17 6.7 C 20 %
793 11-03-2019 14:31:17 6.8 C 20 %
794 11-03-2019 14:43:17 7 C 20 %
795 11-03-2019 14:55:17 7.2 C 20 %
796 11-03-2019 15:07:17 7.3 C 20 %
797 11-03-2019 15:19:17 7.2 C 20 %
798 11-03-2019 15:31:17 7.7 C 20 %
799 11-03-2019 15:43:17 7.4 C 20 %
800 11-03-2019 15:55:17 7.3 C 20 %
Sensor: Nr:Datum:Temp:Feuchte:
Aussen-T/F 801 11-03-2019 16:07:17 6.8 C 20 %
802 11-03-2019 16:19:17 6.9 C 20 %
803 11-03-2019 16:31:17 6.9 C 20 %
804 11-03-2019 16:43:17 6.7 C 20 %
805 11-03-2019 16:55:17 7 C 20 %
806 11-03-2019 17:07:17 6.1 C 20 %
807 11-03-2019 17:19:18 5.8 C 20 %
808 11-03-2019 17:31:17 7.6 C 20 %
809 11-03-2019 17:43:17 8.5 C 20 %
810 11-03-2019 17:55:17 8.7 C 20 %
811 11-03-2019 18:07:18 7.3 C 20 %
812 11-03-2019 18:19:17 6.4 C 20 %
813 11-03-2019 18:31:17 6 C 20 %
814 11-03-2019 18:43:17 5.7 C 20 %
815 11-03-2019 18:55:17 5.4 C 20 %
816 11-03-2019 19:07:17 5.3 C 20 %
817 11-03-2019 19:19:17 5.2 C 20 %
818 11-03-2019 19:31:17 5.2 C 20 %
819 11-03-2019 19:43:17 5.3 C 20 %
820 11-03-2019 19:55:17 5.1 C 20 %
821 11-03-2019 20:07:17 5 C 20 %
822 11-03-2019 20:19:17 5.1 C 20 %
823 11-03-2019 20:31:17 4.9 C 20 %
824 11-03-2019 20:43:18 4.9 C 20 %
825 11-03-2019 20:55:17 4.8 C 20 %
Sensor: Nr:Datum:Temp:Feuchte:
Aussen-T/F 826 11-03-2019 21:07:17 4.4 C 20 %
827 11-03-2019 21:19:17 4.7 C 20 %
828 11-03-2019 21:31:17 4.6 C 20 %
829 11-03-2019 21:43:17 4.6 C 20 %
830 11-03-2019 21:55:17 4.7 C 20 %
831 11-03-2019 22:07:17 4.7 C 20 %
832 11-03-2019 22:19:17 4.7 C 20 %
833 11-03-2019 22:31:17 4.4 C 20 %
834 11-03-2019 22:43:17 4.2 C 20 %
835 11-03-2019 22:55:17 4.1 C 20 %
836 11-03-2019 23:07:17 4.1 C 20 %
837 11-03-2019 23:19:17 4 C 20 %
838 11-03-2019 23:31:18 4 C 20 %
839 11-03-2019 23:43:18 3.6 C 23 %
840 11-03-2019 23:55:17 3.7 C 23 %
841 12-03-2019 00:07:17 3.5 C 25 %
842 12-03-2019 00:19:17 3.4 C 27 %
843 12-03-2019 00:31:18 3.2 C 30 %
844 12-03-2019 00:43:18 3.3 C 30 %
845 12-03-2019 00:55:17 3.2 C 30 %
846 12-03-2019 01:07:17 2.7 C 31 %
847 12-03-2019 01:19:17 2 C 35 %
848 12-03-2019 01:31:18 2.4 C 36 %
849 12-03-2019 01:43:18 2.1 C 35 %
850 12-03-2019 01:55:17 1.6 C 40 %
Sensor: Nr:Datum:Temp:Feuchte:
Aussen-T/F 851 12-03-2019 02:07:17 1.3 C 40 %
852 12-03-2019 02:19:18 0.9 C 42 %
853 12-03-2019 02:31:17 0.8 C 44 %
854 12-03-2019 02:43:17 0.8 C 45 %
855 12-03-2019 02:55:17 1.1 C 41 %
856 12-03-2019 03:07:18 1.1 C 42 %
857 12-03-2019 03:19:17 1.3 C 42 %
858 12-03-2019 03:31:17 1.1 C 40 %
859 12-03-2019 03:43:17 1.4 C 40 %
860 12-03-2019 03:55:17 1.2 C 38 %
861 12-03-2019 04:07:18 0.9 C 41 %
862 12-03-2019 04:19:17 1.1 C 40 %
863 12-03-2019 04:31:17 0.8 C 41 %
864 12-03-2019 04:43:17 0.7 C 42 %
865 12-03-2019 04:55:17 0.8 C 43 %
866 12-03-2019 05:07:17 1.1 C 41 %
867 12-03-2019 05:19:17 1.4 C 40 %
868 12-03-2019 05:31:17 1.4 C 40 %
869 12-03-2019 05:43:17 1.4 C 40 %
870 12-03-2019 05:55:17 1.4 C 40 %
871 12-03-2019 06:07:17 1.3 C 41 %
872 12-03-2019 06:19:17 1.2 C 41 %
873 12-03-2019 06:31:17 0.9 C 43 %
874 12-03-2019 06:43:17 0.6 C 46 %
875 12-03-2019 06:55:18 0.7 C 47 %
Sensor: Nr:Datum:Temp:Feuchte:
Aussen-T/F 876 12-03-2019 07:07:17 0.9 C 47 %
877 12-03-2019 07:19:17 0.9 C 47 %
878 12-03-2019 07:31:17 1.4 C 47 %
879 12-03-2019 07:43:18 1.8 C 46 %
880 12-03-2019 07:55:17 2.2 C 45 %
881 12-03-2019 08:07:17 2.4 C 41 %
882 12-03-2019 08:19:17 2.6 C 39 %
883 12-03-2019 08:31:18 3.2 C 38 %
884 12-03-2019 08:43:18 3.8 C 32 %
885 12-03-2019 08:55:17 4.4 C 30 %
886 12-03-2019 09:07:17 4.6 C 30 %
887 12-03-2019 09:19:18 4.7 C 30 %
888 12-03-2019 09:31:17 5 C 29 %
889 12-03-2019 09:43:17 5.7 C 27 %
890 12-03-2019 09:55:17 6.3 C 23 %
891 12-03-2019 10:07:17 7.3 C 20 %
892 12-03-2019 10:19:17 7.4 C 20 %
893 12-03-2019 10:31:17 7.4 C 20 %
894 12-03-2019 10:43:17 8.6 C 20 %
895 12-03-2019 10:55:17 8.1 C 20 %
896 12-03-2019 11:07:17 8.4 C 20 %
897 12-03-2019 11:19:17 9.1 C 20 %
898 12-03-2019 11:31:17 9.9 C 20 %
899 12-03-2019 11:43:17 9.3 C 20 %
900 12-03-2019 11:55:17 9.2 C 20 %
Sensor: Nr:Datum:Temp:Feuchte:
Aussen-T/F 901 12-03-2019 12:07:17 9.3 C 20 %
902 12-03-2019 12:19:17 9.4 C 20 %
903 12-03-2019 12:31:17 9.6 C 20 %
904 12-03-2019 12:43:17 9.9 C 20 %
905 12-03-2019 12:55:17 9.7 C 20 %
906 12-03-2019 13:07:18 9.6 C 20 %
907 12-03-2019 13:19:17 9.8 C 20 %
908 12-03-2019 13:31:17 10.3 C 20 %
909 12-03-2019 13:43:17 9.7 C 20 %
910 12-03-2019 13:55:17 10.1 C 20 %
911 12-03-2019 14:07:17 10.1 C 20 %
912 12-03-2019 14:19:17 10.3 C 20 %
913 12-03-2019 14:31:18 10.5 C 20 %
914 12-03-2019 14:43:18 10.6 C 20 %
915 12-03-2019 14:55:17 11.4 C 20 %
916 12-03-2019 15:07:17 11 C 20 %
917 12-03-2019 15:19:17 10.4 C 20 %
918 12-03-2019 15:31:17 10.4 C 20 %
919 12-03-2019 15:43:17 10.2 C 20 %
920 12-03-2019 15:55:17 10.6 C 20 %
921 12-03-2019 16:07:18 10.4 C 20 %
922 12-03-2019 16:19:17 10 C 20 %
923 12-03-2019 16:31:17 9.8 C 20 %
924 12-03-2019 16:43:17 9.7 C 20 %
925 12-03-2019 16:55:17 9.4 C 20 %
Sensor: Nr:Datum:Temp:Feuchte:
Aussen-T/F 926 12-03-2019 17:07:17 9.2 C 20 %
927 12-03-2019 17:19:17 8.8 C 20 %
928 12-03-2019 17:31:18 8.2 C 20 %
929 12-03-2019 17:43:18 8 C 20 %
930 12-03-2019 17:55:17 7.6 C 20 %
931 12-03-2019 18:07:17 7.1 C 20 %
932 12-03-2019 18:19:17 7 C 20 %
933 12-03-2019 18:31:17 7.3 C 20 %
934 12-03-2019 18:43:17 7.4 C 20 %
935 12-03-2019 18:55:17 7.7 C 20 %
936 12-03-2019 19:07:17 7.7 C 20 %
937 12-03-2019 19:19:17 7.8 C 20 %
938 12-03-2019 19:31:17 7.9 C 20 %
939 12-03-2019 19:43:17 8.1 C 20 %
940 12-03-2019 19:55:17 7.7 C 20 %
941 12-03-2019 20:07:17 8 C 20 %
942 12-03-2019 20:19:17 8.6 C 20 %
943 12-03-2019 20:31:17 8.6 C 20 %
944 12-03-2019 20:43:17 8.9 C 20 %
945 12-03-2019 20:55:17 9 C 20 %
946 12-03-2019 21:07:18 9.7 C 20 %
947 12-03-2019 21:19:17 10.1 C 20 %
948 12-03-2019 21:31:17 10.3 C 20 %
949 12-03-2019 21:43:17 10.5 C 20 %
950 12-03-2019 21:55:17 10.6 C 20 %
Sensor: Nr:Datum:Temp:Feuchte:
Aussen-T/F 951 12-03-2019 22:07:18 10.7 C 20 %
952 12-03-2019 22:19:17 10.9 C 20 %
953 12-03-2019 22:31:17 10.6 C 20 %
954 12-03-2019 22:43:17 10.5 C 20 %
955 12-03-2019 22:55:17 9.6 C 20 %
956 12-03-2019 23:07:17 8.4 C 20 %
957 12-03-2019 23:19:17 8.4 C 20 %
958 12-03-2019 23:31:17 8 C 25 %
959 12-03-2019 23:43:17 6.2 C 32 %
960 12-03-2019 23:55:17 5.7 C 36 %
961 13-03-2019 00:07:17 5.5 C 36 %
962 13-03-2019 00:19:17 5.4 C 32 %
963 13-03-2019 00:31:17 5.6 C 31 %
964 13-03-2019 00:43:17 5.6 C 30 %
965 13-03-2019 00:55:17 5.6 C 30 %
966 13-03-2019 01:07:17 5.4 C 27 %
967 13-03-2019 01:19:18 5.1 C 28 %
968 13-03-2019 01:31:17 5 C 29 %
969 13-03-2019 01:43:17 5.1 C 26 %
970 13-03-2019 01:55:17 4.9 C 27 %
971 13-03-2019 02:07:18 4.8 C 28 %
972 13-03-2019 02:19:17 4.7 C 30 %
973 13-03-2019 02:31:17 5.1 C 28 %
974 13-03-2019 02:43:17 5.4 C 21 %
975 13-03-2019 02:55:17 5.3 C 21 %
Sensor: Nr:Datum:Temp:Feuchte:
Aussen-T/F 976 13-03-2019 03:07:17 5 C 23 %
977 13-03-2019 03:19:17 5 C 21 %
978 13-03-2019 03:31:17 5.3 C 21 %
979 13-03-2019 03:43:18 5.4 C 23 %
980 13-03-2019 03:55:17 5.1 C 25 %
981 13-03-2019 04:07:17 5 C 25 %
982 13-03-2019 04:19:17 5 C 25 %
983 13-03-2019 04:31:17 4.7 C 29 %
984 13-03-2019 04:43:17 4.6 C 30 %
985 13-03-2019 04:55:17 4.6 C 30 %
986 13-03-2019 05:07:17 4.6 C 32 %
987 13-03-2019 05:19:17 4.4 C 33 %
988 13-03-2019 05:31:17 4.6 C 33 %
989 13-03-2019 05:43:17 4.9 C 33 %
990 13-03-2019 05:55:17 4.6 C 32 %
991 13-03-2019 06:07:17 4.4 C 31 %
992 13-03-2019 06:19:17 4.1 C 33 %
993 13-03-2019 06:31:17 4.7 C 31 %
994 13-03-2019 06:43:17 5 C 29 %
995 13-03-2019 06:55:18 4.9 C 30 %
996 13-03-2019 07:07:17 4.7 C 29 %
997 13-03-2019 07:19:17 4.8 C 29 %
998 13-03-2019 07:31:17 4.8 C 28 %
999 13-03-2019 07:43:17 5.1 C 26 %
1000 13-03-2019 07:55:18 5 C 29 %
Sensor: Nr:Datum:Temp:Feuchte:
Aussen-T/F 1001 13-03-2019 08:07:17 5.1 C 28 %
1002 13-03-2019 08:19:17 5.6 C 26 %
1003 13-03-2019 08:31:17 5.8 C 26 %
1004 13-03-2019 08:43:18 5.8 C 26 %
1005 13-03-2019 08:55:17 5.8 C 27 %
1006 13-03-2019 09:07:17 5.7 C 27 %
1007 13-03-2019 09:19:17 6.3 C 20 %
1008 13-03-2019 09:31:18 6.4 C 20 %
1009 13-03-2019 09:43:18 6 C 20 %
1010 13-03-2019 09:55:17 5.9 C 21 %
1011 13-03-2019 10:07:17 6.7 C 20 %
1012 13-03-2019 10:19:17 6.9 C 20 %
1013 13-03-2019 10:31:17 6.8 C 20 %
1014 13-03-2019 10:43:17 7 C 20 %
1015 13-03-2019 10:55:17 7.2 C 20 %
1016 13-03-2019 11:07:17 7.6 C 20 %
1017 13-03-2019 11:19:17 7.9 C 20 %
1018 13-03-2019 11:31:17 8.2 C 20 %
1019 13-03-2019 11:43:17 8 C 20 %
1020 13-03-2019 11:55:17 7.6 C 20 %
1021 13-03-2019 12:07:17 8.1 C 20 %
1022 13-03-2019 12:19:17 8.2 C 20 %
1023 13-03-2019 12:31:17 8.6 C 20 %
1024 13-03-2019 12:43:17 8.2 C 20 %
1025 13-03-2019 12:55:17 8 C 20 %
Sensor: Nr:Datum:Temp:Feuchte:
Aussen-T/F 1026 13-03-2019 13:07:17 7.6 C 20 %
1027 13-03-2019 13:19:17 7.9 C 20 %
1028 13-03-2019 13:31:17 7.7 C 20 %
1029 13-03-2019 13:43:17 7.6 C 23 %
1030 13-03-2019 13:55:17 7.8 C 20 %
1031 13-03-2019 14:07:18 8 C 20 %
1032 13-03-2019 14:19:17 7.8 C 21 %
1033 13-03-2019 14:31:17 7.6 C 21 %
1034 13-03-2019 14:43:17 7.7 C 23 %
1035 13-03-2019 14:55:17 7.9 C 21 %
1036 13-03-2019 15:07:17 7.5 C 25 %
1037 13-03-2019 15:19:17 7.5 C 25 %
1038 13-03-2019 15:31:18 7.7 C 25 %
1039 13-03-2019 15:43:18 7.3 C 27 %
1040 13-03-2019 15:55:17 6.9 C 31 %
1041 13-03-2019 16:07:17 6.2 C 37 %
1042 13-03-2019 16:19:17 5.8 C 41 %
1043 13-03-2019 16:31:17 5.9 C 41 %
1044 13-03-2019 16:43:18 5.9 C 42 %
1045 13-03-2019 16:55:17 5.8 C 44 %
1046 13-03-2019 17:07:17 6.2 C 40 %
1047 13-03-2019 17:19:18 6.2 C 37 %
1048 13-03-2019 17:31:17 6 C 37 %
1049 13-03-2019 17:43:17 6 C 38 %
1050 13-03-2019 17:55:17 6.1 C 37 %
Sensor: Nr:Datum:Temp:Feuchte:
Aussen-T/F 1051 13-03-2019 18:07:17 6.5 C 35 %
1052 13-03-2019 18:19:17 6 C 37 %
1053 13-03-2019 18:31:17 5.7 C 42 %
1054 13-03-2019 18:43:17 5.3 C 46 %
1055 13-03-2019 18:55:17 4.2 C 46 %
1056 13-03-2019 19:07:17 4.3 C 47 %
1057 13-03-2019 19:19:17 4.2 C 47 %
1058 13-03-2019 19:31:17 4.1 C 49 %
1059 13-03-2019 19:43:17 4.1 C 50 %
1060 13-03-2019 19:55:17 4.3 C 52 %
1061 13-03-2019 20:07:17 4.8 C 44 %
1062 13-03-2019 20:19:17 4.7 C 42 %
1063 13-03-2019 20:31:17 4.4 C 43 %
1064 13-03-2019 20:43:17 4.3 C 42 %
1065 13-03-2019 20:55:17 4.5 C 42 %
1066 13-03-2019 21:07:17 4.4 C 42 %
1067 13-03-2019 21:19:17 4.3 C 45 %
1068 13-03-2019 21:31:17 4.4 C 46 %
1069 13-03-2019 21:43:17 4.3 C 46 %
1070 13-03-2019 21:55:17 4.6 C 46 %
1071 13-03-2019 22:07:17 4.3 C 46 %
1072 13-03-2019 22:19:17 4.4 C 47 %
1073 13-03-2019 22:31:18 4.4 C 47 %
1074 13-03-2019 22:43:18 4.5 C 46 %
1075 13-03-2019 22:55:17 4.6 C 45 %
Sensor: Nr:Datum:Temp:Feuchte:
Aussen-T/F 1076 13-03-2019 23:07:17 3.8 C 48 %
1077 13-03-2019 23:19:17 3.6 C 50 %
1078 13-03-2019 23:31:18 3.7 C 53 %
1079 13-03-2019 23:43:18 3.8 C 53 %
1080 13-03-2019 23:55:17 4 C 48 %
1081 14-03-2019 00:07:17 3.9 C 46 %
1082 14-03-2019 00:19:17 4.1 C 44 %
1083 14-03-2019 00:31:17 4 C 43 %
1084 14-03-2019 00:43:17 4.2 C 41 %
1085 14-03-2019 00:55:17 4.4 C 39 %
1086 14-03-2019 01:07:17 4.6 C 39 %
1087 14-03-2019 01:19:17 4.5 C 40 %
1088 14-03-2019 01:31:17 4.1 C 42 %
1089 14-03-2019 01:43:17 4.1 C 45 %
1090 14-03-2019 01:55:17 4.1 C 46 %
1091 14-03-2019 02:07:17 4.2 C 46 %
1092 14-03-2019 02:19:18 4.2 C 46 %
1093 14-03-2019 02:31:17 4.1 C 45 %
1094 14-03-2019 02:43:17 3.9 C 46 %
1095 14-03-2019 02:55:17 3.6 C 46 %
1096 14-03-2019 03:07:17 3.5 C 47 %
1097 14-03-2019 03:19:17 3.5 C 50 %
1098 14-03-2019 03:31:17 3.5 C 51 %
1099 14-03-2019 03:43:17 3.8 C 52 %
1100 14-03-2019 03:55:17 4.2 C 48 %
Sensor: Nr:Datum:Temp:Feuchte:
Aussen-T/F 1101 14-03-2019 04:07:17 4.1 C 49 %
1102 14-03-2019 04:19:17 4 C 49 %
1103 14-03-2019 04:31:17 4.3 C 48 %
1104 14-03-2019 04:43:17 4.5 C 48 %
1105 14-03-2019 04:55:17 4.6 C 47 %
1106 14-03-2019 05:07:17 5 C 43 %
1107 14-03-2019 05:19:17 5 C 42 %
1108 14-03-2019 05:31:17 5.4 C 40 %
1109 14-03-2019 05:43:17 5.6 C 37 %
1110 14-03-2019 05:55:17 5.7 C 37 %
1111 14-03-2019 06:07:17 5.5 C 38 %
1112 14-03-2019 06:19:17 5.6 C 37 %
1113 14-03-2019 06:31:18 5.6 C 38 %
1114 14-03-2019 06:43:18 5.6 C 38 %
1115 14-03-2019 06:55:17 5.7 C 37 %
1116 14-03-2019 07:07:17 5.7 C 36 %
1117 14-03-2019 07:19:17 5.8 C 36 %
1118 14-03-2019 07:31:17 5.8 C 35 %
1119 14-03-2019 07:43:17 5.9 C 35 %
1120 14-03-2019 07:55:17 6.1 C 33 %
1121 14-03-2019 08:07:17 6.1 C 32 %
1122 14-03-2019 08:19:17 6.2 C 32 %
1123 14-03-2019 08:31:17 6.2 C 32 %
1124 14-03-2019 08:43:17 5.8 C 35 %
1125 14-03-2019 08:55:17 5.5 C 38 %
Sensor: Nr:Datum:Temp:Feuchte:
Aussen-T/F 1126 14-03-2019 09:07:18 5.5 C 40 %
1127 14-03-2019 09:19:17 5.4 C 42 %
1128 14-03-2019 09:31:17 5.4 C 42 %
1129 14-03-2019 09:43:17 5.6 C 41 %
1130 14-03-2019 09:55:17 5.7 C 40 %
1131 14-03-2019 10:07:18 5.7 C 40 %
1132 14-03-2019 10:19:17 5.8 C 39 %
1133 14-03-2019 10:31:17 5.8 C 39 %
1134 14-03-2019 10:43:18 5.8 C 39 %
1135 14-03-2019 10:55:17 5.6 C 40 %
1136 14-03-2019 11:07:17 5.6 C 41 %
1137 14-03-2019 11:19:18 5.6 C 41 %
1138 14-03-2019 11:31:17 5.7 C 41 %
1139 14-03-2019 11:43:17 6 C 41 %
1140 14-03-2019 11:55:17 6.1 C 40 %
1141 14-03-2019 12:07:18 6.6 C 38 %
1142 14-03-2019 12:19:17 6.5 C 38 %
1143 14-03-2019 12:31:17 6.3 C 39 %
1144 14-03-2019 12:43:17 6.4 C 40 %
1145 14-03-2019 12:55:17 6.8 C 41 %
1146 14-03-2019 13:07:17 6.7 C 40 %
1147 14-03-2019 13:19:17 6.8 C 39 %
1148 14-03-2019 13:31:18 6.8 C 38 %
1149 14-03-2019 13:43:18 6.6 C 38 %
1150 14-03-2019 13:55:17 6.9 C 35 %
Sensor: Nr:Datum:Temp:Feuchte:
Aussen-T/F 1151 14-03-2019 14:07:17 6.9 C 35 %
1152 14-03-2019 14:19:17 6.8 C 37 %
1153 14-03-2019 14:31:17 6.8 C 38 %
1154 14-03-2019 14:43:17 6.5 C 40 %
1155 14-03-2019 14:55:17 6.6 C 43 %
1156 14-03-2019 15:07:18 7 C 41 %
1157 14-03-2019 15:19:17 7.3 C 40 %
1158 14-03-2019 15:31:17 7.2 C 40 %
1159 14-03-2019 15:43:17 7.1 C 43 %
1160 14-03-2019 15:55:17 7.2 C 44 %
1161 14-03-2019 16:07:17 8 C 38 %
1162 14-03-2019 16:19:17 8.6 C 32 %
1163 14-03-2019 16:31:18 8.7 C 32 %
1164 14-03-2019 16:43:18 8.4 C 33 %
1165 14-03-2019 16:55:17 8.5 C 35 %
1166 14-03-2019 17:07:17 8.4 C 37 %
1167 14-03-2019 17:19:18 9.3 C 35 %
1168 14-03-2019 17:31:17 10.3 C 30 %
1169 14-03-2019 17:43:17 10.2 C 28 %
1170 14-03-2019 17:55:17 9.8 C 31 %
1171 14-03-2019 18:07:17 9.3 C 33 %
1172 14-03-2019 18:19:17 9 C 35 %
1173 14-03-2019 18:31:18 9.4 C 31 %
1174 14-03-2019 18:43:18 9.2 C 30 %
1175 14-03-2019 18:55:17 9.2 C 29 %
Sensor: Nr:Datum:Temp:Feuchte:
Aussen-T/F 1176 14-03-2019 19:07:17 9.2 C 26 %
1177 14-03-2019 19:19:18 9.2 C 25 %
1178 14-03-2019 19:31:17 9.1 C 23 %
1179 14-03-2019 19:43:17 7.9 C 31 %
1180 14-03-2019 19:55:17 7.2 C 36 %
1181 14-03-2019 20:07:18 6.8 C 40 %
1182 14-03-2019 20:19:17 6.6 C 42 %
1183 14-03-2019 20:31:17 6.5 C 41 %
1184 14-03-2019 20:43:17 6.7 C 40 %
1185 14-03-2019 20:55:18 6.9 C 38 %
1186 14-03-2019 21:07:17 7.1 C 35 %
1187 14-03-2019 21:19:17 7.6 C 32 %
1188 14-03-2019 21:31:17 7.6 C 33 %
1189 14-03-2019 21:43:17 7.5 C 33 %
1190 14-03-2019 21:55:17 7.2 C 35 %
1191 14-03-2019 22:07:17 7.4 C 32 %
1192 14-03-2019 22:19:17 7.6 C 30 %
1193 14-03-2019 22:31:17 7.5 C 29 %
1194 14-03-2019 22:43:17 7.4 C 29 %
1195 14-03-2019 22:55:17 7.5 C 28 %
1196 14-03-2019 23:07:18 7.4 C 29 %
1197 14-03-2019 23:19:17 7.4 C 29 %
1198 14-03-2019 23:31:17 7.3 C 29 %
1199 14-03-2019 23:43:17 7.1 C 30 %
1200 14-03-2019 23:55:17 7 C 30 %
Sensor: Nr:Datum:Temp:Feuchte:
Aussen-T/F 1201 15-03-2019 00:07:17 6.9 C 31 %
1202 15-03-2019 00:19:17 6.3 C 34 %
1203 15-03-2019 00:31:17 6.2 C 35 %
1204 15-03-2019 00:43:17 6 C 35 %
1205 15-03-2019 00:55:17 5.7 C 37 %
1206 15-03-2019 01:07:17 5.5 C 39 %
1207 15-03-2019 01:19:17 5.6 C 38 %
1208 15-03-2019 01:31:17 5.8 C 37 %
1209 15-03-2019 01:43:17 6 C 36 %
1210 15-03-2019 01:55:17 6.1 C 36 %
1211 15-03-2019 02:07:17 6.3 C 35 %
1212 15-03-2019 02:19:17 6.4 C 35 %
1213 15-03-2019 02:31:17 6.5 C 35 %
1214 15-03-2019 02:43:17 6.4 C 35 %
1215 15-03-2019 02:55:18 5.8 C 37 %
1216 15-03-2019 03:07:17 5.4 C 40 %
1217 15-03-2019 03:19:17 5.6 C 41 %
1218 15-03-2019 03:31:17 5.5 C 41 %
1219 15-03-2019 03:43:18 5.3 C 42 %
1220 15-03-2019 03:55:17 5.3 C 42 %
1221 15-03-2019 04:07:17 5.2 C 42 %
1222 15-03-2019 04:19:17 5 C 45 %
1223 15-03-2019 04:31:18 5.4 C 46 %
1224 15-03-2019 04:43:18 5.9 C 41 %
1225 15-03-2019 04:55:17 6.5 C 38 %
Sensor: Nr:Datum:Temp:Feuchte:
Aussen-T/F 1226 15-03-2019 05:07:17 6.5 C 37 %
1227 15-03-2019 05:19:18 6.5 C 37 %
1228 15-03-2019 05:31:17 6.5 C 38 %
1229 15-03-2019 05:43:17 6.5 C 38 %
1230 15-03-2019 05:55:17 6.5 C 38 %
1231 15-03-2019 06:07:17 6.4 C 42 %
1232 15-03-2019 06:19:18 6.2 C 46 %
1233 15-03-2019 06:31:17 6 C 48 %
1234 15-03-2019 06:43:17 6 C 51 %
1235 15-03-2019 06:55:17 5.9 C 54 %
1236 15-03-2019 07:07:17 6.1 C 54 %
1237 15-03-2019 07:19:17 6.1 C 53 %
1238 15-03-2019 07:31:17 6.3 C 53 %
1239 15-03-2019 07:43:17 6.4 C 51 %
1240 15-03-2019 07:55:17 6.5 C 50 %
1241 15-03-2019 08:07:17 6.5 C 50 %
1242 15-03-2019 08:19:17 6.6 C 51 %
1243 15-03-2019 08:31:17 6.8 C 52 %
1244 15-03-2019 08:43:17 7 C 50 %
1245 15-03-2019 08:55:17 7.1 C 47 %
1246 15-03-2019 09:07:18 7.1 C 47 %
1247 15-03-2019 09:19:17 7.4 C 48 %
1248 15-03-2019 09:31:17 7.6 C 47 %
1249 15-03-2019 09:43:17 7.9 C 46 %
1250 15-03-2019 09:55:17 8.2 C 45 %
Sensor: Nr:Datum:Temp:Feuchte:
Aussen-T/F 1251 15-03-2019 10:07:17 8.4 C 45 %
1252 15-03-2019 10:19:17 8.7 C 45 %
1253 15-03-2019 10:31:17 9.1 C 44 %
1254 15-03-2019 10:43:17 9.2 C 44 %
1255 15-03-2019 10:55:17 9.6 C 43 %
1256 15-03-2019 11:07:17 10.1 C 41 %
1257 15-03-2019 11:19:17 10.8 C 37 %
1258 15-03-2019 11:31:17 11.3 C 36 %
1259 15-03-2019 11:43:17 11.8 C 35 %
1260 15-03-2019 11:55:17 12 C 33 %
1261 15-03-2019 12:07:17 11.9 C 35 %
1262 15-03-2019 12:19:17 11.8 C 35 %
1263 15-03-2019 12:31:17 12.2 C 35 %
1264 15-03-2019 12:43:17 12.6 C 33 %
1265 15-03-2019 12:55:17 12.5 C 33 %
1266 15-03-2019 13:07:17 12.7 C 32 %
1267 15-03-2019 13:19:17 12.8 C 32 %
1268 15-03-2019 13:31:17 13 C 30 %
1269 15-03-2019 13:43:17 13.1 C 30 %
1270 15-03-2019 13:55:17 13.5 C 28 %
1271 15-03-2019 14:07:18 13.6 C 27 %
1272 15-03-2019 14:19:17 13.5 C 27 %
1273 15-03-2019 14:31:17 13.3 C 27 %
1274 15-03-2019 14:43:17 13.1 C 27 %
1275 15-03-2019 14:55:17 13.2 C 29 %
Sensor: Nr:Datum:Temp:Feuchte:
Aussen-T/F 1276 15-03-2019 15:07:18 13.5 C 29 %
1277 15-03-2019 15:19:17 13.3 C 29 %
1278 15-03-2019 15:31:17 13.2 C 29 %
1279 15-03-2019 15:43:17 13.1 C 30 %
1280 15-03-2019 15:55:18 13.1 C 30 %
1281 15-03-2019 16:07:17 13.1 C 29 %
1282 15-03-2019 16:19:17 13.2 C 28 %
1283 15-03-2019 16:31:18 13.1 C 28 %
1284 15-03-2019 16:43:18 13.1 C 28 %
1285 15-03-2019 16:55:17 12.8 C 30 %
1286 15-03-2019 17:07:17 12.9 C 30 %
1287 15-03-2019 17:19:17 12.7 C 30 %
1288 15-03-2019 17:31:17 12.6 C 31 %
1289 15-03-2019 17:43:17 12.4 C 32 %
1290 15-03-2019 17:55:17 12.4 C 32 %
1291 15-03-2019 18:07:17 12.4 C 32 %
1292 15-03-2019 18:19:17 12.4 C 32 %
1293 15-03-2019 18:31:18 12.3 C 32 %
1294 15-03-2019 18:43:18 12.3 C 32 %
1295 15-03-2019 18:55:17 12.4 C 31 %
1296 15-03-2019 19:07:17 12.4 C 31 %
1297 15-03-2019 19:19:17 12.2 C 32 %
1298 15-03-2019 19:31:17 12.2 C 33 %
1299 15-03-2019 19:43:17 12.1 C 34 %
1300 15-03-2019 19:55:17 11.9 C 36 %
Sensor: Nr:Datum:Temp:Feuchte:
Aussen-T/F 1301 15-03-2019 20:07:17 11.7 C 37 %
1302 15-03-2019 20:19:17 11.2 C 41 %
1303 15-03-2019 20:31:17 11.1 C 43 %
1304 15-03-2019 20:43:17 11.3 C 42 %
1305 15-03-2019 20:55:17 11.4 C 40 %
1306 15-03-2019 21:07:17 11.7 C 37 %
1307 15-03-2019 21:19:17 11.8 C 36 %
1308 15-03-2019 21:31:17 11.9 C 36 %
1309 15-03-2019 21:43:17 12 C 34 %
1310 15-03-2019 21:55:17 12 C 34 %
1311 15-03-2019 22:07:17 12 C 34 %
1312 15-03-2019 22:19:17 12 C 34 %
1313 15-03-2019 22:31:17 11.9 C 35 %
1314 15-03-2019 22:43:17 11.8 C 35 %
1315 15-03-2019 22:55:17 11.4 C 36 %
1316 15-03-2019 23:07:17 10.7 C 42 %
1317 15-03-2019 23:19:17 11.1 C 41 %
1318 15-03-2019 23:31:17 11 C 41 %
1319 15-03-2019 23:43:17 10.8 C 43 %
1320 15-03-2019 23:55:18 10.8 C 43 %
1321 16-03-2019 00:07:17 10.9 C 43 %
1322 16-03-2019 00:19:17 11 C 40 %
1323 16-03-2019 00:31:17 11 C 40 %
1324 16-03-2019 00:43:17 11 C 38 %
1325 16-03-2019 00:55:18 9.6 C 44 %
Sensor: Nr:Datum:Temp:Feuchte:
Aussen-T/F 1326 16-03-2019 01:07:17 9.4 C 47 %
1327 16-03-2019 01:19:17 9.2 C 50 %
1328 16-03-2019 01:31:17 8.8 C 51 %
1329 16-03-2019 01:43:17 8.3 C 49 %
1330 16-03-2019 01:55:17 8.3 C 50 %
1331 16-03-2019 02:07:17 8.4 C 50 %
1332 16-03-2019 02:19:17 8.1 C 48 %
1333 16-03-2019 02:31:18 8.1 C 49 %
1334 16-03-2019 02:43:18 7.9 C 50 %
1335 16-03-2019 02:55:17 7.7 C 50 %
1336 16-03-2019 03:07:17 7.7 C 52 %
1337 16-03-2019 03:19:17 7.6 C 53 %
1338 16-03-2019 03:31:18 7.6 C 53 %
1339 16-03-2019 03:43:18 7.6 C 54 %
1340 16-03-2019 03:55:17 7.6 C 54 %
1341 16-03-2019 04:07:17 7.6 C 54 %
1342 16-03-2019 04:19:17 7.6 C 55 %
1343 16-03-2019 04:31:17 7.7 C 55 %
1344 16-03-2019 04:43:17 7.7 C 55 %
1345 16-03-2019 04:55:17 7.7 C 56 %
1346 16-03-2019 05:07:17 7.7 C 57 %
1347 16-03-2019 05:19:17 7.7 C 59 %
1348 16-03-2019 05:31:17 7.7 C 59 %
1349 16-03-2019 05:43:17 7.7 C 59 %
1350 16-03-2019 05:55:17 7.7 C 60 %
Sensor: Nr:Datum:Temp:Feuchte:
Aussen-T/F 1351 16-03-2019 06:07:17 7.6 C 61 %
1352 16-03-2019 06:19:17 7.6 C 61 %
1353 16-03-2019 06:31:18 7.9 C 63 %
1354 16-03-2019 06:43:18 8.7 C 68 %
1355 16-03-2019 06:55:17 9 C 65 %
1356 16-03-2019 07:07:17 9.2 C 60 %
1357 16-03-2019 07:19:17 9.7 C 42 %
1358 16-03-2019 07:31:17 9.8 C 39 %
1359 16-03-2019 07:43:17 9.9 C 38 %
1360 16-03-2019 07:55:17 9.9 C 38 %
1361 16-03-2019 08:07:17 10 C 38 %
1362 16-03-2019 08:19:17 10.1 C 38 %
1363 16-03-2019 08:31:17 10.1 C 38 %
1364 16-03-2019 08:43:17 10.1 C 39 %
1365 16-03-2019 08:55:17 10.4 C 37 %
1366 16-03-2019 09:07:17 10.2 C 38 %
1367 16-03-2019 09:19:17 10.2 C 38 %
1368 16-03-2019 09:31:17 10.1 C 40 %
1369 16-03-2019 09:43:17 10.4 C 38 %
1370 16-03-2019 09:55:17 10.7 C 36 %
1371 16-03-2019 10:07:18 10.7 C 35 %
1372 16-03-2019 10:19:17 10.4 C 36 %
1373 16-03-2019 10:31:17 10.7 C 35 %
1374 16-03-2019 10:43:17 10.6 C 35 %
1375 16-03-2019 10:55:17 10 C 40 %
Sensor: Nr:Datum:Temp:Feuchte:
Aussen-T/F 1376 16-03-2019 11:07:18 10.1 C 40 %
1377 16-03-2019 11:19:17 10.3 C 37 %
1378 16-03-2019 11:31:17 10.7 C 35 %
1379 16-03-2019 11:43:17 10.8 C 34 %
1380 16-03-2019 11:55:17 10.9 C 32 %
1381 16-03-2019 12:07:17 11.1 C 30 %
1382 16-03-2019 12:19:17 11.4 C 30 %
1383 16-03-2019 12:31:17 11.8 C 28 %
1384 16-03-2019 12:43:17 11.7 C 28 %
1385 16-03-2019 12:55:17 11.2 C 27 %
1386 16-03-2019 13:07:17 11.4 C 27 %
1387 16-03-2019 13:19:17 11.6 C 26 %
1388 16-03-2019 13:31:17 11.7 C 25 %
1389 16-03-2019 13:43:17 11.7 C 26 %
1390 16-03-2019 13:55:17 11.6 C 26 %
1391 16-03-2019 14:07:18 11.6 C 26 %
1392 16-03-2019 14:19:17 10.7 C 28 %
1393 16-03-2019 14:31:17 10.7 C 28 %
1394 16-03-2019 14:43:17 10.6 C 28 %
1395 16-03-2019 14:55:18 10.5 C 26 %
1396 16-03-2019 15:07:17 10.5 C 26 %
1397 16-03-2019 15:19:17 10.6 C 26 %
1398 16-03-2019 15:31:17 10.8 C 25 %
1399 16-03-2019 15:43:17 10.9 C 25 %
1400 16-03-2019 15:55:17 10.7 C 25 %
Sensor: Nr:Datum:Temp:Feuchte:
Aussen-T/F 1401 16-03-2019 16:07:17 10.7 C 25 %
1402 16-03-2019 16:19:18 10.8 C 25 %
1403 16-03-2019 16:31:17 10.8 C 25 %
1404 16-03-2019 16:43:17 10.7 C 25 %
1405 16-03-2019 16:55:17 10.7 C 23 %
1406 16-03-2019 17:07:17 10.6 C 25 %
1407 16-03-2019 17:19:17 10.6 C 23 %
1408 16-03-2019 17:31:17 10.5 C 23 %
1409 16-03-2019 17:43:17 10.5 C 25 %
1410 16-03-2019 17:55:17 10.4 C 21 %
1411 16-03-2019 18:07:18 10.3 C 23 %
1412 16-03-2019 18:19:17 10.3 C 23 %
1413 16-03-2019 18:31:17 10.3 C 22 %
1414 16-03-2019 18:43:17 10.1 C 22 %
1415 16-03-2019 18:55:17 10 C 22 %
1416 16-03-2019 19:07:17 10.1 C 20 %
1417 16-03-2019 19:19:17 10 C 22 %
1418 16-03-2019 19:31:17 10.1 C 21 %
1419 16-03-2019 19:43:17 10 C 22 %
1420 16-03-2019 19:55:17 10 C 22 %
1421 16-03-2019 20:07:18 9.7 C 25 %
1422 16-03-2019 20:19:17 9.7 C 25 %
1423 16-03-2019 20:31:18 9.8 C 23 %
1424 16-03-2019 20:43:18 9.7 C 23 %
1425 16-03-2019 20:55:17 9.3 C 25 %
Sensor: Nr:Datum:Temp:Feuchte:
Aussen-T/F 1426 16-03-2019 21:07:17 9.7 C 25 %
1427 16-03-2019 21:19:17 9.6 C 25 %
1428 16-03-2019 21:31:18 9.8 C 25 %
1429 16-03-2019 21:43:18 9.8 C 25 %
1430 16-03-2019 21:55:17 9.8 C 25 %
1431 16-03-2019 22:07:17 9.3 C 27 %
1432 16-03-2019 22:19:17 9.5 C 27 %
1433 16-03-2019 22:31:18 9.6 C 27 %
1434 16-03-2019 22:43:18 9.8 C 26 %
1435 16-03-2019 22:55:17 9.6 C 27 %
1436 16-03-2019 23:07:17 9.4 C 27 %
1437 16-03-2019 23:19:17 9.5 C 28 %
1438 16-03-2019 23:31:17 9.6 C 26 %
1439 16-03-2019 23:43:17 9.7 C 26 %
1440 16-03-2019 23:55:17 9.6 C 26 %
1441 17-03-2019 00:07:18 9.5 C 26 %
1442 17-03-2019 00:19:17 9.8 C 26 %
1443 17-03-2019 00:31:17 9.8 C 26 %
1444 17-03-2019 00:43:17 10 C 25 %
1445 17-03-2019 00:55:18 9.9 C 25 %
1446 17-03-2019 01:07:17 9.9 C 25 %
1447 17-03-2019 01:19:17 10 C 25 %
1448 17-03-2019 01:31:18 10.1 C 23 %
1449 17-03-2019 01:43:18 10 C 23 %
1450 17-03-2019 01:55:17 9.8 C 25 %
Sensor: Nr:Datum:Temp:Feuchte:
Aussen-T/F 1451 17-03-2019 02:07:17 9.6 C 25 %
1452 17-03-2019 02:19:17 9.7 C 25 %
1453 17-03-2019 02:31:17 9.6 C 25 %
1454 17-03-2019 02:43:18 9.7 C 26 %
1455 17-03-2019 02:55:17 9.7 C 25 %
1456 17-03-2019 03:07:17 9.6 C 25 %
1457 17-03-2019 03:19:17 9.6 C 25 %
1458 17-03-2019 03:31:17 9.6 C 25 %
1459 17-03-2019 03:43:17 9.6 C 25 %
1460 17-03-2019 03:55:17 9.6 C 25 %
1461 17-03-2019 04:07:17 9.5 C 25 %
1462 17-03-2019 04:19:17 9.5 C 25 %
1463 17-03-2019 04:31:17 9.5 C 25 %
1464 17-03-2019 04:43:18 9.5 C 25 %
1465 17-03-2019 04:55:17 9.7 C 23 %
1466 17-03-2019 05:07:17 9.8 C 21 %
1467 17-03-2019 05:19:17 10 C 20 %
1468 17-03-2019 05:31:17 9.9 C 20 %
1469 17-03-2019 05:43:17 9.8 C 20 %
1470 17-03-2019 05:55:17 9.8 C 20 %
1471 17-03-2019 06:07:18 9.7 C 20 %
1472 17-03-2019 06:19:18 9.8 C 20 %
1473 17-03-2019 06:31:17 9.8 C 20 %
1474 17-03-2019 06:43:17 9.8 C 20 %
1475 17-03-2019 06:55:17 9.7 C 20 %
Sensor: Nr:Datum:Temp:Feuchte:
Aussen-T/F 1476 17-03-2019 07:07:17 9.8 C 21 %
1477 17-03-2019 07:19:17 9.8 C 21 %
1478 17-03-2019 07:31:17 9.8 C 21 %
1479 17-03-2019 07:43:17 9.7 C 23 %
1480 17-03-2019 07:55:17 9.9 C 23 %
1481 17-03-2019 08:07:18 10 C 22 %
1482 17-03-2019 08:19:17 9.8 C 25 %
1483 17-03-2019 08:31:17 9.7 C 27 %
1484 17-03-2019 08:43:17 9.7 C 27 %
1485 17-03-2019 08:55:17 9.8 C 26 %
1486 17-03-2019 09:07:18 9.8 C 27 %
1487 17-03-2019 09:19:17 10 C 25 %
1488 17-03-2019 09:31:17 10.1 C 25 %
1489 17-03-2019 09:43:17 10 C 26 %
1490 17-03-2019 09:55:18 9.9 C 27 %
1491 17-03-2019 10:07:17 9.7 C 28 %
1492 17-03-2019 10:19:17 9.5 C 30 %
1493 17-03-2019 10:31:17 9.4 C 30 %
1494 17-03-2019 10:43:18 8.9 C 33 %
1495 17-03-2019 10:55:17 8.4 C 36 %
1496 17-03-2019 11:07:17 7.1 C 36 %
1497 17-03-2019 11:19:17 7 C 35 %
1498 17-03-2019 11:31:18 7.5 C 31 %
1499 17-03-2019 11:43:18 7.7 C 30 %
1500 17-03-2019 11:55:17 8 C 29 %
Sensor: Nr:Datum:Temp:Feuchte:
Aussen-T/F 1501 17-03-2019 12:07:17 8.4 C 27 %
1502 17-03-2019 12:19:18 8.7 C 25 %
1503 17-03-2019 12:31:17 8.9 C 25 %
1504 17-03-2019 12:43:17 8.7 C 21 %
1505 17-03-2019 12:55:17 8.9 C 21 %
1506 17-03-2019 13:07:17 9.6 C 20 %
1507 17-03-2019 13:19:17 10 C 20 %
1508 17-03-2019 13:31:17 10.1 C 20 %
1509 17-03-2019 13:43:17 10.3 C 20 %
1510 17-03-2019 13:55:17 10.1 C 20 %
1511 17-03-2019 14:07:18 10.5 C 20 %
1512 17-03-2019 14:19:17 10 C 20 %
1513 17-03-2019 14:31:17 10.4 C 20 %
1514 17-03-2019 14:43:17 10.6 C 20 %
1515 17-03-2019 14:55:17 10.6 C 20 %
1516 17-03-2019 15:07:18 11 C 20 %
1517 17-03-2019 15:19:17 11.6 C 20 %
1518 17-03-2019 15:31:17 11.2 C 20 %
1519 17-03-2019 15:43:18 10.4 C 20 %
1520 17-03-2019 15:55:17 10.1 C 20 %
1521 17-03-2019 16:07:17 10.6 C 20 %
1522 17-03-2019 16:19:17 10.1 C 20 %
1523 17-03-2019 16:31:17 9.6 C 20 %
1524 17-03-2019 16:43:17 9.5 C 20 %
1525 17-03-2019 16:55:17 8.3 C 20 %
Sensor: Nr:Datum:Temp:Feuchte:
Aussen-T/F 1526 17-03-2019 17:07:17 7.5 C 20 %
1527 17-03-2019 17:19:17 7.8 C 20 %
1528 17-03-2019 17:31:17 7.6 C 20 %
1529 17-03-2019 17:43:17 7.2 C 20 %
1530 17-03-2019 17:55:17 7 C 20 %
1531 17-03-2019 18:07:17 6.8 C 20 %
1532 17-03-2019 18:19:17 6.9 C 20 %
1533 17-03-2019 18:31:17 6.7 C 20 %
1534 17-03-2019 18:43:17 6.1 C 21 %
1535 17-03-2019 18:55:17 6 C 23 %
1536 17-03-2019 19:07:18 5.6 C 26 %
1537 17-03-2019 19:19:17 5.5 C 27 %
1538 17-03-2019 19:31:17 5.1 C 30 %
1539 17-03-2019 19:43:17 5.6 C 27 %
1540 17-03-2019 19:55:18 4.3 C 33 %
1541 17-03-2019 20:07:17 3.7 C 43 %
1542 17-03-2019 20:19:17 3.7 C 45 %
1543 17-03-2019 20:31:17 3.6 C 44 %
1544 17-03-2019 20:43:18 3.2 C 47 %
1545 17-03-2019 20:55:17 3.2 C 48 %
1546 17-03-2019 21:07:17 3.2 C 48 %
1547 17-03-2019 21:19:18 3.3 C 48 %
1548 17-03-2019 21:31:17 3.3 C 46 %
1549 17-03-2019 21:43:17 3.1 C 46 %
1550 17-03-2019 21:55:17 3.1 C 46 %
Sensor: Nr:Datum:Temp:Feuchte:
Aussen-T/F 1551 17-03-2019 22:07:17 3.4 C 42 %
1552 17-03-2019 22:19:17 3.4 C 40 %
1553 17-03-2019 22:31:17 3.4 C 40 %
1554 17-03-2019 22:43:17 3.6 C 37 %
1555 17-03-2019 22:55:17 3.5 C 36 %
1556 17-03-2019 23:07:18 3.5 C 37 %
1557 17-03-2019 23:19:17 3.6 C 36 %
1558 17-03-2019 23:31:17 3.5 C 36 %
1559 17-03-2019 23:43:18 3 C 39 %
1560 17-03-2019 23:55:17 2.8 C 42 %
1561 18-03-2019 00:07:17 2.2 C 44 %
1562 18-03-2019 00:19:17 2 C 46 %
1563 18-03-2019 00:31:17 1.8 C 50 %
1564 18-03-2019 00:43:17 2.2 C 50 %
1565 18-03-2019 00:55:17 2.1 C 47 %
1566 18-03-2019 01:07:17 1.8 C 50 %
1567 18-03-2019 01:19:17 2.1 C 48 %
1568 18-03-2019 01:31:17 1.8 C 47 %
1569 18-03-2019 01:43:17 1.4 C 50 %
1570 18-03-2019 01:55:17 2.2 C 50 %
1571 18-03-2019 02:07:17 2.3 C 47 %
1572 18-03-2019 02:19:17 2.4 C 45 %
1573 18-03-2019 02:31:17 3 C 42 %
1574 18-03-2019 02:43:17 3.4 C 37 %
1575 18-03-2019 02:55:17 3.4 C 35 %
Sensor: Nr:Datum:Temp:Feuchte:
Aussen-T/F 1576 18-03-2019 03:07:17 3.2 C 36 %
1577 18-03-2019 03:19:17 3.2 C 37 %
1578 18-03-2019 03:31:17 2.6 C 41 %
1579 18-03-2019 03:43:17 2.7 C 42 %
1580 18-03-2019 03:55:17 2.8 C 41 %
1581 18-03-2019 04:07:17 2.9 C 41 %
1582 18-03-2019 04:19:17 2.6 C 41 %
1583 18-03-2019 04:31:17 2.6 C 43 %
1584 18-03-2019 04:43:17 2.5 C 42 %
1585 18-03-2019 04:55:17 2.3 C 42 %
1586 18-03-2019 05:07:17 2.4 C 44 %
1587 18-03-2019 05:19:17 2.6 C 42 %
1588 18-03-2019 05:31:17 2.6 C 40 %
1589 18-03-2019 05:43:17 2.8 C 40 %
1590 18-03-2019 05:55:17 3.2 C 36 %
1591 18-03-2019 06:07:17 3.1 C 35 %
1592 18-03-2019 06:19:17 3.6 C 34 %
1593 18-03-2019 06:31:18 3.6 C 34 %
1594 18-03-2019 06:43:18 3.4 C 34 %
1595 18-03-2019 06:55:17 3.3 C 35 %
1596 18-03-2019 07:07:17 3.1 C 37 %
1597 18-03-2019 07:19:18 3.6 C 36 %
1598 18-03-2019 07:31:17 3.8 C 35 %
1599 18-03-2019 07:43:17 3.8 C 35 %
1600 18-03-2019 07:55:17 4.3 C 31 %
Sensor: Nr:Datum:Temp:Feuchte:
Aussen-T/F 1601 18-03-2019 08:07:17 4.2 C 32 %
1602 18-03-2019 08:19:17 4.3 C 32 %
1603 18-03-2019 08:31:17 4.4 C 33 %
1604 18-03-2019 08:43:17 4.7 C 32 %
1605 18-03-2019 08:55:17 4.3 C 37 %
1606 18-03-2019 09:07:18 4.1 C 40 %
1607 18-03-2019 09:19:17 4.1 C 43 %
1608 18-03-2019 09:31:17 4.3 C 44 %
1609 18-03-2019 09:43:17 4.1 C 43 %
1610 18-03-2019 09:55:18 4.4 C 44 %
1611 18-03-2019 10:07:17 5.8 C 34 %
1612 18-03-2019 10:19:17 6.2 C 31 %
1613 18-03-2019 10:31:18 6 C 30 %
1614 18-03-2019 10:43:18 7 C 27 %
1615 18-03-2019 10:55:17 6.7 C 26 %
1616 18-03-2019 11:07:17 7.1 C 27 %
1617 18-03-2019 11:19:18 8.6 C 25 %
1618 18-03-2019 11:31:17 7.5 C 20 %
1619 18-03-2019 11:43:17 8.9 C 20 %
1620 18-03-2019 11:55:17 8.8 C 20 %
1621 18-03-2019 12:07:17 8.1 C 20 %
1622 18-03-2019 12:19:17 9.1 C 20 %
1623 18-03-2019 12:31:17 8.6 C 20 %
1624 18-03-2019 12:43:17 6.4 C 20 %
1625 18-03-2019 12:55:17 5.5 C 31 %
Sensor: Nr:Datum:Temp:Feuchte:
Aussen-T/F 1626 18-03-2019 13:07:17 5.6 C 34 %
1627 18-03-2019 13:19:17 6.2 C 32 %
1628 18-03-2019 13:31:18 7 C 33 %
1629 18-03-2019 13:43:18 7.5 C 28 %
1630 18-03-2019 13:55:17 7.3 C 26 %
1631 18-03-2019 14:07:17 8.2 C 25 %
1632 18-03-2019 14:19:18 7.7 C 20 %
1633 18-03-2019 14:31:17 7.8 C 20 %
1634 18-03-2019 14:43:17 8.2 C 20 %
1635 18-03-2019 14:55:17 7.8 C 20 %
1636 18-03-2019 15:07:18 5.2 C 38 %
1637 18-03-2019 15:19:17 5.9 C 41 %
1638 18-03-2019 15:31:17 6.4 C 37 %
1639 18-03-2019 15:43:17 6.6 C 35 %
1640 18-03-2019 15:55:17 7.1 C 34 %
1641 18-03-2019 16:07:17 6.1 C 40 %
1642 18-03-2019 16:19:17 5.8 C 43 %
1643 18-03-2019 16:31:17 5.9 C 44 %
1644 18-03-2019 16:43:17 6.4 C 32 %
1645 18-03-2019 16:55:17 6.8 C 29 %
1646 18-03-2019 17:07:18 8.4 C 21 %
1647 18-03-2019 17:19:17 7.9 C 20 %
1648 18-03-2019 17:31:18 7.3 C 20 %
1649 18-03-2019 17:43:18 6.8 C 20 %
1650 18-03-2019 17:55:17 6.7 C 20 %
Sensor: Nr:Datum:Temp:Feuchte:
Aussen-T/F 1651 18-03-2019 18:07:17 6.4 C 20 %
1652 18-03-2019 18:19:17 6.7 C 20 %
1653 18-03-2019 18:31:29 6.5 C 25 %
1654 18-03-2019 18:43:29 6 C 31 %
1655 18-03-2019 18:55:17 5 C 35 %
1656 18-03-2019 19:07:17 4.5 C 36 %
1657 18-03-2019 19:19:17 4.5 C 38 %
1658 18-03-2019 19:31:17 4.4 C 38 %
1659 18-03-2019 19:43:17 4.3 C 38 %
1660 18-03-2019 19:55:18 3.8 C 40 %
1661 18-03-2019 20:07:17 3.6 C 37 %
1662 18-03-2019 20:19:17 3.4 C 37 %
1663 18-03-2019 20:31:18 3.3 C 37 %
1664 18-03-2019 20:43:18 2.9 C 40 %
1665 18-03-2019 20:55:17 2.6 C 40 %
1666 18-03-2019 21:07:17 2.3 C 41 %
1667 18-03-2019 21:19:17 2.2 C 43 %
1668 18-03-2019 21:31:17 1.8 C 46 %
1669 18-03-2019 21:43:17 1.6 C 48 %
1670 18-03-2019 21:55:18 1.3 C 49 %
1671 18-03-2019 22:07:17 1 C 50 %
1672 18-03-2019 22:19:18 0.7 C 52 %
1673 18-03-2019 22:31:17 0.5 C 52 %
1674 18-03-2019 22:43:17 0.6 C 53 %
1675 18-03-2019 22:55:17 0.5 C 54 %
Sensor: Nr:Datum:Temp:Feuchte:
Aussen-T/F 1676 18-03-2019 23:07:18 0.4 C 55 %
1677 18-03-2019 23:19:17 0.6 C 55 %
1678 18-03-2019 23:31:17 0.5 C 55 %
1679 18-03-2019 23:43:17 0.2 C 54 %
1680 18-03-2019 23:55:18 0.1 C 55 %
1681 19-03-2019 00:07:17 0 C 55 %
1682 19-03-2019 00:19:17 0 C 55 %
1683 19-03-2019 00:31:18 -0.3 C 55 %
1684 19-03-2019 00:43:18 -0.7 C 54 %
1685 19-03-2019 00:55:17 -0.9 C 55 %
1686 19-03-2019 01:07:17 -0.9 C 55 %
1687 19-03-2019 01:19:18 -1 C 55 %
1688 19-03-2019 01:31:17 -0.9 C 56 %
1689 19-03-2019 01:43:17 -1 C 56 %
1690 19-03-2019 01:55:17 -1.2 C 56 %
1691 19-03-2019 02:07:18 -1.3 C 56 %
1692 19-03-2019 02:19:17 -1.2 C 56 %
1693 19-03-2019 02:31:17 -1.2 C 56 %
1694 19-03-2019 02:43:17 -1.4 C 56 %
1695 19-03-2019 02:55:18 -1.1 C 56 %
1696 19-03-2019 03:07:17 -1.4 C 56 %
1697 19-03-2019 03:19:17 -1.6 C 56 %
1698 19-03-2019 03:31:17 -1.8 C 56 %
1699 19-03-2019 03:43:17 -1.7 C 56 %
1700 19-03-2019 03:55:17 -1.8 C 56 %
Sensor: Nr:Datum:Temp:Feuchte:
Aussen-T/F 1701 19-03-2019 04:07:18 -1.9 C 56 %
1702 19-03-2019 04:19:17 -2 C 56 %
1703 19-03-2019 04:31:17 -1.9 C 56 %
1704 19-03-2019 04:43:17 -2 C 56 %
1705 19-03-2019 04:55:17 -2.1 C 56 %
1706 19-03-2019 05:07:18 -2.3 C 56 %
1707 19-03-2019 05:19:17 -2.3 C 56 %
1708 19-03-2019 05:31:17 -2.4 C 56 %
1709 19-03-2019 05:43:17 -2 C 58 %
1710 19-03-2019 05:55:17 -2.3 C 57 %
1711 19-03-2019 06:07:17 -2.4 C 57 %
1712 19-03-2019 06:19:17 -2.5 C 57 %
1713 19-03-2019 06:31:17 -2.1 C 60 %
1714 19-03-2019 06:43:17 -2.3 C 59 %
1715 19-03-2019 06:55:18 -1.8 C 62 %
1716 19-03-2019 07:07:18 -1.3 C 66 %
1717 19-03-2019 07:19:17 -0.9 C 68 %
1718 19-03-2019 07:31:18 -0.6 C 68 %
1719 19-03-2019 07:43:18 -0.5 C 67 %
1720 19-03-2019 07:55:17 -0.5 C 62 %
1721 19-03-2019 08:07:17 -0.7 C 56 %
1722 19-03-2019 08:19:17 -1 C 55 %
1723 19-03-2019 08:31:17 -1 C 54 %
1724 19-03-2019 08:43:17 -0.7 C 55 %
1725 19-03-2019 08:55:18 -0.3 C 55 %
Sensor: Nr:Datum:Temp:Feuchte:
Aussen-T/F 1726 19-03-2019 09:07:17 0 C 55 %
1727 19-03-2019 09:19:17 0.1 C 54 %
1728 19-03-2019 09:31:17 0.2 C 53 %
1729 19-03-2019 09:43:17 0.4 C 53 %
1730 19-03-2019 09:55:17 0.7 C 53 %
1731 19-03-2019 10:07:17 1.9 C 50 %
1732 19-03-2019 10:19:17 1.9 C 50 %
1733 19-03-2019 10:31:18 4 C 42 %
1734 19-03-2019 10:43:18 3.2 C 36 %
1735 19-03-2019 10:55:17 5.6 C 38 %
1736 19-03-2019 11:07:17 5.7 C 37 %
1737 19-03-2019 11:19:18 5 C 36 %
1738 19-03-2019 11:31:17 6.9 C 26 %
1739 19-03-2019 11:43:17 7.6 C 20 %
1740 19-03-2019 11:55:17 6.6 C 20 %
1741 19-03-2019 12:07:18 6.7 C 20 %
1742 19-03-2019 12:19:17 6.6 C 20 %
1743 19-03-2019 12:31:17 7 C 20 %
1744 19-03-2019 12:43:18 6.9 C 20 %
1745 19-03-2019 12:55:17 7.5 C 20 %
1746 19-03-2019 13:07:17 7.8 C 20 %
1747 19-03-2019 13:19:17 8.2 C 20 %
1748 19-03-2019 13:31:17 8.2 C 20 %
1749 19-03-2019 13:43:17 8.3 C 20 %
1750 19-03-2019 13:55:17 8.4 C 20 %
Sensor: Nr:Datum:Temp:Feuchte:
Aussen-T/F 1751 19-03-2019 14:07:18 8.6 C 20 %
1752 19-03-2019 14:19:17 8.9 C 20 %
1753 19-03-2019 14:31:17 9.1 C 20 %
1754 19-03-2019 14:43:17 9.3 C 20 %
1755 19-03-2019 14:55:18 9.7 C 20 %
1756 19-03-2019 15:07:17 9.9 C 20 %
1757 19-03-2019 15:19:17 10 C 20 %
1758 19-03-2019 15:31:18 10.2 C 20 %
1759 19-03-2019 15:43:18 10.4 C 20 %
1760 19-03-2019 15:55:17 10.9 C 20 %
1761 19-03-2019 16:07:17 11.5 C 20 %
1762 19-03-2019 16:19:18 11.7 C 20 %
1763 19-03-2019 16:31:17 11.9 C 20 %
1764 19-03-2019 16:43:17 11.7 C 20 %
1765 19-03-2019 16:55:17 11.5 C 20 %
1766 19-03-2019 17:07:18 11.5 C 20 %
1767 19-03-2019 17:19:17 12.4 C 20 %
1768 19-03-2019 17:31:17 12.2 C 20 %
1769 19-03-2019 17:43:17 13.7 C 20 %
1770 19-03-2019 17:55:17 14.1 C 20 %
1771 19-03-2019 18:07:18 13.2 C 20 %
1772 19-03-2019 18:19:17 10.2 C 20 %
1773 19-03-2019 18:31:18 7.5 C 20 %
1774 19-03-2019 18:43:18 6 C 20 %
1775 19-03-2019 18:55:17 5.7 C 20 %
Sensor: Nr:Datum:Temp:Feuchte:
Aussen-T/F 1776 19-03-2019 19:07:17 5.2 C 20 %
1777 19-03-2019 19:19:17 4.8 C 23 %
1778 19-03-2019 19:31:17 4.8 C 26 %
1779 19-03-2019 19:43:17 4.2 C 27 %
1780 19-03-2019 19:55:17 4.1 C 27 %
1781 19-03-2019 20:07:17 3.5 C 30 %
1782 19-03-2019 20:19:17 3.3 C 32 %
1783 19-03-2019 20:31:17 2.8 C 34 %
1784 19-03-2019 20:43:17 2.5 C 35 %
1785 19-03-2019 20:55:17 2.1 C 38 %
1786 19-03-2019 21:07:17 1.8 C 40 %
1787 19-03-2019 21:19:17 1.7 C 40 %
1788 19-03-2019 21:31:17 1.3 C 40 %
1789 19-03-2019 21:43:17 1.1 C 41 %
1790 19-03-2019 21:55:17 0.8 C 42 %
1791 19-03-2019 22:07:18 0.8 C 43 %
1792 19-03-2019 22:19:17 0.6 C 43 %
1793 19-03-2019 22:31:17 0.4 C 44 %
1794 19-03-2019 22:43:17 0.6 C 45 %
1795 19-03-2019 22:55:17 0.4 C 45 %
1796 19-03-2019 23:07:17 0.3 C 46 %
1797 19-03-2019 23:19:17 0.4 C 46 %
1798 19-03-2019 23:31:17 0.3 C 45 %
1799 19-03-2019 23:43:17 0.3 C 45 %
1800 19-03-2019 23:55:17 -0.3 C 47 %
Sensor: Nr:Datum:Temp:Feuchte:
Aussen-T/F 1801 20-03-2019 00:07:18 -0.3 C 48 %
1802 20-03-2019 00:19:17 -0.6 C 47 %
1803 20-03-2019 00:31:17 -0.7 C 49 %
1804 20-03-2019 00:43:17 -0.9 C 50 %
1805 20-03-2019 00:55:17 -1 C 50 %
1806 20-03-2019 01:07:18 -1 C 51 %
1807 20-03-2019 01:19:17 -1 C 51 %
1808 20-03-2019 01:31:18 -0.9 C 52 %
1809 20-03-2019 01:43:18 -1 C 52 %
1810 20-03-2019 01:55:17 -1.2 C 52 %
1811 20-03-2019 02:07:17 -1.4 C 52 %
1812 20-03-2019 02:20:17 -1.2 C 53 %
1813 20-03-2019 02:31:17 -1.4 C 52 %
1814 20-03-2019 02:43:17 -1.5 C 53 %
1815 20-03-2019 02:55:18 -1.6 C 53 %
1816 20-03-2019 03:07:17 -1.6 C 53 %
1817 20-03-2019 03:19:17 -1.8 C 53 %
1818 20-03-2019 03:31:18 -1.9 C 53 %
1819 20-03-2019 03:43:18 -2 C 53 %
1820 20-03-2019 03:56:17 -2 C 53 %
1821 20-03-2019 04:08:17 -2 C 54 %
1822 20-03-2019 04:20:18 -2.1 C 54 %
1823 20-03-2019 04:32:17 -2.2 C 54 %
1824 20-03-2019 04:44:17 -2.1 C 54 %
1825 20-03-2019 04:56:17 -2.1 C 55 %
Sensor: Nr:Datum:Temp:Feuchte:
Aussen-T/F 1826 20-03-2019 05:08:17 -2.2 C 55 %
1827 20-03-2019 05:20:17 -2.3 C 54 %
1828 20-03-2019 05:32:17 -2.3 C 55 %
1829 20-03-2019 05:44:17 -2.3 C 55 %
1830 20-03-2019 05:56:17 -2.4 C 55 %
1831 20-03-2019 06:08:17 -2.4 C 55 %
1832 20-03-2019 06:20:17 -2.3 C 55 %
1833 20-03-2019 06:32:18 -2.3 C 55 %
1834 20-03-2019 06:44:18 -2.4 C 55 %
1835 20-03-2019 06:56:17 -2.4 C 55 %
1836 20-03-2019 07:08:17 -2.4 C 55 %
1837 20-03-2019 07:20:17 -2.3 C 55 %
1838 20-03-2019 07:32:17 -2.1 C 55 %
1839 20-03-2019 07:44:17 -2.1 C 55 %
1840 20-03-2019 07:56:17 -1.9 C 55 %
1841 20-03-2019 08:08:17 -1.8 C 55 %
1842 20-03-2019 08:20:17 -1.6 C 55 %
1843 20-03-2019 08:32:17 -1.4 C 55 %
1844 20-03-2019 08:44:17 -1.1 C 56 %
1845 20-03-2019 08:56:17 -0.8 C 55 %
1846 20-03-2019 09:08:17 -0.4 C 55 %
1847 20-03-2019 09:20:17 -0.2 C 55 %
1848 20-03-2019 09:32:17 0.2 C 54 %
1849 20-03-2019 09:44:17 0.6 C 54 %
1850 20-03-2019 09:56:16 1.8 C 51 %
Sensor: Nr:Datum:Temp:Feuchte:
Aussen-T/F 1851 20-03-2019 10:08:17 1.8 C 51 %
1852 20-03-2019 10:20:17 5.3 C 45 %
1853 20-03-2019 10:32:17 7 C 41 %
1854 20-03-2019 10:44:17 7.8 C 20 %
1855 20-03-2019 10:56:17 9.1 C 20 %
1856 20-03-2019 11:08:17 9.2 C 20 %
1857 20-03-2019 11:20:17 10.8 C 20 %
1858 20-03-2019 11:32:16 12.1 C 20 %
1859 20-03-2019 11:44:16 11.4 C 20 %
1860 20-03-2019 11:56:17 11.1 C 20 %
1861 20-03-2019 12:08:17 11.1 C 20 %
1862 20-03-2019 12:20:16 11.3 C 20 %
1863 20-03-2019 12:32:17 11.7 C 20 %
1864 20-03-2019 12:44:17 11.8 C 20 %
1865 20-03-2019 12:56:17 11.9 C 20 %
1866 20-03-2019 13:08:17 12.5 C 20 %
1867 20-03-2019 13:20:16 12.8 C 20 %
1868 20-03-2019 13:32:17 12.8 C 20 %
1869 20-03-2019 13:44:17 13 C 20 %
1870 20-03-2019 13:56:17 13.2 C 20 %
1871 20-03-2019 14:08:17 12.9 C 20 %
1872 20-03-2019 14:20:16 13 C 20 %
1873 20-03-2019 14:32:17 13.2 C 20 %
1874 20-03-2019 14:44:17 13 C 20 %
1875 20-03-2019 14:56:17 13.5 C 20 %
Sensor: Nr:Datum:Temp:Feuchte:
Aussen-T/F 1876 20-03-2019 15:08:16 13.7 C 20 %
1877 20-03-2019 15:20:16 13.7 C 20 %
1878 20-03-2019 15:32:17 13.6 C 20 %
1879 20-03-2019 15:44:18 14.2 C 20 %
1880 20-03-2019 15:56:16 13.9 C 20 %
1881 20-03-2019 16:08:16 13.9 C 20 %
1882 20-03-2019 16:20:17 14.1 C 20 %
1883 20-03-2019 16:32:16 14.2 C 20 %
1884 20-03-2019 16:44:16 14.4 C 20 %
1885 20-03-2019 16:56:16 14.7 C 20 %
1886 20-03-2019 17:08:17 15 C 20 %
1887 20-03-2019 17:20:16 14.8 C 20 %
1888 20-03-2019 17:32:17 16 C 20 %
1889 20-03-2019 17:44:17 16.4 C 20 %
1890 20-03-2019 17:56:17 16.2 C 20 %
1891 20-03-2019 18:08:16 12.9 C 20 %
1892 20-03-2019 18:20:17 10.8 C 20 %
1893 20-03-2019 18:32:17 9.7 C 20 %
1894 20-03-2019 18:44:17 8.9 C 20 %
1895 20-03-2019 18:56:16 8.3 C 20 %
1896 20-03-2019 19:08:17 7.9 C 20 %
1897 20-03-2019 19:20:16 7.4 C 20 %
1898 20-03-2019 19:32:16 7.2 C 20 %
1899 20-03-2019 19:44:16 6.7 C 23 %
1900 20-03-2019 19:56:16 6.2 C 25 %
Sensor: Nr:Datum:Temp:Feuchte:
Aussen-T/F 1901 20-03-2019 20:08:16 5.6 C 28 %
1902 20-03-2019 20:20:16 5.2 C 29 %
1903 20-03-2019 20:32:16 5 C 30 %
1904 20-03-2019 20:44:16 4.8 C 32 %
1905 20-03-2019 20:56:16 4.6 C 33 %
1906 20-03-2019 21:08:17 4.2 C 35 %
1907 20-03-2019 21:20:16 4.1 C 35 %
1908 20-03-2019 21:32:16 4 C 34 %
1909 20-03-2019 21:44:16 4 C 34 %
1910 20-03-2019 21:56:16 4 C 34 %
1911 20-03-2019 22:08:16 3.5 C 38 %
1912 20-03-2019 22:20:16 3.8 C 39 %
1913 20-03-2019 22:32:16 3.5 C 38 %
1914 20-03-2019 22:44:16 3.1 C 39 %
1915 20-03-2019 22:56:16 2.6 C 40 %
1916 20-03-2019 23:08:16 2.5 C 42 %
1917 20-03-2019 23:20:16 2.5 C 43 %
1918 20-03-2019 23:32:17 2.5 C 44 %
1919 20-03-2019 23:44:17 2.3 C 44 %
1920 20-03-2019 23:56:16 2.1 C 45 %
1921 21-03-2019 00:08:16 2.1 C 45 %
1922 21-03-2019 00:20:16 1.8 C 46 %
1923 21-03-2019 00:32:16 1.8 C 47 %
1924 21-03-2019 00:44:16 1.9 C 48 %
1925 21-03-2019 00:56:16 1.9 C 47 %
Sensor: Nr:Datum:Temp:Feuchte:
Aussen-T/F 1926 21-03-2019 01:08:16 1.3 C 46 %
1927 21-03-2019 01:20:16 1.1 C 47 %
1928 21-03-2019 01:32:16 1.1 C 48 %
1929 21-03-2019 01:44:16 0.8 C 50 %
1930 21-03-2019 01:56:16 0.6 C 51 %
1931 21-03-2019 02:08:16 0.5 C 51 %
1932 21-03-2019 02:20:16 0.4 C 52 %
1933 21-03-2019 02:32:16 0.4 C 52 %
1934 21-03-2019 02:44:16 0.3 C 53 %
1935 21-03-2019 02:56:17 0.1 C 53 %
1936 21-03-2019 03:08:17 0 C 53 %
1937 21-03-2019 03:20:17 -0.2 C 53 %
1938 21-03-2019 03:32:17 -0.2 C 54 %
1939 21-03-2019 03:44:17 -0.3 C 54 %
1940 21-03-2019 03:56:17 -0.4 C 54 %
1941 21-03-2019 04:08:18 -0.3 C 55 %
1942 21-03-2019 04:20:17 -0.4 C 55 %
1943 21-03-2019 04:32:17 -0.2 C 55 %
1944 21-03-2019 04:44:18 -0.4 C 55 %
1945 21-03-2019 04:56:17 -0.5 C 55 %
1946 21-03-2019 05:08:17 -0.7 C 55 %
1947 21-03-2019 05:20:17 -0.5 C 56 %
1948 21-03-2019 05:32:17 -0.6 C 55 %
1949 21-03-2019 05:44:17 -0.9 C 55 %
1950 21-03-2019 05:56:17 -0.9 C 55 %
Sensor: Nr:Datum:Temp:Feuchte:
Aussen-T/F 1951 21-03-2019 06:08:17 -1 C 55 %
1952 21-03-2019 06:20:17 -0.9 C 56 %
1953 21-03-2019 06:32:17 -0.9 C 56 %
1954 21-03-2019 06:44:18 -1 C 56 %
1955 21-03-2019 06:56:17 -0.8 C 56 %
1956 21-03-2019 07:08:17 -0.7 C 56 %
1957 21-03-2019 07:20:17 -0.5 C 56 %
1958 21-03-2019 07:32:17 0.2 C 57 %
1959 21-03-2019 07:44:17 0.1 C 56 %
1960 21-03-2019 07:56:17 0.2 C 56 %
1961 21-03-2019 08:08:17 0.3 C 55 %
1962 21-03-2019 08:20:17 0.5 C 55 %
1963 21-03-2019 08:32:17 0.5 C 55 %
1964 21-03-2019 08:44:17 0.8 C 55 %
1965 21-03-2019 08:56:17 1.1 C 55 %
1966 21-03-2019 09:08:17 1.4 C 55 %
1967 21-03-2019 09:20:17 1.6 C 54 %
1968 21-03-2019 09:32:17 1.8 C 54 %
1969 21-03-2019 09:44:17 2.5 C 54 %
1970 21-03-2019 09:56:17 3.7 C 51 %
1971 21-03-2019 10:08:17 4.5 C 45 %
1972 21-03-2019 10:20:17 5.4 C 41 %
1973 21-03-2019 10:32:17 8.2 C 28 %
1974 21-03-2019 10:44:18 8.3 C 27 %
1975 21-03-2019 10:56:17 10.4 C 21 %
Sensor: Nr:Datum:Temp:Feuchte:
Aussen-T/F 1976 21-03-2019 11:08:17 9.9 C 20 %
1977 21-03-2019 11:20:17 10.6 C 21 %
1978 21-03-2019 11:32:17 12.9 C 20 %
1979 21-03-2019 11:44:17 12.1 C 20 %
1980 21-03-2019 11:56:17 11.4 C 20 %
1981 21-03-2019 12:08:17 11.8 C 20 %
1982 21-03-2019 12:20:17 12.2 C 20 %
1983 21-03-2019 12:32:17 12.8 C 20 %
1984 21-03-2019 12:44:17 13 C 20 %
1985 21-03-2019 12:56:17 13.4 C 20 %
1986 21-03-2019 13:08:17 14 C 20 %
1987 21-03-2019 13:20:17 14.3 C 20 %
1988 21-03-2019 13:32:17 14.6 C 20 %
1989 21-03-2019 13:44:17 14.7 C 20 %
1990 21-03-2019 13:56:17 14.7 C 20 %
1991 21-03-2019 14:08:18 14.8 C 20 %
1992 21-03-2019 14:20:17 15.1 C 20 %
1993 21-03-2019 14:32:17 15.2 C 20 %
1994 21-03-2019 14:44:17 15.6 C 20 %
1995 21-03-2019 14:56:17 15.9 C 20 %
1996 21-03-2019 15:08:17 16.1 C 20 %
1997 21-03-2019 15:20:17 16.6 C 20 %
1998 21-03-2019 15:32:17 16.8 C 20 %
1999 21-03-2019 15:44:17 17 C 20 %
2000 21-03-2019 15:56:17 17.4 C 20 %
Sensor: Nr:Datum:Temp:Feuchte:
Aussen-T/F 2001 21-03-2019 16:08:17 17.8 C 20 %
2002 21-03-2019 16:20:17 17.7 C 20 %
2003 21-03-2019 16:32:17 17.8 C 20 %
2004 21-03-2019 16:44:17 18.2 C 20 %
2005 21-03-2019 16:56:17 18.2 C 20 %
2006 21-03-2019 17:08:17 18.2 C 20 %
2007 21-03-2019 17:20:17 18.3 C 20 %
2008 21-03-2019 17:32:18 18.5 C 20 %
2009 21-03-2019 17:44:18 19.2 C 20 %
2010 21-03-2019 17:56:18 19.5 C 20 %
2011 21-03-2019 18:08:17 16.4 C 20 %
2012 21-03-2019 18:20:17 13.9 C 20 %
2013 21-03-2019 18:32:17 12.5 C 20 %
2014 21-03-2019 18:44:17 11.6 C 20 %
2015 21-03-2019 18:56:17 11.1 C 20 %
2016 21-03-2019 19:08:18 10.5 C 20 %
2017 21-03-2019 19:20:17 9.9 C 20 %
2018 21-03-2019 19:32:17 9.3 C 20 %
2019 21-03-2019 19:44:17 9 C 20 %
2020 21-03-2019 19:56:17 8.7 C 20 %
2021 21-03-2019 20:08:17 8.1 C 20 %
2022 21-03-2019 20:20:17 7.7 C 20 %
2023 21-03-2019 20:32:18 7.4 C 21 %
2024 21-03-2019 20:44:18 7.2 C 23 %
2025 21-03-2019 20:56:17 6.8 C 25 %
Sensor: Nr:Datum:Temp:Feuchte:
Aussen-T/F 2026 21-03-2019 21:08:17 6.4 C 26 %
2027 21-03-2019 21:20:17 6.2 C 25 %
2028 21-03-2019 21:32:18 5.9 C 25 %
2029 21-03-2019 21:44:18 5.4 C 26 %
2030 21-03-2019 21:56:17 5.2 C 28 %
2031 21-03-2019 22:08:17 5.3 C 28 %
2032 21-03-2019 22:20:17 4.8 C 28 %
2033 21-03-2019 22:32:17 4.5 C 30 %
2034 21-03-2019 22:44:17 4.3 C 31 %
2035 21-03-2019 22:56:18 4.1 C 32 %
2036 21-03-2019 23:08:17 3.9 C 35 %
2037 21-03-2019 23:20:17 3.8 C 34 %
2038 21-03-2019 23:32:17 3.5 C 35 %
2039 21-03-2019 23:44:17 3.4 C 37 %
2040 21-03-2019 23:56:17 3.2 C 36 %
2041 22-03-2019 00:08:17 3.2 C 36 %
2042 22-03-2019 00:20:17 2.8 C 38 %
2043 22-03-2019 00:32:17 2.7 C 40 %
2044 22-03-2019 00:44:17 2.6 C 41 %
2045 22-03-2019 00:56:17 2.5 C 41 %
2046 22-03-2019 01:08:17 2.4 C 42 %
2047 22-03-2019 01:20:17 2.3 C 42 %
2048 22-03-2019 01:32:17 2.1 C 43 %
2049 22-03-2019 01:44:17 2 C 44 %
2050 22-03-2019 01:56:17 1.9 C 45 %
Sensor: Nr:Datum:Temp:Feuchte:
Aussen-T/F 2051 22-03-2019 02:08:17 1.7 C 45 %
2052 22-03-2019 02:20:17 1.6 C 46 %
2053 22-03-2019 02:32:17 1.3 C 46 %
2054 22-03-2019 02:44:17 1.3 C 47 %
2055 22-03-2019 02:56:17 1.2 C 48 %
2056 22-03-2019 03:08:17 1 C 49 %
2057 22-03-2019 03:20:17 0.9 C 51 %
2058 22-03-2019 03:32:18 1.1 C 50 %
2059 22-03-2019 03:44:18 0.7 C 51 %
2060 22-03-2019 03:56:18 0.7 C 51 %
2061 22-03-2019 04:08:17 0.7 C 52 %
2062 22-03-2019 04:20:17 0.5 C 52 %
2063 22-03-2019 04:32:17 0.5 C 53 %
2064 22-03-2019 04:44:17 0.3 C 53 %
2065 22-03-2019 04:56:18 0.3 C 54 %
2066 22-03-2019 05:08:18 0.2 C 54 %
2067 22-03-2019 05:20:17 0.2 C 54 %
2068 22-03-2019 05:32:17 0.1 C 54 %
2069 22-03-2019 05:44:17 0 C 54 %
2070 22-03-2019 05:56:17 0.1 C 55 %
2071 22-03-2019 06:08:18 0 C 55 %
2072 22-03-2019 06:20:17 -0.3 C 55 %
2073 22-03-2019 06:32:17 -0.3 C 55 %
2074 22-03-2019 06:44:17 -0.4 C 55 %
2075 22-03-2019 06:56:17 -0.2 C 56 %
Sensor: Nr:Datum:Temp:Feuchte:
Aussen-T/F 2076 22-03-2019 07:08:17 0 C 56 %
2077 22-03-2019 07:20:17 0.2 C 56 %
2078 22-03-2019 07:32:17 0.2 C 56 %
2079 22-03-2019 07:44:17 0.4 C 56 %
2080 22-03-2019 07:56:17 0.5 C 56 %
2081 22-03-2019 08:08:17 0.9 C 56 %
2082 22-03-2019 08:20:18 1.1 C 55 %
2083 22-03-2019 08:32:18 1.2 C 55 %
2084 22-03-2019 08:44:18 1.4 C 56 %
2085 22-03-2019 08:56:17 1.9 C 56 %
2086 22-03-2019 09:08:17 2 C 55 %
2087 22-03-2019 09:20:17 2.5 C 55 %
2088 22-03-2019 09:32:18 3.2 C 54 %
2089 22-03-2019 09:44:18 4 C 53 %
2090 22-03-2019 09:56:17 5.1 C 49 %
2091 22-03-2019 10:08:17 6.1 C 41 %
2092 22-03-2019 10:20:17 7.8 C 35 %
2093 22-03-2019 10:32:17 9.8 C 27 %
2094 22-03-2019 10:44:17 10.7 C 23 %
2095 22-03-2019 10:56:18 13.4 C 20 %
2096 22-03-2019 11:08:17 12.7 C 20 %
2097 22-03-2019 11:20:17 13.2 C 20 %
2098 22-03-2019 11:32:17 15.2 C 20 %
2099 22-03-2019 11:44:17 15.2 C 20 %
2100 22-03-2019 11:56:17 14.6 C 20 %
Sensor: Nr:Datum:Temp:Feuchte:
Aussen-T/F 2101 22-03-2019 12:08:18 14.8 C 20 %
2102 22-03-2019 12:20:17 15.3 C 20 %
2103 22-03-2019 12:32:17 15.6 C 20 %
2104 22-03-2019 12:44:17 16.3 C 20 %
2105 22-03-2019 12:56:17 16.7 C 20 %
2106 22-03-2019 13:08:17 17.2 C 20 %
2107 22-03-2019 13:20:18 17.2 C 20 %
2108 22-03-2019 13:32:18 17.7 C 20 %
2109 22-03-2019 13:44:18 17.7 C 20 %
2110 22-03-2019 13:56:17 18.5 C 20 %
2111 22-03-2019 14:08:17 18.5 C 20 %
2112 22-03-2019 14:20:17 18.5 C 20 %
2113 22-03-2019 14:32:17 18.6 C 20 %
2114 22-03-2019 14:44:17 18.8 C 20 %
2115 22-03-2019 14:56:18 19 C 20 %
2116 22-03-2019 15:08:17 19.5 C 20 %
2117 22-03-2019 15:20:17 19 C 20 %
2118 22-03-2019 15:32:17 19 C 20 %
2119 22-03-2019 15:44:17 19.2 C 20 %
2120 22-03-2019 15:56:17 19.1 C 20 %
2121 22-03-2019 16:08:18 19.4 C 20 %
2122 22-03-2019 16:20:17 19.3 C 20 %
2123 22-03-2019 16:32:17 20 C 20 %
2124 22-03-2019 16:44:17 20.4 C 20 %
2125 22-03-2019 16:56:17 20.8 C 20 %
Sensor: Nr:Datum:Temp:Feuchte:
Aussen-T/F 2126 22-03-2019 17:08:17 20.5 C 20 %
2127 22-03-2019 17:20:17 20.8 C 20 %
2128 22-03-2019 17:32:18 21.1 C 20 %
2129 22-03-2019 17:44:18 23 C 20 %
2130 22-03-2019 17:56:17 20.7 C 20 %
2131 22-03-2019 18:08:17 18.3 C 20 %
2132 22-03-2019 18:20:17 15.8 C 20 %
2133 22-03-2019 18:32:17 14 C 20 %
2134 22-03-2019 18:44:18 13.4 C 20 %
2135 22-03-2019 18:56:17 12.4 C 20 %
2136 22-03-2019 19:08:17 12 C 20 %
2137 22-03-2019 19:20:17 11.3 C 20 %
2138 22-03-2019 19:32:17 10.8 C 20 %
2139 22-03-2019 19:44:18 10.5 C 20 %
2140 22-03-2019 19:56:18 10.5 C 20 %
2141 22-03-2019 20:08:18 10.2 C 20 %
2142 22-03-2019 20:20:17 10.2 C 20 %
2143 22-03-2019 20:32:17 9.8 C 20 %
2144 22-03-2019 20:44:17 9.5 C 20 %
2145 22-03-2019 20:56:17 8.6 C 20 %
2146 22-03-2019 21:08:17 8 C 20 %
2147 22-03-2019 21:20:17 7.3 C 20 %
2148 22-03-2019 21:32:17 7 C 23 %
2149 22-03-2019 21:44:17 6.9 C 25 %
2150 22-03-2019 21:56:17 6.5 C 23 %
Sensor: Nr:Datum:Temp:Feuchte:
Aussen-T/F 2151 22-03-2019 22:08:17 5.9 C 26 %
2152 22-03-2019 22:20:17 6 C 30 %
2153 22-03-2019 22:32:17 6.4 C 30 %
2154 22-03-2019 22:44:17 6.2 C 28 %
2155 22-03-2019 22:56:17 6 C 29 %
2156 22-03-2019 23:08:17 5.6 C 30 %
2157 22-03-2019 23:20:17 5.2 C 30 %
2158 22-03-2019 23:32:17 4.8 C 31 %
2159 22-03-2019 23:44:18 4.7 C 32 %
2160 22-03-2019 23:56:17 4.7 C 35 %
2161 23-03-2019 00:08:17 4.4 C 33 %
2162 23-03-2019 00:20:17 4.3 C 34 %
2163 23-03-2019 00:32:17 3.8 C 35 %
2164 23-03-2019 00:44:17 3.7 C 36 %
2165 23-03-2019 00:56:17 3.5 C 37 %
2166 23-03-2019 01:08:17 3.5 C 38 %
2167 23-03-2019 01:20:17 3.9 C 40 %
2168 23-03-2019 01:32:17 3.1 C 38 %
2169 23-03-2019 01:44:17 3 C 40 %
2170 23-03-2019 01:56:17 2.8 C 41 %
2171 23-03-2019 02:08:17 2.5 C 42 %
2172 23-03-2019 02:20:17 2.6 C 44 %
2173 23-03-2019 02:32:17 2.6 C 45 %
2174 23-03-2019 02:44:17 2.6 C 45 %
2175 23-03-2019 02:56:17 2.8 C 45 %
Sensor: Nr:Datum:Temp:Feuchte:
Aussen-T/F 2176 23-03-2019 03:08:17 2.5 C 45 %
2177 23-03-2019 03:20:17 2.3 C 45 %
2178 23-03-2019 03:32:17 2 C 45 %
2179 23-03-2019 03:44:18 2 C 47 %
2180 23-03-2019 03:56:18 2.3 C 48 %
2181 23-03-2019 04:08:17 2.2 C 48 %
2182 23-03-2019 04:20:17 2 C 48 %
2183 23-03-2019 04:32:17 2.4 C 49 %
2184 23-03-2019 04:44:17 2 C 47 %
2185 23-03-2019 04:56:17 2.3 C 48 %
2186 23-03-2019 05:08:18 2.2 C 47 %
2187 23-03-2019 05:20:17 2 C 47 %
2188 23-03-2019 05:32:17 2.3 C 48 %
2189 23-03-2019 05:44:17 1.8 C 47 %
2190 23-03-2019 05:56:17 1.3 C 47 %
2191 23-03-2019 06:08:17 1.1 C 48 %
2192 23-03-2019 06:20:17 1.2 C 50 %
2193 23-03-2019 06:32:18 1.4 C 51 %
2194 23-03-2019 06:44:18 1.6 C 52 %
2195 23-03-2019 06:56:18 1.3 C 51 %
2196 23-03-2019 07:08:17 1.3 C 51 %
2197 23-03-2019 07:20:17 3.4 C 55 %
2198 23-03-2019 07:32:17 4.7 C 54 %
2199 23-03-2019 07:44:17 5 C 50 %
2200 23-03-2019 07:56:17 5.4 C 49 %
Sensor: Nr:Datum:Temp:Feuchte:
Aussen-T/F 2201 23-03-2019 08:08:17 5.7 C 48 %
2202 23-03-2019 08:20:17 5.8 C 48 %
2203 23-03-2019 08:32:17 5.9 C 48 %
2204 23-03-2019 08:44:17 6 C 47 %
2205 23-03-2019 08:56:17 6.1 C 46 %
2206 23-03-2019 09:08:17 6.3 C 45 %
2207 23-03-2019 09:20:24 6.4 C 44 %
2208 23-03-2019 09:32:17 6.6 C 43 %
2209 23-03-2019 09:44:17 6.7 C 41 %
2210 23-03-2019 09:56:18 6.9 C 41 %
2211 23-03-2019 10:08:17 7 C 42 %
2212 23-03-2019 10:20:17 7 C 42 %
2213 23-03-2019 10:32:18 7 C 42 %
2214 23-03-2019 10:44:18 7.1 C 42 %
2215 23-03-2019 10:56:17 7 C 41 %
2216 23-03-2019 11:08:17 7.1 C 40 %
2217 23-03-2019 11:20:17 7.5 C 40 %
2218 23-03-2019 11:32:17 7.5 C 39 %
2219 23-03-2019 11:44:17 7.6 C 38 %
2220 23-03-2019 11:56:17 7.9 C 38 %
2221 23-03-2019 12:08:17 7.8 C 37 %
2222 23-03-2019 12:20:17 8.1 C 35 %
2223 23-03-2019 12:32:17 8.3 C 35 %
2224 23-03-2019 12:44:17 8.2 C 34 %
2225 23-03-2019 12:56:17 8.6 C 34 %
Sensor: Nr:Datum:Temp:Feuchte:
Aussen-T/F 2226 23-03-2019 13:08:17 8.8 C 32 %
2227 23-03-2019 13:20:17 8.8 C 31 %
2228 23-03-2019 13:32:18 9.1 C 30 %
2229 23-03-2019 13:44:18 9 C 30 %
2230 23-03-2019 13:56:17 9.6 C 30 %
2231 23-03-2019 14:08:17 9.4 C 27 %
2232 23-03-2019 14:20:17 9.5 C 27 %
2233 23-03-2019 14:32:17 9.6 C 26 %
2234 23-03-2019 14:44:17 9.6 C 25 %
2235 23-03-2019 14:56:17 10.1 C 23 %
2236 23-03-2019 15:08:17 10.2 C 25 %
2237 23-03-2019 15:20:18 9.8 C 21 %
2238 23-03-2019 15:32:17 10 C 20 %
2239 23-03-2019 15:44:17 10.3 C 20 %
2240 23-03-2019 15:56:17 10.2 C 20 %
2241 23-03-2019 16:08:18 10.3 C 20 %
2242 23-03-2019 16:20:18 10.2 C 20 %
2243 23-03-2019 16:32:18 10.4 C 20 %
2244 23-03-2019 16:44:18 10.6 C 20 %
2245 23-03-2019 16:56:18 10.5 C 20 %
2246 23-03-2019 17:08:18 10.5 C 20 %
2247 23-03-2019 17:20:18 10.3 C 20 %
2248 23-03-2019 17:32:18 10.2 C 20 %
2249 23-03-2019 17:44:18 9.6 C 20 %
2250 23-03-2019 17:56:17 9.9 C 20 %
Sensor: Nr:Datum:Temp:Feuchte:
Aussen-T/F 2251 23-03-2019 18:08:17 9.6 C 20 %
2252 23-03-2019 18:20:18 8.4 C 26 %
2253 23-03-2019 18:32:18 7.5 C 28 %
2254 23-03-2019 18:44:18 7.1 C 32 %
2255 23-03-2019 18:56:17 6.4 C 35 %
2256 23-03-2019 19:08:18 6.2 C 36 %
2257 23-03-2019 19:20:17 5.8 C 38 %
2258 23-03-2019 19:32:17 5.4 C 39 %
2259 23-03-2019 19:44:17 5.2 C 42 %
2260 23-03-2019 19:56:18 4.7 C 42 %
2261 23-03-2019 20:08:18 4.3 C 45 %
2262 23-03-2019 20:20:17 4.1 C 45 %
2263 23-03-2019 20:32:18 3.7 C 47 %
2264 23-03-2019 20:44:18 3.7 C 48 %
2265 23-03-2019 20:56:17 3.5 C 49 %
2266 23-03-2019 21:08:17 3.3 C 50 %
2267 23-03-2019 21:20:18 3.1 C 50 %
2268 23-03-2019 21:32:18 2.8 C 51 %
2269 23-03-2019 21:44:18 2.6 C 52 %
2270 23-03-2019 21:56:17 2.5 C 52 %
2271 23-03-2019 22:08:18 2.4 C 53 %
2272 23-03-2019 22:20:18 2.2 C 53 %
2273 23-03-2019 22:32:18 2.1 C 53 %
2274 23-03-2019 22:44:18 1.9 C 55 %
2275 23-03-2019 22:56:17 1.9 C 55 %
Sensor: Nr:Datum:Temp:Feuchte:
Aussen-T/F 2276 23-03-2019 23:08:18 1.8 C 55 %
2277 23-03-2019 23:20:18 1.8 C 56 %
2278 23-03-2019 23:32:18 1.6 C 55 %
2279 23-03-2019 23:44:18 1.5 C 56 %
2280 23-03-2019 23:56:17 1.4 C 56 %
2281 24-03-2019 00:08:17 1.2 C 56 %
2282 24-03-2019 00:20:18 1.2 C 55 %
2283 24-03-2019 00:32:18 1 C 56 %
2284 24-03-2019 00:44:18 1.2 C 57 %
2285 24-03-2019 00:56:17 1.2 C 57 %
2286 24-03-2019 01:08:17 0.9 C 57 %
2287 24-03-2019 01:20:18 0.7 C 57 %
2288 24-03-2019 01:32:18 0.5 C 57 %
2289 24-03-2019 01:44:18 0.4 C 58 %
2290 24-03-2019 01:56:17 0.3 C 58 %
2291 24-03-2019 02:08:18 0.2 C 59 %
2292 24-03-2019 02:20:18 0.2 C 59 %
2293 24-03-2019 02:32:18 0 C 59 %
2294 24-03-2019 02:44:18 -0.1 C 59 %
2295 24-03-2019 02:56:17 -0.1 C 60 %
2296 24-03-2019 03:08:18 -0.1 C 63 %
2297 24-03-2019 03:20:17 -0.3 C 63 %
2298 24-03-2019 03:32:17 -0.3 C 64 %
2299 24-03-2019 03:44:18 -0.2 C 64 %
2300 24-03-2019 03:56:17 -0.2 C 64 %
Sensor: Nr:Datum:Temp:Feuchte:
Aussen-T/F 2301 24-03-2019 04:08:18 -0.4 C 65 %
2302 24-03-2019 04:20:18 -0.2 C 68 %
2303 24-03-2019 04:32:18 -0.2 C 68 %
2304 24-03-2019 04:44:18 0.4 C 72 %
2305 24-03-2019 04:56:18 1 C 73 %
2306 24-03-2019 05:08:18 1.3 C 74 %
2307 24-03-2019 05:20:18 1.4 C 74 %
2308 24-03-2019 05:32:18 1.5 C 73 %
2309 24-03-2019 05:44:18 1.6 C 72 %
2310 24-03-2019 05:56:18 1.7 C 72 %
2311 24-03-2019 06:08:18 2.1 C 69 %
2312 24-03-2019 06:20:17 2 C 67 %
2313 24-03-2019 06:32:17 2.1 C 66 %
2314 24-03-2019 06:44:18 2.2 C 64 %
2315 24-03-2019 06:56:18 2.3 C 62 %
2316 24-03-2019 07:08:18 2.4 C 59 %
2317 24-03-2019 07:20:18 2.5 C 55 %
2318 24-03-2019 07:32:18 2.7 C 53 %
2319 24-03-2019 07:44:18 2.8 C 52 %
2320 24-03-2019 07:56:18 3 C 50 %
2321 24-03-2019 08:08:17 3.5 C 48 %
2322 24-03-2019 08:20:18 3.6 C 46 %
2323 24-03-2019 08:32:18 4.1 C 44 %
2324 24-03-2019 08:44:18 4.4 C 43 %
2325 24-03-2019 08:56:18 4.8 C 39 %
Sensor: Nr:Datum:Temp:Feuchte:
Aussen-T/F 2326 24-03-2019 09:08:17 4.9 C 37 %
2327 24-03-2019 09:20:18 5 C 36 %
2328 24-03-2019 09:32:18 5.4 C 36 %
2329 24-03-2019 09:44:18 5.9 C 36 %
2330 24-03-2019 09:56:18 6.5 C 35 %
2331 24-03-2019 10:08:17 7 C 34 %
2332 24-03-2019 10:20:17 7.6 C 33 %
2333 24-03-2019 10:32:17 7.8 C 32 %
2334 24-03-2019 10:44:17 8.2 C 30 %
2335 24-03-2019 10:56:17 8.7 C 30 %
2336 24-03-2019 11:08:17 10.1 C 27 %
2337 24-03-2019 11:20:17 11.1 C 25 %
2338 24-03-2019 11:32:17 12.2 C 20 %
2339 24-03-2019 11:44:18 12.1 C 20 %
2340 24-03-2019 11:56:18 12.7 C 20 %
2341 24-03-2019 12:08:17 12.6 C 20 %
2342 24-03-2019 12:20:17 12.6 C 20 %
2343 24-03-2019 12:32:17 12.9 C 20 %
2344 24-03-2019 12:44:17 12.7 C 20 %
2345 24-03-2019 12:56:17 11.5 C 21 %
2346 24-03-2019 13:08:17 11.4 C 23 %
2347 24-03-2019 13:20:17 10.8 C 26 %
2348 24-03-2019 13:32:17 10.6 C 26 %
2349 24-03-2019 13:44:17 10.8 C 25 %
2350 24-03-2019 13:56:17 11.1 C 26 %
Sensor: Nr:Datum:Temp:Feuchte:
Aussen-T/F 2351 24-03-2019 14:08:17 10.8 C 27 %
2352 24-03-2019 14:20:17 11 C 26 %
2353 24-03-2019 14:32:17 11.2 C 26 %
2354 24-03-2019 14:44:17 11.4 C 25 %
2355 24-03-2019 14:56:17 11.3 C 25 %
2356 24-03-2019 15:08:17 11 C 25 %
2357 24-03-2019 15:20:17 11.1 C 22 %
2358 24-03-2019 15:32:17 11.6 C 20 %
2359 24-03-2019 15:44:18 11.9 C 20 %
2360 24-03-2019 15:56:17 12.2 C 20 %
2361 24-03-2019 16:08:17 12.3 C 20 %
2362 24-03-2019 16:20:17 12.3 C 20 %
2363 24-03-2019 16:32:17 12.4 C 20 %
2364 24-03-2019 16:44:17 12.1 C 20 %
2365 24-03-2019 16:56:17 11.7 C 20 %
2366 24-03-2019 17:08:17 12.1 C 20 %
2367 24-03-2019 17:20:17 12.7 C 20 %
2368 24-03-2019 17:32:17 13 C 20 %
2369 24-03-2019 17:44:17 13.8 C 20 %
2370 24-03-2019 17:56:17 12.9 C 20 %
2371 24-03-2019 18:08:17 12.4 C 20 %
2372 24-03-2019 18:20:18 10.8 C 20 %
2373 24-03-2019 18:32:17 10.1 C 20 %
2374 24-03-2019 18:44:17 9.8 C 20 %
2375 24-03-2019 18:56:17 8.9 C 20 %
Sensor: Nr:Datum:Temp:Feuchte:
Aussen-T/F 2376 24-03-2019 19:08:17 8.4 C 20 %
2377 24-03-2019 19:20:18 8 C 20 %
2378 24-03-2019 19:32:17 7.8 C 20 %
2379 24-03-2019 19:44:17 7.8 C 20 %
2380 24-03-2019 19:56:18 7 C 20 %
2381 24-03-2019 20:08:17 6.5 C 20 %
2382 24-03-2019 20:20:17 6.3 C 20 %
2383 24-03-2019 20:32:17 5.8 C 20 %
2384 24-03-2019 20:44:17 5.5 C 20 %
2385 24-03-2019 20:56:18 5.7 C 20 %
2386 24-03-2019 21:08:17 4.6 C 20 %
2387 24-03-2019 21:20:18 4.6 C 25 %
2388 24-03-2019 21:32:17 4.1 C 25 %
2389 24-03-2019 21:44:17 4 C 26 %
2390 24-03-2019 21:56:17 3.4 C 30 %
2391 24-03-2019 22:08:17 3.4 C 31 %
2392 24-03-2019 22:20:18 2.7 C 32 %
2393 24-03-2019 22:32:17 2.8 C 33 %
2394 24-03-2019 22:44:17 2.4 C 33 %
2395 24-03-2019 22:56:17 2.3 C 35 %
2396 24-03-2019 23:08:17 2.4 C 36 %
2397 24-03-2019 23:20:17 2.4 C 36 %
2398 24-03-2019 23:32:17 2.4 C 34 %
2399 24-03-2019 23:44:17 2.5 C 33 %
2400 24-03-2019 23:56:18 2.6 C 33 %
Sensor: Nr:Datum:Temp:Feuchte:
Aussen-T/F 2401 25-03-2019 00:08:17 2.6 C 32 %
2402 25-03-2019 00:20:18 2.5 C 33 %
2403 25-03-2019 00:32:17 2.1 C 33 %
2404 25-03-2019 00:44:17 1.5 C 36 %
2405 25-03-2019 00:56:17 1.7 C 38 %
2406 25-03-2019 01:08:18 0.9 C 40 %
2407 25-03-2019 01:20:17 0.4 C 41 %
2408 25-03-2019 01:32:17 0.2 C 43 %
2409 25-03-2019 01:44:17 0.1 C 45 %
2410 25-03-2019 01:56:18 0.3 C 46 %
2411 25-03-2019 02:08:17 0.7 C 47 %
2412 25-03-2019 02:20:17 1.3 C 45 %
2413 25-03-2019 02:32:17 1.7 C 41 %
2414 25-03-2019 02:44:17 1.6 C 40 %
2415 25-03-2019 02:56:17 1.6 C 39 %
2416 25-03-2019 03:08:17 1.6 C 39 %
2417 25-03-2019 03:20:17 1.6 C 39 %
2418 25-03-2019 03:32:17 1.5 C 40 %
2419 25-03-2019 03:44:17 1.7 C 39 %
2420 25-03-2019 03:56:17 1.7 C 39 %
2421 25-03-2019 04:08:17 1.7 C 39 %
2422 25-03-2019 04:20:17 2 C 37 %
2423 25-03-2019 04:32:17 2.7 C 35 %
2424 25-03-2019 04:44:17 2.8 C 31 %
2425 25-03-2019 04:56:17 2.8 C 31 %
Sensor: Nr:Datum:Temp:Feuchte:
Aussen-T/F 2426 25-03-2019 05:08:17 2.8 C 31 %
2427 25-03-2019 05:20:17 3.3 C 30 %
2428 25-03-2019 05:32:17 3.1 C 30 %
2429 25-03-2019 05:44:17 3.1 C 30 %
2430 25-03-2019 05:56:18 3 C 30 %
2431 25-03-2019 06:08:17 3 C 31 %
2432 25-03-2019 06:20:17 3.1 C 31 %
2433 25-03-2019 06:32:17 3.1 C 31 %
2434 25-03-2019 06:44:17 3.1 C 31 %
2435 25-03-2019 06:56:17 3.3 C 32 %
2436 25-03-2019 07:08:18 3.9 C 31 %
2437 25-03-2019 07:20:17 4 C 30 %
2438 25-03-2019 07:32:17 3.5 C 35 %
2439 25-03-2019 07:44:17 3.5 C 36 %
2440 25-03-2019 07:56:17 3.1 C 38 %
2441 25-03-2019 08:08:17 3.3 C 45 %
2442 25-03-2019 08:20:17 3.5 C 48 %
2443 25-03-2019 08:32:18 4 C 48 %
2444 25-03-2019 08:44:18 4 C 47 %
2445 25-03-2019 08:56:17 4.6 C 47 %
2446 25-03-2019 09:08:17 5.4 C 36 %
2447 25-03-2019 09:20:17 5.1 C 35 %
2448 25-03-2019 09:32:17 5.5 C 35 %
2449 25-03-2019 09:44:17 5.3 C 32 %
2450 25-03-2019 09:56:17 6.7 C 25 %
Sensor: Nr:Datum:Temp:Feuchte:
Aussen-T/F 2451 25-03-2019 10:08:18 7 C 20 %
2452 25-03-2019 10:20:17 7 C 20 %
2453 25-03-2019 10:32:17 7.9 C 20 %
2454 25-03-2019 10:44:17 6.1 C 25 %
2455 25-03-2019 10:56:17 7.3 C 20 %
2456 25-03-2019 11:08:18 7.2 C 20 %
2457 25-03-2019 11:20:17 7.6 C 20 %
2458 25-03-2019 11:32:18 6.3 C 20 %
2459 25-03-2019 11:44:18 6.4 C 30 %
2460 25-03-2019 11:56:17 6.9 C 26 %
2461 25-03-2019 12:08:18 6.6 C 25 %
2462 25-03-2019 12:20:17 6.8 C 27 %
2463 25-03-2019 12:32:18 8.3 C 21 %
2464 25-03-2019 12:44:18 6.9 C 23 %
2465 25-03-2019 12:56:17 6.3 C 32 %
2466 25-03-2019 13:08:17 5.5 C 33 %
2467 25-03-2019 13:20:17 6.2 C 38 %
2468 25-03-2019 13:32:17 6.7 C 30 %
2469 25-03-2019 13:44:17 8.2 C 25 %
2470 25-03-2019 13:56:17 8.1 C 20 %
2471 25-03-2019 14:08:17 7 C 20 %
2472 25-03-2019 14:20:17 6.1 C 26 %
2473 25-03-2019 14:32:18 7.1 C 27 %
2474 25-03-2019 14:44:18 7.4 C 23 %
2475 25-03-2019 14:56:17 7.5 C 26 %
Sensor: Nr:Datum:Temp:Feuchte:
Aussen-T/F 2476 25-03-2019 15:08:18 7.4 C 25 %
2477 25-03-2019 15:20:17 6.4 C 27 %
2478 25-03-2019 15:32:18 6.4 C 36 %
2479 25-03-2019 15:44:18 6.9 C 35 %
2480 25-03-2019 15:56:17 7.2 C 35 %
2481 25-03-2019 16:08:18 7.3 C 31 %
2482 25-03-2019 16:20:17 7.2 C 30 %
2483 25-03-2019 16:32:18 7 C 31 %
2484 25-03-2019 16:44:18 5.9 C 35 %
2485 25-03-2019 16:56:17 5.4 C 40 %
2486 25-03-2019 17:08:17 5.2 C 43 %
2487 25-03-2019 17:20:18 4.7 C 45 %
2488 25-03-2019 17:32:17 4.7 C 45 %
2489 25-03-2019 17:44:17 4.5 C 48 %
2490 25-03-2019 17:56:17 4.6 C 51 %
2491 25-03-2019 18:08:17 4.6 C 52 %
2492 25-03-2019 18:20:17 4.6 C 53 %
2493 25-03-2019 18:32:17 4.6 C 53 %
2494 25-03-2019 18:44:17 4.6 C 53 %
2495 25-03-2019 18:56:17 4.6 C 53 %
2496 25-03-2019 19:08:17 4.5 C 53 %
2497 25-03-2019 19:20:17 4 C 52 %
2498 25-03-2019 19:32:17 4 C 53 %
2499 25-03-2019 19:44:17 4.2 C 53 %
2500 25-03-2019 19:56:17 4.3 C 53 %
Sensor: Nr:Datum:Temp:Feuchte:
Aussen-T/F 2501 25-03-2019 20:08:18 4.3 C 53 %
2502 25-03-2019 20:20:17 4.4 C 53 %
2503 25-03-2019 20:32:17 4.1 C 53 %
2504 25-03-2019 20:44:17 4.3 C 54 %
2505 25-03-2019 20:56:17 4.6 C 55 %
2506 25-03-2019 21:08:17 4.6 C 55 %
2507 25-03-2019 21:20:17 4.6 C 54 %
2508 25-03-2019 21:32:17 4.4 C 54 %
2509 25-03-2019 21:44:17 4.3 C 53 %
2510 25-03-2019 21:56:17 4.5 C 50 %
2511 25-03-2019 22:08:17 4.9 C 44 %
2512 25-03-2019 22:20:17 4.4 C 41 %
2513 25-03-2019 22:32:17 4.5 C 42 %
2514 25-03-2019 22:44:17 4.4 C 42 %
2515 25-03-2019 22:56:18 4.4 C 42 %
2516 25-03-2019 23:08:17 4.2 C 44 %
2517 25-03-2019 23:20:17 3.8 C 46 %
2518 25-03-2019 23:32:17 3.6 C 49 %
2519 25-03-2019 23:44:17 3.4 C 50 %
2520 25-03-2019 23:56:17 3.4 C 52 %
2521 26-03-2019 00:08:17 3.6 C 53 %
2522 26-03-2019 00:20:17 3.7 C 54 %
2523 26-03-2019 00:32:17 3.9 C 54 %
2524 26-03-2019 00:44:17 3.9 C 52 %
2525 26-03-2019 00:56:17 4 C 51 %
Sensor: Nr:Datum:Temp:Feuchte:
Aussen-T/F 2526 26-03-2019 01:08:18 4 C 50 %
2527 26-03-2019 01:20:17 3.9 C 51 %
2528 26-03-2019 01:32:18 3.4 C 50 %
2529 26-03-2019 01:44:18 3.4 C 51 %
2530 26-03-2019 01:56:17 3.5 C 52 %
2531 26-03-2019 02:08:17 3.7 C 53 %
2532 26-03-2019 02:20:17 3.7 C 53 %
2533 26-03-2019 02:32:17 3.7 C 53 %
2534 26-03-2019 02:44:17 3.7 C 53 %
2535 26-03-2019 02:56:18 3.9 C 54 %
2536 26-03-2019 03:08:17 3.9 C 54 %
2537 26-03-2019 03:20:17 4 C 52 %
2538 26-03-2019 03:32:18 4.1 C 52 %
2539 26-03-2019 03:44:18 4.1 C 52 %
2540 26-03-2019 03:56:17 4.1 C 52 %
2541 26-03-2019 04:08:17 4.2 C 52 %
2542 26-03-2019 04:20:17 4.3 C 52 %
2543 26-03-2019 04:32:18 4.4 C 51 %
2544 26-03-2019 04:44:18 4.5 C 49 %
2545 26-03-2019 04:56:17 4.5 C 48 %
2546 26-03-2019 05:08:17 4.4 C 47 %
2547 26-03-2019 05:20:17 4.4 C 46 %
2548 26-03-2019 05:32:17 4.5 C 45 %
2549 26-03-2019 05:44:17 4.5 C 42 %
2550 26-03-2019 05:56:18 4.3 C 43 %
Sensor: Nr:Datum:Temp:Feuchte:
Aussen-T/F 2551 26-03-2019 06:08:17 4.4 C 43 %
2552 26-03-2019 06:20:17 4.5 C 41 %
2553 26-03-2019 06:32:17 4.5 C 40 %
2554 26-03-2019 06:44:17 4.4 C 40 %
2555 26-03-2019 06:56:17 4.3 C 41 %
2556 26-03-2019 07:08:17 4.5 C 41 %
2557 26-03-2019 07:20:17 4.5 C 41 %
2558 26-03-2019 07:32:17 4.6 C 41 %
2559 26-03-2019 07:44:17 4.6 C 40 %
2560 26-03-2019 07:56:17 4.9 C 38 %
2561 26-03-2019 08:08:17 5 C 33 %
2562 26-03-2019 08:20:17 5.3 C 31 %
2563 26-03-2019 08:32:17 5.4 C 30 %
2564 26-03-2019 08:44:17 5.7 C 30 %
2565 26-03-2019 08:56:18 5.9 C 28 %
2566 26-03-2019 09:08:17 5.9 C 26 %
2567 26-03-2019 09:20:18 5.9 C 27 %
2568 26-03-2019 09:32:17 6.1 C 26 %
2569 26-03-2019 09:44:17 6.7 C 25 %
2570 26-03-2019 09:56:17 6.7 C 25 %
2571 26-03-2019 10:08:17 6.7 C 21 %
2572 26-03-2019 10:20:17 7.2 C 20 %
2573 26-03-2019 10:32:17 7.7 C 20 %
2574 26-03-2019 10:44:17 7.3 C 20 %
2575 26-03-2019 10:56:17 7.2 C 20 %
Sensor: Nr:Datum:Temp:Feuchte:
Aussen-T/F 2576 26-03-2019 11:08:17 6.8 C 20 %
2577 26-03-2019 11:20:17 6.7 C 20 %
2578 26-03-2019 11:32:17 7.1 C 20 %
2579 26-03-2019 11:44:17 8 C 20 %
2580 26-03-2019 11:56:17 8.3 C 20 %
2581 26-03-2019 12:08:17 8.7 C 20 %
2582 26-03-2019 12:20:17 8.7 C 20 %
2583 26-03-2019 12:32:17 9.6 C 20 %
2584 26-03-2019 12:44:17 9.4 C 20 %
2585 26-03-2019 12:56:17 9.6 C 20 %
2586 26-03-2019 13:08:17 9 C 20 %
2587 26-03-2019 13:20:17 8.9 C 20 %
2588 26-03-2019 13:32:17 9.4 C 20 %
2589 26-03-2019 13:44:17 9.4 C 20 %
2590 26-03-2019 13:56:17 9 C 20 %
2591 26-03-2019 14:08:18 9.2 C 20 %
2592 26-03-2019 14:20:17 9.3 C 20 %
2593 26-03-2019 14:32:17 9.4 C 20 %
2594 26-03-2019 14:44:18 8.8 C 20 %
2595 26-03-2019 14:56:17 8.9 C 20 %
2596 26-03-2019 15:08:17 9 C 20 %
2597 26-03-2019 15:20:17 9 C 20 %
2598 26-03-2019 15:32:17 9.1 C 20 %
2599 26-03-2019 15:44:17 9.6 C 20 %
2600 26-03-2019 15:56:17 10.4 C 20 %
Sensor: Nr:Datum:Temp:Feuchte:
Aussen-T/F 2601 26-03-2019 16:08:17 9.7 C 20 %
2602 26-03-2019 16:20:17 9.6 C 20 %
2603 26-03-2019 16:32:17 9.6 C 20 %
2604 26-03-2019 16:44:18 9 C 20 %
2605 26-03-2019 16:56:17 8.6 C 20 %
2606 26-03-2019 17:08:17 8.2 C 20 %
2607 26-03-2019 17:20:17 8.2 C 20 %
2608 26-03-2019 17:32:17 8.1 C 20 %
2609 26-03-2019 17:44:18 7.9 C 20 %
2610 26-03-2019 17:56:18 7.9 C 20 %
2611 26-03-2019 18:08:17 7.9 C 20 %
2612 26-03-2019 18:20:17 7.7 C 20 %
2613 26-03-2019 18:32:17 7.6 C 20 %
2614 26-03-2019 18:44:17 7.5 C 20 %
2615 26-03-2019 18:56:18 7.4 C 20 %
2616 26-03-2019 19:08:17 7.2 C 23 %
2617 26-03-2019 19:20:17 7 C 25 %
2618 26-03-2019 19:32:17 6.8 C 28 %
2619 26-03-2019 19:44:17 6.5 C 31 %
2620 26-03-2019 19:56:17 6.5 C 31 %
2621 26-03-2019 20:08:17 6.5 C 30 %
2622 26-03-2019 20:20:18 6.6 C 30 %
2623 26-03-2019 20:32:17 6.4 C 31 %
2624 26-03-2019 20:44:17 6.5 C 31 %
2625 26-03-2019 20:56:18 6.4 C 32 %
Sensor: Nr:Datum:Temp:Feuchte:
Aussen-T/F 2626 26-03-2019 21:08:17 6.3 C 32 %
2627 26-03-2019 21:20:17 6.3 C 32 %
2628 26-03-2019 21:32:18 6.1 C 34 %
2629 26-03-2019 21:44:18 6 C 35 %
2630 26-03-2019 21:56:17 6 C 35 %
2631 26-03-2019 22:08:18 5.9 C 36 %
2632 26-03-2019 22:20:17 5.8 C 37 %
2633 26-03-2019 22:32:17 5.7 C 38 %
2634 26-03-2019 22:44:17 5.7 C 39 %
2635 26-03-2019 22:56:17 5.7 C 39 %
2636 26-03-2019 23:08:17 5.6 C 40 %
2637 26-03-2019 23:20:17 5.5 C 40 %
2638 26-03-2019 23:32:17 5.5 C 40 %
2639 26-03-2019 23:44:17 5.6 C 39 %
2640 26-03-2019 23:56:17 5.7 C 38 %
2641 27-03-2019 00:08:17 5.5 C 38 %
2642 27-03-2019 00:20:17 5.3 C 39 %
2643 27-03-2019 00:32:17 5.3 C 41 %
2644 27-03-2019 00:44:17 5.1 C 42 %
2645 27-03-2019 00:56:17 5 C 42 %
2646 27-03-2019 01:08:18 5 C 42 %
2647 27-03-2019 01:20:17 4.8 C 44 %
2648 27-03-2019 01:32:18 4.4 C 44 %
2649 27-03-2019 01:44:18 4.4 C 45 %
2650 27-03-2019 01:56:17 4.5 C 46 %
Sensor: Nr:Datum:Temp:Feuchte:
Aussen-T/F 2651 27-03-2019 02:08:17 4.5 C 46 %
2652 27-03-2019 02:20:17 4.6 C 46 %
2653 27-03-2019 02:32:17 4.6 C 45 %
2654 27-03-2019 02:44:17 4.4 C 45 %
2655 27-03-2019 02:56:17 4.2 C 46 %
2656 27-03-2019 03:08:17 4.1 C 46 %
2657 27-03-2019 03:20:18 4.2 C 47 %
2658 27-03-2019 03:32:17 4.1 C 47 %
2659 27-03-2019 03:44:17 3.9 C 47 %
2660 27-03-2019 03:56:17 3.4 C 47 %
2661 27-03-2019 04:08:17 3.3 C 49 %
2662 27-03-2019 04:20:18 3.1 C 49 %
2663 27-03-2019 04:32:17 2.8 C 50 %
2664 27-03-2019 04:44:17 2.4 C 50 %
2665 27-03-2019 04:56:17 2.1 C 51 %
2666 27-03-2019 05:08:17 1.8 C 53 %
2667 27-03-2019 05:20:18 1.7 C 54 %
2668 27-03-2019 05:32:17 1.6 C 54 %
2669 27-03-2019 05:44:17 1.3 C 55 %
2670 27-03-2019 05:56:17 1.1 C 55 %
2671 27-03-2019 06:08:18 0.9 C 56 %
2672 27-03-2019 06:20:17 0.8 C 56 %
2673 27-03-2019 06:32:17 0.8 C 56 %
2674 27-03-2019 06:44:17 0.8 C 56 %
2675 27-03-2019 06:56:17 1.1 C 56 %
Sensor: Nr:Datum:Temp:Feuchte:
Aussen-T/F 2676 27-03-2019 07:08:17 1.4 C 56 %
2677 27-03-2019 07:20:17 1.4 C 56 %
2678 27-03-2019 07:32:18 2.1 C 56 %
2679 27-03-2019 07:44:18 3.1 C 56 %
2680 27-03-2019 07:56:17 3.4 C 54 %
2681 27-03-2019 08:08:17 3.3 C 50 %
2682 27-03-2019 08:20:17 3.5 C 48 %
2683 27-03-2019 08:32:18 3.8 C 47 %
2684 27-03-2019 08:44:18 3.9 C 46 %
2685 27-03-2019 08:56:17 4.9 C 46 %
2686 27-03-2019 09:08:18 5.6 C 42 %
2687 27-03-2019 09:20:17 6.2 C 37 %
2688 27-03-2019 09:32:17 6.8 C 35 %
2689 27-03-2019 09:44:17 7.8 C 31 %
2690 27-03-2019 09:56:17 8.1 C 29 %
2691 27-03-2019 10:08:17 8.7 C 29 %
2692 27-03-2019 10:20:18 8.6 C 27 %
2693 27-03-2019 10:32:17 10.6 C 25 %
2694 27-03-2019 10:44:17 10 C 22 %
2695 27-03-2019 10:56:17 11 C 20 %
2696 27-03-2019 11:08:17 9.3 C 21 %
2697 27-03-2019 11:20:17 8.9 C 20 %
2698 27-03-2019 11:32:17 10 C 20 %
2699 27-03-2019 11:44:17 11.1 C 20 %
2700 27-03-2019 11:56:17 9.8 C 20 %
Sensor: Nr:Datum:Temp:Feuchte:
Aussen-T/F 2701 27-03-2019 12:08:17 9.3 C 20 %
2702 27-03-2019 12:20:17 9.8 C 20 %
2703 27-03-2019 12:32:17 11.1 C 20 %
2704 27-03-2019 12:44:17 11.4 C 20 %
2705 27-03-2019 12:56:17 10.9 C 20 %
2706 27-03-2019 13:08:18 11.1 C 20 %
2707 27-03-2019 13:20:17 11.7 C 20 %
2708 27-03-2019 13:32:17 10.8 C 20 %
2709 27-03-2019 13:44:17 10.6 C 20 %
2710 27-03-2019 13:56:17 11 C 20 %
2711 27-03-2019 14:08:18 10.8 C 20 %
2712 27-03-2019 14:20:17 11.3 C 20 %
2713 27-03-2019 14:32:17 11.4 C 20 %
2714 27-03-2019 14:44:17 12.4 C 20 %
2715 27-03-2019 14:56:17 11.4 C 20 %
2716 27-03-2019 15:08:17 11.7 C 20 %
2717 27-03-2019 15:20:17 11.4 C 20 %
2718 27-03-2019 15:32:17 11.3 C 20 %
2719 27-03-2019 15:44:17 11 C 20 %
2720 27-03-2019 15:56:17 11 C 20 %
2721 27-03-2019 16:08:17 11.2 C 20 %
2722 27-03-2019 16:20:17 11.2 C 20 %
2723 27-03-2019 16:32:17 11.8 C 20 %
2724 27-03-2019 16:44:17 11.1 C 20 %
2725 27-03-2019 16:56:18 11 C 20 %
Sensor: Nr:Datum:Temp:Feuchte:
Aussen-T/F 2726 27-03-2019 17:08:17 11.1 C 20 %
2727 27-03-2019 17:20:18 10.7 C 20 %
2728 27-03-2019 17:32:17 10.4 C 20 %
2729 27-03-2019 17:44:17 10.9 C 20 %
2730 27-03-2019 17:56:17 10.9 C 20 %
2731 27-03-2019 18:08:17 10.2 C 20 %
2732 27-03-2019 18:20:17 9.3 C 20 %
2733 27-03-2019 18:32:17 8.2 C 20 %
2734 27-03-2019 18:44:18 7.9 C 20 %
2735 27-03-2019 18:56:17 7.4 C 20 %
2736 27-03-2019 19:08:17 7 C 25 %
2737 27-03-2019 19:20:17 6.6 C 27 %
2738 27-03-2019 19:32:18 6.4 C 27 %
2739 27-03-2019 19:44:18 6.2 C 28 %
2740 27-03-2019 19:56:17 6.1 C 29 %
2741 27-03-2019 20:08:18 6 C 29 %
2742 27-03-2019 20:20:17 6.1 C 29 %
2743 27-03-2019 20:32:17 5.6 C 31 %
2744 27-03-2019 20:44:17 5.4 C 32 %
2745 27-03-2019 20:56:17 5.2 C 33 %
2746 27-03-2019 21:08:18 4.7 C 35 %
2747 27-03-2019 21:20:17 4.2 C 37 %
2748 27-03-2019 21:32:17 4.1 C 39 %
2749 27-03-2019 21:44:17 3.9 C 41 %
2750 27-03-2019 21:56:17 4 C 41 %
Sensor: Nr:Datum:Temp:Feuchte:
Aussen-T/F 2751 27-03-2019 22:08:17 3.9 C 41 %
2752 27-03-2019 22:20:18 3.7 C 41 %
2753 27-03-2019 22:32:17 3.4 C 43 %
2754 27-03-2019 22:44:17 3.1 C 43 %
2755 27-03-2019 22:56:18 2.7 C 45 %
2756 27-03-2019 23:08:17 2.5 C 47 %
2757 27-03-2019 23:20:17 2.3 C 48 %
2758 27-03-2019 23:32:17 2.1 C 48 %
2759 27-03-2019 23:44:17 2 C 49 %
2760 27-03-2019 23:56:17 1.8 C 51 %
2761 28-03-2019 00:08:17 1.7 C 51 %
2762 28-03-2019 00:20:17 1.7 C 52 %
2763 28-03-2019 00:32:18 1.9 C 53 %
2764 28-03-2019 00:44:18 1.7 C 52 %
2765 28-03-2019 00:56:17 1.5 C 52 %
2766 28-03-2019 01:08:17 1.4 C 52 %
2767 28-03-2019 01:20:18 1.3 C 53 %
2768 28-03-2019 01:32:17 1.1 C 53 %
2769 28-03-2019 01:44:17 1.2 C 54 %
2770 28-03-2019 01:56:17 1 C 53 %
2771 28-03-2019 02:08:18 0.8 C 55 %
2772 28-03-2019 02:20:17 0.7 C 55 %
2773 28-03-2019 02:32:17 0.7 C 55 %
2774 28-03-2019 02:44:17 0.6 C 55 %
2775 28-03-2019 02:56:18 0.5 C 55 %
Sensor: Nr:Datum:Temp:Feuchte:
Aussen-T/F 2776 28-03-2019 03:08:17 0.4 C 56 %
2777 28-03-2019 03:20:17 0.3 C 56 %
2778 28-03-2019 03:32:17 0.6 C 57 %
2779 28-03-2019 03:44:17 0.1 C 56 %
2780 28-03-2019 03:56:17 0.2 C 56 %
2781 28-03-2019 04:08:17 0.4 C 57 %
2782 28-03-2019 04:20:17 0.3 C 56 %
2783 28-03-2019 04:32:18 0 C 56 %
2784 28-03-2019 04:44:18 0 C 56 %
2785 28-03-2019 04:56:17 0 C 56 %
2786 28-03-2019 05:08:17 0.1 C 56 %
2787 28-03-2019 05:20:17 -0.1 C 56 %
2788 28-03-2019 05:32:18 0.4 C 58 %
2789 28-03-2019 05:44:18 0.7 C 59 %
2790 28-03-2019 05:56:17 0.7 C 58 %
2791 28-03-2019 06:08:17 0.8 C 58 %
2792 28-03-2019 06:20:18 1 C 57 %
2793 28-03-2019 06:32:17 0.9 C 57 %
2794 28-03-2019 06:44:17 1.1 C 57 %
2795 28-03-2019 06:56:17 1.4 C 58 %
2796 28-03-2019 07:08:17 1.6 C 56 %
2797 28-03-2019 07:20:17 1.8 C 55 %
2798 28-03-2019 07:32:17 2.1 C 52 %
2799 28-03-2019 07:44:17 2.1 C 50 %
2800 28-03-2019 07:56:17 2.5 C 48 %
Sensor: Nr:Datum:Temp:Feuchte:
Aussen-T/F 2801 28-03-2019 08:08:17 2.5 C 46 %
2802 28-03-2019 08:20:17 2.5 C 43 %
2803 28-03-2019 08:32:17 2.7 C 43 %
2804 28-03-2019 08:44:17 3 C 42 %
2805 28-03-2019 08:56:17 3.3 C 42 %
2806 28-03-2019 09:08:17 3.8 C 40 %
2807 28-03-2019 09:20:17 4.4 C 38 %
2808 28-03-2019 09:32:17 4.6 C 37 %
2809 28-03-2019 09:44:17 5.7 C 36 %
2810 28-03-2019 09:56:17 6.5 C 35 %
2811 28-03-2019 10:08:18 7.4 C 32 %
2812 28-03-2019 10:20:17 7.8 C 29 %
2813 28-03-2019 10:32:17 9.3 C 25 %
2814 28-03-2019 10:44:17 12 C 20 %
2815 28-03-2019 10:56:17 11.7 C 20 %
2816 28-03-2019 11:08:17 11.3 C 20 %
2817 28-03-2019 11:20:17 12.9 C 20 %
2818 28-03-2019 11:32:17 13.7 C 20 %
2819 28-03-2019 11:44:17 14.4 C 20 %
2820 28-03-2019 11:56:17 12.4 C 20 %
2821 28-03-2019 12:08:17 12.6 C 20 %
2822 28-03-2019 12:20:17 12.7 C 20 %
2823 28-03-2019 12:32:17 12.9 C 20 %
2824 28-03-2019 12:44:17 12.8 C 20 %
2825 28-03-2019 12:56:17 12.5 C 20 %
Sensor: Nr:Datum:Temp:Feuchte:
Aussen-T/F 2826 28-03-2019 13:08:17 12.9 C 20 %
2827 28-03-2019 13:20:18 13.6 C 20 %
2828 28-03-2019 13:32:17 13.2 C 20 %
2829 28-03-2019 13:44:17 13.4 C 20 %
2830 28-03-2019 13:56:18 13.8 C 20 %
2831 28-03-2019 14:08:17 13.6 C 20 %
2832 28-03-2019 14:20:17 13.5 C 20 %
2833 28-03-2019 14:32:17 13.9 C 20 %
2834 28-03-2019 14:44:17 13.3 C 20 %
2835 28-03-2019 14:56:17 13.3 C 20 %
2836 28-03-2019 15:08:17 13.3 C 20 %
2837 28-03-2019 15:20:18 13.7 C 20 %
2838 28-03-2019 15:32:17 13.4 C 20 %
2839 28-03-2019 15:44:17 13.5 C 20 %
2840 28-03-2019 15:56:17 13.5 C 20 %
2841 28-03-2019 16:08:17 13.6 C 20 %
2842 28-03-2019 16:20:17 13.4 C 20 %
2843 28-03-2019 16:32:17 13.6 C 20 %
2844 28-03-2019 16:44:17 13.4 C 20 %
2845 28-03-2019 16:56:17 13.2 C 20 %
2846 28-03-2019 17:08:17 13.1 C 20 %
2847 28-03-2019 17:20:17 13.1 C 20 %
2848 28-03-2019 17:32:17 12.9 C 20 %
2849 28-03-2019 17:44:17 12.9 C 20 %
2850 28-03-2019 17:56:17 12.7 C 20 %
Sensor: Nr:Datum:Temp:Feuchte:
Aussen-T/F 2851 28-03-2019 18:08:17 12.5 C 20 %
2852 28-03-2019 18:20:17 12.2 C 20 %
2853 28-03-2019 18:32:18 11.3 C 20 %
2854 28-03-2019 18:44:18 10.1 C 20 %
2855 28-03-2019 18:56:17 9.4 C 26 %
2856 28-03-2019 19:08:18 9.6 C 26 %
2857 28-03-2019 19:20:17 9.6 C 27 %
2858 28-03-2019 19:32:18 9.6 C 27 %
2859 28-03-2019 19:44:18 9.9 C 26 %
2860 28-03-2019 19:56:17 10 C 25 %
2861 28-03-2019 20:08:17 9.9 C 26 %
2862 28-03-2019 20:20:17 9.8 C 26 %
2863 28-03-2019 20:32:17 9.2 C 28 %
2864 28-03-2019 20:44:17 9.3 C 28 %
2865 28-03-2019 20:56:17 9.3 C 28 %
2866 28-03-2019 21:08:17 9.2 C 28 %
2867 28-03-2019 21:20:17 9 C 29 %
2868 28-03-2019 21:32:17 8.2 C 30 %
2869 28-03-2019 21:44:17 7.6 C 31 %
2870 28-03-2019 21:56:17 7.6 C 31 %
2871 28-03-2019 22:08:17 7.2 C 33 %
2872 28-03-2019 22:20:17 6.6 C 34 %
2873 28-03-2019 22:32:17 6 C 35 %
2874 28-03-2019 22:44:17 5.9 C 41 %
2875 28-03-2019 22:56:17 5.7 C 41 %
Sensor: Nr:Datum:Temp:Feuchte:
Aussen-T/F 2876 28-03-2019 23:08:17 5.2 C 41 %
2877 28-03-2019 23:20:17 5 C 41 %
2878 28-03-2019 23:32:17 4.6 C 45 %
2879 28-03-2019 23:44:17 4.5 C 45 %
2880 28-03-2019 23:56:17 4.2 C 46 %
2881 29-03-2019 00:08:17 4.1 C 47 %
2882 29-03-2019 00:20:17 3.8 C 48 %
2883 29-03-2019 00:32:18 3.7 C 50 %
2884 29-03-2019 00:44:18 3.7 C 50 %
2885 29-03-2019 00:56:17 3.5 C 50 %
2886 29-03-2019 01:08:17 3.3 C 50 %
2887 29-03-2019 01:20:17 3.3 C 51 %
2888 29-03-2019 01:32:17 3.3 C 52 %
2889 29-03-2019 01:44:17 2.8 C 52 %
2890 29-03-2019 01:56:17 2.7 C 53 %
2891 29-03-2019 02:08:17 2.8 C 54 %
2892 29-03-2019 02:20:18 2.7 C 54 %
2893 29-03-2019 02:32:17 2.6 C 54 %
2894 29-03-2019 02:44:17 2.3 C 54 %
2895 29-03-2019 02:56:17 2.3 C 54 %
2896 29-03-2019 03:08:17 2.2 C 54 %
2897 29-03-2019 03:20:18 2.2 C 54 %
2898 29-03-2019 03:32:17 1.7 C 55 %
2899 29-03-2019 03:44:17 1.8 C 56 %
2900 29-03-2019 03:56:17 1.8 C 56 %
Sensor: Nr:Datum:Temp:Feuchte:
Aussen-T/F 2901 29-03-2019 04:08:17 1.7 C 56 %
2902 29-03-2019 04:20:18 1.7 C 56 %
2903 29-03-2019 04:32:17 1.6 C 56 %
2904 29-03-2019 04:44:17 1.7 C 57 %
2905 29-03-2019 04:56:17 1.3 C 56 %
2906 29-03-2019 05:08:17 1 C 56 %
2907 29-03-2019 05:20:17 1 C 57 %
2908 29-03-2019 05:32:17 0.9 C 58 %
2909 29-03-2019 05:44:17 0.7 C 58 %
2910 29-03-2019 05:56:18 0.8 C 60 %
2911 29-03-2019 06:08:18 0.8 C 61 %
2912 29-03-2019 06:20:17 0.7 C 61 %
2913 29-03-2019 06:32:18 1 C 63 %
2914 29-03-2019 06:44:18 0.9 C 65 %
2915 29-03-2019 06:56:17 0.9 C 64 %
2916 29-03-2019 07:08:18 1 C 65 %
2917 29-03-2019 07:20:17 1.2 C 65 %
2918 29-03-2019 07:32:17 1.2 C 65 %
2919 29-03-2019 07:44:17 1.6 C 67 %
2920 29-03-2019 07:56:17 1.6 C 66 %
2921 29-03-2019 08:08:17 1.9 C 67 %
2922 29-03-2019 08:20:17 2.1 C 67 %
2923 29-03-2019 08:32:17 2.4 C 68 %
2924 29-03-2019 08:44:17 2.5 C 68 %
2925 29-03-2019 08:56:17 3 C 69 %
Sensor: Nr:Datum:Temp:Feuchte:
Aussen-T/F 2926 29-03-2019 09:08:18 3.3 C 70 %
2927 29-03-2019 09:20:17 3.8 C 71 %
2928 29-03-2019 09:32:17 4.2 C 71 %
2929 29-03-2019 09:44:18 5.7 C 73 %
2930 29-03-2019 09:56:17 6.8 C 69 %
2931 29-03-2019 10:08:17 7.6 C 52 %
2932 29-03-2019 10:20:17 8.5 C 45 %
2933 29-03-2019 10:32:18 12 C 30 %
2934 29-03-2019 10:44:18 13.1 C 23 %
2935 29-03-2019 10:56:17 13.6 C 20 %
2936 29-03-2019 11:08:17 13.4 C 20 %
2937 29-03-2019 11:20:17 15.2 C 20 %
2938 29-03-2019 11:32:18 15.6 C 20 %
2939 29-03-2019 11:44:18 15.9 C 20 %
2940 29-03-2019 11:56:17 14 C 20 %
2941 29-03-2019 12:08:18 13.9 C 20 %
2942 29-03-2019 12:20:17 14 C 20 %
2943 29-03-2019 12:32:18 14.4 C 20 %
2944 29-03-2019 12:44:18 14.8 C 20 %
2945 29-03-2019 12:56:17 15 C 20 %
2946 29-03-2019 13:08:17 15.8 C 20 %
2947 29-03-2019 13:20:17 15.8 C 20 %
2948 29-03-2019 13:32:18 15.6 C 20 %
2949 29-03-2019 13:44:18 16 C 20 %
2950 29-03-2019 13:56:17 16.1 C 20 %
Sensor: Nr:Datum:Temp:Feuchte:
Aussen-T/F 2951 29-03-2019 14:08:17 16.2 C 20 %
2952 29-03-2019 14:20:17 16.5 C 20 %
2953 29-03-2019 14:32:18 16.6 C 20 %
2954 29-03-2019 14:44:18 17.2 C 20 %
2955 29-03-2019 14:56:17 17 C 20 %
2956 29-03-2019 15:08:17 17.5 C 20 %
2957 29-03-2019 15:20:17 17.7 C 20 %
2958 29-03-2019 15:32:17 17.9 C 20 %
2959 29-03-2019 15:44:17 18 C 20 %
2960 29-03-2019 15:56:18 18.2 C 20 %
2961 29-03-2019 16:08:17 18.3 C 20 %
2962 29-03-2019 16:20:17 18.3 C 20 %
2963 29-03-2019 16:32:17 18.1 C 20 %
2964 29-03-2019 16:44:17 18.9 C 20 %
2965 29-03-2019 16:56:17 19.2 C 20 %
2966 29-03-2019 17:08:18 18.4 C 20 %
2967 29-03-2019 17:20:17 19 C 20 %
2968 29-03-2019 17:32:17 19.7 C 20 %
2969 29-03-2019 17:44:17 21.3 C 20 %
2970 29-03-2019 17:56:17 22.2 C 20 %
2971 29-03-2019 18:08:17 18.7 C 20 %
2972 29-03-2019 18:20:17 16.6 C 20 %
2973 29-03-2019 18:32:17 14.9 C 20 %
2974 29-03-2019 18:44:17 13 C 20 %
2975 29-03-2019 18:56:17 12.1 C 20 %
Sensor: Nr:Datum:Temp:Feuchte:
Aussen-T/F 2976 29-03-2019 19:08:17 11.3 C 20 %
2977 29-03-2019 19:20:17 10.8 C 20 %
2978 29-03-2019 19:32:18 10.5 C 20 %
2979 29-03-2019 19:44:18 10.3 C 20 %
2980 29-03-2019 19:56:17 9.8 C 20 %
2981 29-03-2019 20:08:17 9.6 C 20 %
2982 29-03-2019 20:20:17 9.4 C 20 %
2983 29-03-2019 20:32:18 8.2 C 25 %
2984 29-03-2019 20:44:18 7.8 C 26 %
2985 29-03-2019 20:56:17 7.5 C 27 %
2986 29-03-2019 21:08:17 7.2 C 28 %
2987 29-03-2019 21:20:18 6.9 C 30 %
2988 29-03-2019 21:32:17 6.6 C 30 %
2989 29-03-2019 21:44:17 6.3 C 30 %
2990 29-03-2019 21:56:17 6 C 31 %
2991 29-03-2019 22:08:17 5.9 C 32 %
2992 29-03-2019 22:20:17 5.5 C 33 %
2993 29-03-2019 22:32:17 5.2 C 33 %
2994 29-03-2019 22:44:17 5 C 35 %
2995 29-03-2019 22:56:17 4.7 C 36 %
2996 29-03-2019 23:08:17 4.6 C 37 %
2997 29-03-2019 23:20:17 4.5 C 38 %
2998 29-03-2019 23:32:17 4.2 C 38 %
2999 29-03-2019 23:44:18 4 C 40 %
3000 29-03-2019 23:56:17 3.8 C 41 %
Sensor: Nr:Datum:Temp:Feuchte:
Aussen-T/F 3001 30-03-2019 00:08:17 3.7 C 42 %
3002 30-03-2019 00:20:17 3.4 C 43 %
3003 30-03-2019 00:32:17 3.3 C 44 %
3004 30-03-2019 00:44:17 3.1 C 45 %
3005 30-03-2019 00:56:17 3.1 C 45 %
3006 30-03-2019 01:08:17 3 C 46 %
3007 30-03-2019 01:20:17 2.9 C 48 %
3008 30-03-2019 01:32:17 2.8 C 48 %
3009 30-03-2019 01:44:18 2.7 C 49 %
3010 30-03-2019 01:56:18 2.6 C 49 %
3011 30-03-2019 02:08:17 2.4 C 50 %
3012 30-03-2019 02:20:18 2.3 C 50 %
3013 30-03-2019 02:32:17 2.2 C 50 %
3014 30-03-2019 02:44:17 1.8 C 51 %
3015 30-03-2019 02:56:17 1.8 C 52 %
3016 30-03-2019 03:08:17 1.8 C 52 %
3017 30-03-2019 03:20:17 1.6 C 53 %
3018 30-03-2019 03:32:18 1.6 C 53 %
3019 30-03-2019 03:44:18 1.5 C 53 %
3020 30-03-2019 03:56:17 1.5 C 54 %
3021 30-03-2019 04:08:17 1.3 C 54 %
3022 30-03-2019 04:20:17 1.5 C 55 %
3023 30-03-2019 04:32:17 1.3 C 54 %
3024 30-03-2019 04:44:17 1.1 C 54 %
3025 30-03-2019 04:56:18 0.8 C 55 %
Sensor: Nr:Datum:Temp:Feuchte:
Aussen-T/F 3026 30-03-2019 05:08:17 0.9 C 56 %
3027 30-03-2019 05:20:17 0.7 C 55 %
3028 30-03-2019 05:32:17 0.6 C 56 %
3029 30-03-2019 05:44:17 0.6 C 56 %
3030 30-03-2019 05:56:17 0.7 C 56 %
3031 30-03-2019 06:08:17 0.7 C 56 %
3032 30-03-2019 06:20:17 0.6 C 56 %
3033 30-03-2019 06:32:17 0.6 C 56 %
3034 30-03-2019 06:44:17 0.6 C 56 %
3035 30-03-2019 06:56:17 0.7 C 57 %
3036 30-03-2019 07:08:17 1 C 56 %
3037 30-03-2019 07:20:17 1.2 C 56 %
3038 30-03-2019 07:32:18 1.4 C 56 %
3039 30-03-2019 07:44:18 1.8 C 57 %
3040 30-03-2019 07:56:17 2 C 56 %
3041 30-03-2019 08:08:18 2.3 C 57 %
3042 30-03-2019 08:20:17 2.3 C 57 %
3043 30-03-2019 08:32:17 3.1 C 58 %
3044 30-03-2019 08:44:17 3.6 C 59 %
3045 30-03-2019 08:56:17 4 C 57 %
3046 30-03-2019 09:08:17 4.3 C 55 %
3047 30-03-2019 09:20:17 5 C 54 %
3048 30-03-2019 09:32:17 5.1 C 52 %
3049 30-03-2019 09:44:17 6.4 C 48 %
3050 30-03-2019 09:56:17 7.4 C 44 %
Sensor: Nr:Datum:Temp:Feuchte:
Aussen-T/F 3051 30-03-2019 10:08:17 8.3 C 37 %
3052 30-03-2019 10:20:17 9.1 C 35 %
3053 30-03-2019 10:32:17 12.7 C 26 %
3054 30-03-2019 10:44:17 14.1 C 21 %
3055 30-03-2019 10:56:18 14.6 C 20 %
3056 30-03-2019 11:08:17 15.3 C 20 %
3057 30-03-2019 11:20:17 15.3 C 20 %
3058 30-03-2019 11:32:17 18.3 C 20 %
3059 30-03-2019 11:44:17 19.2 C 20 %
3060 30-03-2019 11:56:17 17 C 20 %
3061 30-03-2019 12:08:17 16.8 C 20 %
3062 30-03-2019 12:20:17 17.1 C 20 %
3063 30-03-2019 12:32:17 17.5 C 20 %
3064 30-03-2019 12:44:17 17.6 C 20 %
3065 30-03-2019 12:56:17 18 C 20 %
3066 30-03-2019 13:08:17 18.5 C 20 %
3067 30-03-2019 13:20:17 18.9 C 20 %
3068 30-03-2019 13:32:17 19 C 20 %
3069 30-03-2019 13:44:17 19.2 C 20 %
3070 30-03-2019 13:56:17 19.3 C 20 %
3071 30-03-2019 14:08:17 19.3 C 20 %
3072 30-03-2019 14:20:17 19.3 C 20 %
3073 30-03-2019 14:32:17 20 C 20 %
3074 30-03-2019 14:44:17 20 C 20 %
3075 30-03-2019 14:56:17 20 C 20 %
Sensor: Nr:Datum:Temp:Feuchte:
Aussen-T/F 3076 30-03-2019 15:08:17 20.6 C 20 %
3077 30-03-2019 15:20:17 21 C 20 %
3078 30-03-2019 15:32:17 21.2 C 20 %
3079 30-03-2019 15:44:17 21.4 C 20 %
3080 30-03-2019 15:56:17 21.3 C 20 %
3081 30-03-2019 16:08:17 21.9 C 20 %
3082 30-03-2019 16:20:18 21.7 C 20 %
3083 30-03-2019 16:32:17 19.2 C 20 %
3084 30-03-2019 16:44:17 19.2 C 20 %
3085 30-03-2019 16:56:17 19.6 C 20 %
3086 30-03-2019 17:08:17 19.8 C 20 %
3087 30-03-2019 17:20:17 19.9 C 20 %
3088 30-03-2019 17:32:17 19.1 C 20 %
3089 30-03-2019 17:44:17 18.4 C 20 %
3090 30-03-2019 17:56:17 18.6 C 20 %
3091 30-03-2019 18:08:17 17.7 C 20 %
3092 30-03-2019 18:20:17 16.5 C 20 %
3093 30-03-2019 18:32:17 16.4 C 20 %
3094 30-03-2019 18:44:17 16.4 C 20 %
3095 30-03-2019 18:56:17 14.7 C 20 %
3096 30-03-2019 19:08:17 14.3 C 20 %
3097 30-03-2019 19:20:17 13.8 C 20 %
3098 30-03-2019 19:32:17 13.9 C 20 %
3099 30-03-2019 19:44:17 13.9 C 20 %
3100 30-03-2019 19:56:17 13.6 C 20 %
Sensor: Nr:Datum:Temp:Feuchte:
Aussen-T/F 3101 30-03-2019 20:08:17 13.2 C 20 %
3102 30-03-2019 20:20:18 12.9 C 20 %
3103 30-03-2019 20:32:17 13 C 20 %
3104 30-03-2019 20:44:17 13 C 20 %
3105 30-03-2019 20:56:17 11.4 C 20 %
3106 30-03-2019 21:08:18 11 C 20 %
3107 30-03-2019 21:20:17 11.1 C 20 %
3108 30-03-2019 21:32:17 11.2 C 20 %
3109 30-03-2019 21:44:17 11.2 C 20 %
3110 30-03-2019 21:56:17 10.4 C 20 %
3111 30-03-2019 22:08:17 10.3 C 20 %
3112 30-03-2019 22:20:18 10.1 C 22 %
3113 30-03-2019 22:32:17 9.9 C 25 %
3114 30-03-2019 22:44:17 10 C 23 %
3115 30-03-2019 22:56:18 10 C 23 %
3116 30-03-2019 23:08:17 10.1 C 23 %
3117 30-03-2019 23:20:17 10.2 C 23 %
3118 30-03-2019 23:32:17 10.1 C 23 %
3119 30-03-2019 23:44:18 9.6 C 25 %
3120 30-03-2019 23:56:17 9.2 C 25 %
3121 31-03-2019 00:08:18 9.2 C 25 %
3122 31-03-2019 00:20:17 8.7 C 26 %
3123 31-03-2019 00:32:18 7.9 C 26 %
3124 31-03-2019 00:44:18 7.3 C 28 %
3125 31-03-2019 00:56:17 7.3 C 30 %
Sensor: Nr:Datum:Temp:Feuchte:
Aussen-T/F 3126 31-03-2019 01:08:17 7.6 C 31 %
3127 31-03-2019 01:20:18 7.6 C 31 %
3128 31-03-2019 01:32:17 7.3 C 31 %
3129 31-03-2019 01:44:17 6.8 C 31 %
3130 31-03-2019 01:56:17 6.3 C 32 %
3131 31-03-2019 02:08:17 6 C 33 %
3132 31-03-2019 02:20:17 6.7 C 35 %
3133 31-03-2019 02:32:17 6.1 C 33 %
3134 31-03-2019 02:44:18 5.8 C 35 %
3135 31-03-2019 02:56:17 5.6 C 36 %
3136 31-03-2019 04:08:18 5.3 C 36 %
3137 31-03-2019 04:20:17 5.2 C 37 %
3138 31-03-2019 04:32:17 5.2 C 37 %
3139 31-03-2019 04:44:18 4.9 C 38 %
3140 31-03-2019 04:56:17 4.2 C 39 %
3141 31-03-2019 05:08:17 4.2 C 40 %
3142 31-03-2019 05:20:17 3.9 C 42 %
3143 31-03-2019 05:32:17 3.9 C 45 %
3144 31-03-2019 05:44:17 3.8 C 45 %
3145 31-03-2019 05:56:17 4.1 C 46 %
3146 31-03-2019 06:08:18 4 C 45 %
3147 31-03-2019 06:20:17 3.5 C 45 %
3148 31-03-2019 06:32:17 3.9 C 47 %
3149 31-03-2019 06:44:17 3.8 C 47 %
3150 31-03-2019 06:56:17 3.9 C 47 %
Sensor: Nr:Datum:Temp:Feuchte:
Aussen-T/F 3151 31-03-2019 07:08:17 4.1 C 47 %
3152 31-03-2019 07:20:18 4.3 C 46 %
3153 31-03-2019 07:32:17 3.9 C 45 %
3154 31-03-2019 07:44:17 3.5 C 45 %
3155 31-03-2019 07:56:17 3.7 C 47 %
3156 31-03-2019 08:08:17 3.7 C 47 %
3157 31-03-2019 08:20:17 3.7 C 47 %
3158 31-03-2019 08:32:17 3.9 C 48 %
3159 31-03-2019 08:44:17 3.9 C 48 %
3160 31-03-2019 08:56:17 4.2 C 48 %
3161 31-03-2019 09:08:17 4.5 C 48 %
3162 31-03-2019 09:20:17 4.8 C 48 %
3163 31-03-2019 09:32:17 5.1 C 47 %
3164 31-03-2019 09:44:17 5.6 C 47 %
3165 31-03-2019 09:56:17 5.9 C 47 %
3166 31-03-2019 10:08:17 6.9 C 46 %
3167 31-03-2019 10:20:17 7.6 C 41 %
3168 31-03-2019 10:32:17 8.2 C 38 %
3169 31-03-2019 10:44:17 9 C 36 %
3170 31-03-2019 10:56:17 10.4 C 31 %
3171 31-03-2019 11:08:17 11.5 C 27 %
3172 31-03-2019 11:20:17 11.6 C 26 %
3173 31-03-2019 11:32:17 14.8 C 20 %
3174 31-03-2019 11:44:17 16 C 20 %
3175 31-03-2019 11:56:17 15.9 C 20 %
Sensor: Nr:Datum:Temp:Feuchte:
Aussen-T/F 3176 31-03-2019 12:08:17 15.8 C 20 %
3177 31-03-2019 12:20:17 17.7 C 20 %
3178 31-03-2019 12:32:18 17.1 C 20 %
3179 31-03-2019 12:44:18 18 C 20 %
3180 31-03-2019 12:56:17 16.6 C 20 %
3181 31-03-2019 13:08:17 16.2 C 20 %
3182 31-03-2019 13:20:17 16.3 C 20 %
3183 31-03-2019 13:32:17 16.6 C 20 %
3184 31-03-2019 13:44:17 17.1 C 20 %
3185 31-03-2019 13:56:17 17.4 C 20 %
3186 31-03-2019 14:08:18 17.9 C 20 %
3187 31-03-2019 14:20:17 18.2 C 20 %
3188 31-03-2019 14:32:17 18.3 C 20 %
3189 31-03-2019 14:44:17 18.9 C 20 %
3190 31-03-2019 14:56:17 19.4 C 20 %
3191 31-03-2019 15:08:17 20.6 C 20 %
3192 31-03-2019 15:20:17 20.9 C 20 %
3193 31-03-2019 15:32:17 18.5 C 20 %
3194 31-03-2019 15:44:18 18.1 C 20 %
3195 31-03-2019 15:56:17 17.7 C 20 %
3196 31-03-2019 16:08:17 17.5 C 20 %
3197 31-03-2019 16:20:17 14.7 C 22 %
3198 31-03-2019 16:32:17 14.5 C 28 %
3199 31-03-2019 16:44:17 13.5 C 35 %
3200 31-03-2019 16:56:18 13.5 C 35 %
Sensor: Nr:Datum:Temp:Feuchte:
Aussen-T/F 3201 31-03-2019 17:08:17 12.7 C 40 %
3202 31-03-2019 17:20:17 13.3 C 43 %
3203 31-03-2019 17:32:17 14.5 C 40 %
3204 31-03-2019 17:44:17 15.2 C 32 %
3205 31-03-2019 17:56:18 15.7 C 23 %
3206 31-03-2019 18:08:17 15.5 C 20 %
3207 31-03-2019 18:20:17 15.8 C 21 %
3208 31-03-2019 18:32:17 15.3 C 20 %
3209 31-03-2019 18:44:17 15.9 C 20 %
3210 31-03-2019 18:56:17 14.8 C 20 %
3211 31-03-2019 19:08:17 13.2 C 22 %
3212 31-03-2019 19:20:17 12.6 C 26 %
3213 31-03-2019 19:32:17 11.7 C 31 %
3214 31-03-2019 19:44:17 10.7 C 35 %
3215 31-03-2019 19:56:18 10.2 C 36 %
3216 31-03-2019 20:08:17 9.8 C 39 %
3217 31-03-2019 20:20:18 9.7 C 38 %
3218 31-03-2019 20:32:17 9.3 C 38 %
3219 31-03-2019 20:44:17 9 C 39 %
3220 31-03-2019 20:56:17 8.7 C 40 %
3221 31-03-2019 21:08:17 8.5 C 41 %
3222 31-03-2019 21:20:17 8.3 C 41 %
3223 31-03-2019 21:32:17 8.3 C 40 %
3224 31-03-2019 21:44:17 8 C 40 %
3225 31-03-2019 21:56:18 7.9 C 39 %
Sensor: Nr:Datum:Temp:Feuchte:
Aussen-T/F 3226 31-03-2019 22:08:17 7.5 C 40 %
3227 31-03-2019 22:20:18 7.4 C 41 %
3228 31-03-2019 22:32:17 7.1 C 41 %
3229 31-03-2019 22:44:17 6.9 C 41 %
3230 31-03-2019 22:56:17 6.8 C 42 %
3231 31-03-2019 23:08:17 6.6 C 43 %
3232 31-03-2019 23:20:17 6.7 C 41 %
3233 31-03-2019 23:32:17 6.3 C 42 %
3234 31-03-2019 23:44:17 6.1 C 42 %
3235 31-03-2019 23:56:17 5.9 C 43 %
3236 01-04-2019 00:08:17 5.8 C 44 %
3237 01-04-2019 00:20:17 5.7 C 44 %
3238 01-04-2019 00:32:17 5.6 C 43 %
3239 01-04-2019 00:44:17 5.4 C 42 %
3240 01-04-2019 00:56:17 5.2 C 43 %
3241 01-04-2019 01:08:18 5.1 C 44 %
3242 01-04-2019 01:20:17 4.9 C 45 %
3243 01-04-2019 01:32:17 4.7 C 46 %
3244 01-04-2019 01:44:18 4.7 C 45 %
3245 01-04-2019 01:56:18 4.7 C 46 %
3246 01-04-2019 02:08:17 4.7 C 45 %
3247 01-04-2019 02:20:17 4.4 C 45 %
3248 01-04-2019 02:32:17 4.1 C 46 %
3249 01-04-2019 02:44:17 3.8 C 47 %
3250 01-04-2019 02:56:17 3.8 C 49 %
Sensor: Nr:Datum:Temp:Feuchte:
Aussen-T/F 3251 01-04-2019 03:08:18 3.7 C 49 %
3252 01-04-2019 03:20:17 3.8 C 50 %
3253 01-04-2019 03:32:17 3.6 C 48 %
3254 01-04-2019 03:44:17 3.5 C 48 %
3255 01-04-2019 03:56:17 3.2 C 49 %
3256 01-04-2019 04:08:17 3.3 C 50 %
3257 01-04-2019 04:20:17 3.2 C 50 %
3258 01-04-2019 04:32:18 3.4 C 50 %
3259 01-04-2019 04:44:18 3.4 C 50 %
3260 01-04-2019 04:56:17 3.3 C 49 %
3261 01-04-2019 05:08:17 3.2 C 49 %
3262 01-04-2019 05:20:17 3.1 C 49 %
3263 01-04-2019 05:32:18 2.8 C 50 %
3264 01-04-2019 05:44:18 2.7 C 50 %
3265 01-04-2019 05:56:17 2.8 C 51 %
3266 01-04-2019 06:08:17 2.7 C 51 %
3267 01-04-2019 06:20:17 2.5 C 50 %
3268 01-04-2019 06:32:17 2.2 C 50 %
3269 01-04-2019 06:44:17 2.1 C 51 %
3270 01-04-2019 06:57:17 2.2 C 52 %
3271 01-04-2019 07:08:17 2.3 C 52 %
3272 01-04-2019 07:20:17 2.3 C 51 %
3273 01-04-2019 07:32:17 2 C 51 %
3274 01-04-2019 07:44:17 2 C 51 %
3275 01-04-2019 07:56:18 2 C 52 %
Sensor: Nr:Datum:Temp:Feuchte:
Aussen-T/F 3276 01-04-2019 08:08:17 2.1 C 52 %
3277 01-04-2019 08:20:17 2.3 C 53 %
3278 01-04-2019 08:32:17 2.4 C 53 %
3279 01-04-2019 08:44:17 2.5 C 53 %
3280 01-04-2019 08:56:18 2.7 C 53 %
3281 01-04-2019 09:08:17 3.5 C 51 %
3282 01-04-2019 09:20:17 3.7 C 49 %
3283 01-04-2019 09:44:17 4.1 C 45 %
3284 01-04-2019 09:44:17 4.4 C 41 %
3285 01-04-2019 09:56:17 4.7 C 41 %
3286 01-04-2019 10:09:17 5.6 C 32 %
3287 01-04-2019 10:20:17 6.2 C 29 %
3288 01-04-2019 10:32:18 7.2 C 21 %
3289 01-04-2019 10:44:18 7.5 C 25 %
3290 01-04-2019 10:56:17 9 C 20 %
3291 01-04-2019 11:08:18 9.3 C 20 %
3292 01-04-2019 11:21:17 10 C 20 %
3293 01-04-2019 11:32:18 10.5 C 20 %
3294 01-04-2019 11:44:18 10.7 C 20 %
3295 01-04-2019 11:56:17 11.3 C 20 %
3296 01-04-2019 12:08:18 11.9 C 20 %
3297 01-04-2019 12:21:17 12.2 C 20 %
3298 01-04-2019 12:32:17 12.6 C 20 %
3299 01-04-2019 12:44:17 14.1 C 20 %
3300 01-04-2019 12:56:17 12.2 C 20 %
Sensor: Nr:Datum:Temp:Feuchte:
Aussen-T/F 3301 01-04-2019 13:09:17 12 C 20 %
3302 01-04-2019 13:20:17 12.5 C 20 %
3303 01-04-2019 13:44:17 12.8 C 20 %
3304 01-04-2019 13:44:18 13.3 C 20 %
3305 01-04-2019 13:56:18 13.8 C 20 %
3306 01-04-2019 14:09:17 14.2 C 20 %
3307 01-04-2019 14:20:17 14.7 C 20 %
3308 01-04-2019 14:33:17 14.8 C 20 %
3309 01-04-2019 14:45:17 15 C 20 %
3310 01-04-2019 14:57:17 15.7 C 20 %
3311 01-04-2019 15:08:17 15.7 C 20 %
3312 01-04-2019 15:21:17 16.2 C 20 %
3313 01-04-2019 15:44:17 16.8 C 20 %
3314 01-04-2019 15:44:18 16.8 C 20 %
3315 01-04-2019 15:56:18 17.1 C 20 %
3316 01-04-2019 16:09:17 17.2 C 20 %
3317 01-04-2019 16:20:18 18.1 C 20 %
3318 01-04-2019 16:33:17 18.2 C 20 %
3319 01-04-2019 16:45:17 18.2 C 20 %
3320 01-04-2019 16:56:17 17.9 C 20 %
3321 01-04-2019 17:09:17 18 C 20 %
3322 01-04-2019 17:21:17 18.3 C 20 %
3323 01-04-2019 17:33:17 18.1 C 20 %
3324 01-04-2019 17:45:17 18.2 C 20 %
3325 01-04-2019 17:56:17 17.9 C 20 %
Sensor: Nr:Datum:Temp:Feuchte:
Aussen-T/F 3326 01-04-2019 18:09:17 18.3 C 20 %
3327 01-04-2019 18:21:17 18 C 20 %
3328 01-04-2019 18:33:17 18.3 C 20 %
3329 01-04-2019 18:45:17 18.3 C 20 %
3330 01-04-2019 18:57:17 18.8 C 20 %
3331 01-04-2019 19:08:17 16.9 C 20 %
3332 01-04-2019 19:21:17 15.6 C 20 %
3333 01-04-2019 19:33:17 14.2 C 20 %
3334 01-04-2019 19:44:18 13.2 C 20 %
3335 01-04-2019 19:56:18 12.1 C 20 %
3336 01-04-2019 20:09:17 11.6 C 20 %
3337 01-04-2019 20:21:17 11.1 C 20 %
3338 01-04-2019 20:33:17 10.8 C 20 %
3339 01-04-2019 20:45:17 10.3 C 20 %
3340 01-04-2019 20:57:18 10 C 20 %
3341 01-04-2019 21:09:17 9.8 C 20 %
3342 01-04-2019 21:21:17 9.7 C 20 %
3343 01-04-2019 21:33:17 9.3 C 21 %
3344 01-04-2019 21:45:17 9.2 C 23 %
3345 01-04-2019 21:57:17 9 C 25 %
3346 01-04-2019 22:09:17 8.6 C 25 %
3347 01-04-2019 22:21:17 8.7 C 25 %
3348 01-04-2019 22:33:17 8.4 C 25 %
3349 01-04-2019 22:45:17 8.4 C 25 %
3350 01-04-2019 22:57:17 8.4 C 25 %
Sensor: Nr:Datum:Temp:Feuchte:
Aussen-T/F 3351 01-04-2019 23:09:17 8.1 C 25 %
3352 01-04-2019 23:21:17 8 C 25 %
3353 01-04-2019 23:33:17 7.6 C 26 %
3354 01-04-2019 23:45:17 7.4 C 27 %
3355 01-04-2019 23:57:17 7.5 C 27 %
3356 02-04-2019 00:09:17 7.5 C 27 %
3357 02-04-2019 00:21:17 6.9 C 31 %
3358 02-04-2019 00:33:17 6.8 C 30 %
3359 02-04-2019 00:45:17 6.6 C 31 %
3360 02-04-2019 00:57:17 6.2 C 32 %
3361 02-04-2019 01:09:17 5.7 C 35 %
3362 02-04-2019 01:21:17 5.6 C 36 %
3363 02-04-2019 01:33:18 5.5 C 36 %
3364 02-04-2019 01:45:17 5.4 C 36 %
3365 02-04-2019 01:57:17 5.4 C 37 %
3366 02-04-2019 02:09:17 5.3 C 37 %
3367 02-04-2019 02:21:17 5.1 C 38 %
3368 02-04-2019 02:33:17 5.1 C 38 %
3369 02-04-2019 02:45:17 4.8 C 39 %
3370 02-04-2019 02:57:17 4.5 C 40 %
3371 02-04-2019 03:09:17 4.1 C 40 %
3372 02-04-2019 03:21:17 4 C 42 %
3373 02-04-2019 03:33:17 3.7 C 44 %
3374 02-04-2019 03:45:17 3.5 C 45 %
3375 02-04-2019 03:57:17 3.6 C 46 %
Sensor: Nr:Datum:Temp:Feuchte:
Aussen-T/F 3376 02-04-2019 04:09:17 3.5 C 47 %
3377 02-04-2019 04:21:17 3.3 C 47 %
3378 02-04-2019 04:33:17 3.2 C 47 %
3379 02-04-2019 04:45:18 3.2 C 48 %
3380 02-04-2019 04:57:18 3 C 48 %
3381 02-04-2019 05:09:17 3.1 C 49 %
3382 02-04-2019 05:21:17 3.1 C 49 %
3383 02-04-2019 05:33:17 2.8 C 50 %
3384 02-04-2019 05:45:17 2.8 C 50 %
3385 02-04-2019 05:57:17 2.7 C 51 %
3386 02-04-2019 06:09:17 3.1 C 51 %
3387 02-04-2019 06:21:17 3 C 50 %
3388 02-04-2019 06:33:17 3 C 50 %
3389 02-04-2019 06:45:17 2.9 C 50 %
3390 02-04-2019 06:57:17 2.8 C 51 %
3391 02-04-2019 07:09:17 2.8 C 51 %
3392 02-04-2019 07:21:17 3.1 C 51 %
3393 02-04-2019 07:33:17 3.4 C 52 %
3394 02-04-2019 07:45:17 3.8 C 52 %
3395 02-04-2019 07:57:17 4 C 50 %
3396 02-04-2019 08:09:18 4.3 C 49 %
3397 02-04-2019 08:21:17 4.9 C 48 %
3398 02-04-2019 08:33:17 5.5 C 44 %
3399 02-04-2019 08:45:18 5.7 C 38 %
3400 02-04-2019 08:57:18 5.9 C 37 %
Sensor: Nr:Datum:Temp:Feuchte:
Aussen-T/F 3401 02-04-2019 09:09:17 6.5 C 35 %
3402 02-04-2019 09:21:17 7 C 31 %
3403 02-04-2019 09:33:17 7.5 C 30 %
3404 02-04-2019 09:45:17 7.8 C 29 %
3405 02-04-2019 09:57:17 8.1 C 26 %
3406 02-04-2019 10:09:17 8.1 C 26 %
3407 02-04-2019 10:21:18 9 C 23 %
3408 02-04-2019 10:33:17 9.9 C 21 %
3409 02-04-2019 10:45:17 10.4 C 20 %
3410 02-04-2019 10:57:17 11.4 C 20 %
3411 02-04-2019 11:09:18 12.5 C 20 %
3412 02-04-2019 11:21:17 13 C 20 %
3413 02-04-2019 11:33:18 13.4 C 20 %
3414 02-04-2019 11:45:17 14.7 C 20 %
3415 02-04-2019 11:57:17 15.4 C 20 %
3416 02-04-2019 12:09:18 15.6 C 20 %
3417 02-04-2019 12:21:17 16.1 C 20 %
3418 02-04-2019 12:33:17 16.6 C 20 %
3419 02-04-2019 12:45:17 16.8 C 20 %
3420 02-04-2019 12:57:17 17.4 C 20 %
3421 02-04-2019 13:09:17 17.4 C 20 %
3422 02-04-2019 13:21:17 17.5 C 20 %
3423 02-04-2019 13:33:17 17.6 C 20 %
3424 02-04-2019 13:45:17 17.7 C 20 %
3425 02-04-2019 13:57:17 18.6 C 20 %
Sensor: Nr:Datum:Temp:Feuchte:
Aussen-T/F 3426 02-04-2019 14:09:18 18.9 C 20 %
3427 02-04-2019 14:21:17 19.1 C 20 %
3428 02-04-2019 14:33:17 19 C 20 %
3429 02-04-2019 14:45:18 18.2 C 20 %
3430 02-04-2019 14:57:18 17.4 C 20 %
3431 02-04-2019 15:09:17 14.5 C 20 %
3432 02-04-2019 15:21:17 15.4 C 20 %
3433 02-04-2019 15:33:17 17.2 C 20 %
3434 02-04-2019 15:45:17 18.6 C 20 %
3435 02-04-2019 15:57:17 18.5 C 20 %
3436 02-04-2019 16:09:17 18.3 C 20 %
3437 02-04-2019 16:21:17 18.6 C 20 %
3438 02-04-2019 16:33:17 17.6 C 20 %
3439 02-04-2019 16:45:17 16.8 C 20 %
3440 02-04-2019 16:57:17 14.7 C 20 %
3441 02-04-2019 17:09:17 15.9 C 20 %
3442 02-04-2019 17:21:17 16.5 C 20 %
3443 02-04-2019 17:33:17 16.8 C 20 %
3444 02-04-2019 17:45:17 17 C 20 %
3445 02-04-2019 17:57:17 16.6 C 20 %
3446 02-04-2019 18:09:17 16.3 C 20 %
3447 02-04-2019 18:21:17 16.1 C 20 %
3448 02-04-2019 18:33:17 16 C 20 %
3449 02-04-2019 18:45:17 16 C 20 %
3450 02-04-2019 18:57:17 16 C 20 %
Sensor: Nr:Datum:Temp:Feuchte:
Aussen-T/F 3451 02-04-2019 19:09:17 15.6 C 20 %
3452 02-04-2019 19:21:17 15.1 C 20 %
3453 02-04-2019 19:33:17 15.1 C 20 %
3454 02-04-2019 19:45:17 14.4 C 20 %
3455 02-04-2019 19:57:17 14 C 20 %
3456 02-04-2019 20:09:17 13.4 C 20 %
3457 02-04-2019 20:21:17 13.3 C 20 %
3458 02-04-2019 20:33:17 13.2 C 20 %
3459 02-04-2019 20:45:17 13.3 C 20 %
3460 02-04-2019 20:57:17 13.1 C 20 %
3461 02-04-2019 21:09:17 13.1 C 20 %
3462 02-04-2019 21:21:17 13.2 C 20 %
3463 02-04-2019 21:33:17 13.2 C 20 %
3464 02-04-2019 21:45:17 13 C 20 %
3465 02-04-2019 21:57:17 12.8 C 20 %
3466 02-04-2019 22:09:17 12.5 C 20 %
3467 02-04-2019 22:21:17 12.5 C 20 %
3468 02-04-2019 22:33:17 12.1 C 20 %
3469 02-04-2019 22:45:17 11.5 C 20 %
3470 02-04-2019 22:57:17 11.5 C 20 %
3471 02-04-2019 23:09:17 11.1 C 20 %
3472 02-04-2019 23:21:17 11 C 20 %
3473 02-04-2019 23:33:17 10.8 C 20 %
3474 02-04-2019 23:45:17 10.3 C 20 %
3475 02-04-2019 23:57:17 9.8 C 26 %
Sensor: Nr:Datum:Temp:Feuchte:
G-T/H 1 05-03-2019 00:06:17 10.1 C 70 %
2 05-03-2019 00:18:18 10.1 C 70 %
3 05-03-2019 00:30:18 10.1 C 70 %
4 05-03-2019 00:42:18 10 C 70 %
5 05-03-2019 00:54:18 10 C 70 %
6 05-03-2019 01:06:18 10 C 70 %
7 05-03-2019 01:18:18 10 C 69 %
8 05-03-2019 01:30:18 10 C 69 %
9 05-03-2019 01:42:18 10 C 69 %
10 05-03-2019 01:54:17 10 C 69 %
11 05-03-2019 02:06:17 9.9 C 70 %
12 05-03-2019 02:18:17 9.9 C 70 %
13 05-03-2019 02:30:17 9.9 C 70 %
14 05-03-2019 02:42:17 9.9 C 70 %
15 05-03-2019 02:54:17 9.8 C 70 %
16 05-03-2019 03:06:17 9.8 C 70 %
17 05-03-2019 03:18:17 9.8 C 70 %
18 05-03-2019 03:30:17 9.9 C 70 %
19 05-03-2019 03:42:17 9.8 C 69 %
20 05-03-2019 03:54:17 9.8 C 69 %
21 05-03-2019 04:06:17 9.8 C 69 %
22 05-03-2019 04:18:17 9.8 C 69 %
23 05-03-2019 04:30:17 9.8 C 69 %
24 05-03-2019 04:42:17 9.8 C 70 %
25 05-03-2019 04:54:17 9.8 C 70 %
Sensor: Nr:Datum:Temp:Feuchte:
G-T/H 26 05-03-2019 05:06:17 9.8 C 70 %
27 05-03-2019 05:18:18 9.8 C 70 %
28 05-03-2019 05:30:18 9.8 C 70 %
29 05-03-2019 05:42:18 9.8 C 70 %
30 05-03-2019 05:54:18 9.8 C 71 %
31 05-03-2019 06:06:17 9.8 C 71 %
32 05-03-2019 06:18:17 9.8 C 71 %
33 05-03-2019 06:30:17 9.7 C 71 %
34 05-03-2019 06:42:18 9.7 C 71 %
35 05-03-2019 06:54:18 9.7 C 71 %
36 05-03-2019 07:06:18 9.7 C 71 %
37 05-03-2019 07:18:17 9.7 C 71 %
38 05-03-2019 07:30:17 9.7 C 71 %
39 05-03-2019 07:42:17 9.7 C 71 %
40 05-03-2019 07:54:17 9.7 C 71 %
41 05-03-2019 08:06:18 9.7 C 71 %
42 05-03-2019 08:18:17 9.7 C 71 %
43 05-03-2019 08:30:17 9.7 C 71 %
44 05-03-2019 08:42:17 9.7 C 71 %
45 05-03-2019 08:54:17 9.7 C 71 %
46 05-03-2019 09:06:17 9.7 C 71 %
47 05-03-2019 09:18:17 9.7 C 71 %
48 05-03-2019 09:30:17 9.7 C 71 %
49 05-03-2019 09:42:17 9.6 C 72 %
50 05-03-2019 09:54:17 9.7 C 72 %
Sensor: Nr:Datum:Temp:Feuchte:
G-T/H 51 05-03-2019 10:06:18 9.6 C 72 %
52 05-03-2019 10:18:17 9.6 C 72 %
53 05-03-2019 10:30:18 9.6 C 72 %
54 05-03-2019 10:42:18 9.6 C 72 %
55 05-03-2019 10:54:17 9.6 C 72 %
56 05-03-2019 11:06:17 9.6 C 72 %
57 05-03-2019 11:18:17 9.6 C 72 %
58 05-03-2019 11:30:17 9.6 C 72 %
59 05-03-2019 11:42:17 9.6 C 72 %
60 05-03-2019 11:54:17 9.6 C 72 %
61 05-03-2019 12:06:17 9.6 C 72 %
62 05-03-2019 12:18:17 9.6 C 72 %
63 05-03-2019 12:30:18 9.6 C 72 %
64 05-03-2019 12:42:18 9.6 C 72 %
65 05-03-2019 12:54:17 9.6 C 72 %
66 05-03-2019 13:06:17 9.6 C 72 %
67 05-03-2019 13:18:17 9.6 C 72 %
68 05-03-2019 13:30:17 9.6 C 72 %
69 05-03-2019 13:42:17 9.6 C 72 %
70 05-03-2019 13:54:17 9.6 C 72 %
71 05-03-2019 14:06:17 9.6 C 72 %
72 05-03-2019 14:18:17 9.6 C 72 %
73 05-03-2019 14:30:17 9.6 C 72 %
74 05-03-2019 14:42:17 9.6 C 72 %
75 05-03-2019 14:54:17 9.6 C 72 %
Sensor: Nr:Datum:Temp:Feuchte:
G-T/H 76 05-03-2019 15:06:18 9.6 C 72 %
77 05-03-2019 15:18:17 9.6 C 72 %
78 05-03-2019 15:30:17 9.6 C 72 %
79 05-03-2019 15:42:17 9.6 C 72 %
80 05-03-2019 15:54:18 9.7 C 72 %
81 05-03-2019 16:06:17 9.7 C 72 %
82 05-03-2019 16:18:16 9.6 C 73 %
83 05-03-2019 16:30:17 9.6 C 73 %
84 05-03-2019 16:42:17 9.7 C 73 %
85 05-03-2019 16:54:17 9.6 C 73 %
86 05-03-2019 17:06:18 9.7 C 73 %
87 05-03-2019 17:18:17 9.7 C 73 %
88 05-03-2019 17:30:17 9.7 C 73 %
89 05-03-2019 17:42:17 9.6 C 73 %
90 05-03-2019 17:54:17 9.7 C 73 %
91 05-03-2019 18:06:18 9.7 C 73 %
92 05-03-2019 18:18:17 9.7 C 73 %
93 05-03-2019 18:30:17 9.7 C 73 %
94 05-03-2019 18:42:17 9.7 C 73 %
95 05-03-2019 18:54:17 9.7 C 73 %
96 05-03-2019 19:06:17 9.7 C 73 %
97 05-03-2019 19:18:17 9.7 C 73 %
98 05-03-2019 19:30:17 9.7 C 73 %
99 05-03-2019 19:42:17 9.7 C 73 %
100 05-03-2019 19:54:17 9.7 C 73 %
Sensor: Nr:Datum:Temp:Feuchte:
G-T/H 101 05-03-2019 20:06:18 9.7 C 73 %
102 05-03-2019 20:18:17 9.7 C 73 %
103 05-03-2019 20:30:17 9.7 C 73 %
104 05-03-2019 20:42:17 9.7 C 73 %
105 05-03-2019 20:54:17 9.7 C 73 %
106 05-03-2019 21:06:17 9.7 C 73 %
107 05-03-2019 21:18:17 9.7 C 73 %
108 05-03-2019 21:30:17 9.6 C 73 %
109 05-03-2019 21:42:17 9.6 C 73 %
110 05-03-2019 21:54:18 9.6 C 73 %
111 05-03-2019 22:06:17 9.6 C 73 %
112 05-03-2019 22:18:17 9.6 C 73 %
113 05-03-2019 22:30:18 9.6 C 73 %
114 05-03-2019 22:42:18 9.6 C 73 %
115 05-03-2019 22:54:17 9.6 C 73 %
116 05-03-2019 23:06:17 9.6 C 73 %
117 05-03-2019 23:18:18 9.6 C 73 %
118 05-03-2019 23:30:17 9.6 C 73 %
119 05-03-2019 23:42:17 9.6 C 73 %
120 05-03-2019 23:54:17 9.5 C 73 %
121 06-03-2019 00:06:18 9.5 C 73 %
122 06-03-2019 00:18:17 9.5 C 73 %
123 06-03-2019 00:30:17 9.5 C 73 %
124 06-03-2019 00:42:17 9.5 C 73 %
125 06-03-2019 00:54:17 9.5 C 73 %
Sensor: Nr:Datum:Temp:Feuchte:
G-T/H 126 06-03-2019 01:06:18 9.5 C 73 %
127 06-03-2019 01:18:17 9.5 C 73 %
128 06-03-2019 01:30:17 9.5 C 73 %
129 06-03-2019 01:42:17 9.5 C 73 %
130 06-03-2019 01:54:17 9.5 C 73 %
131 06-03-2019 02:06:17 9.5 C 73 %
132 06-03-2019 02:18:17 9.5 C 73 %
133 06-03-2019 02:30:17 9.5 C 73 %
134 06-03-2019 02:42:17 9.5 C 73 %
135 06-03-2019 02:54:17 9.5 C 73 %
136 06-03-2019 03:06:18 9.5 C 73 %
137 06-03-2019 03:18:17 9.5 C 73 %
138 06-03-2019 03:30:17 9.5 C 73 %
139 06-03-2019 03:42:17 9.5 C 73 %
140 06-03-2019 03:54:17 9.5 C 73 %
141 06-03-2019 04:06:18 9.4 C 73 %
142 06-03-2019 04:18:17 9.5 C 73 %
143 06-03-2019 04:30:17 9.4 C 73 %
144 06-03-2019 04:42:17 9.4 C 73 %
145 06-03-2019 04:54:17 9.4 C 73 %
146 06-03-2019 05:06:17 9.4 C 73 %
147 06-03-2019 05:18:17 9.4 C 73 %
148 06-03-2019 05:30:17 9.4 C 73 %
149 06-03-2019 05:42:17 9.4 C 73 %
150 06-03-2019 05:54:17 9.4 C 73 %
Sensor: Nr:Datum:Temp:Feuchte:
G-T/H 151 06-03-2019 06:06:17 9.4 C 73 %
152 06-03-2019 06:18:17 9.4 C 73 %
153 06-03-2019 06:30:18 9.4 C 73 %
154 06-03-2019 06:42:18 9.4 C 73 %
155 06-03-2019 06:54:17 9.4 C 73 %
156 06-03-2019 07:06:17 9.4 C 73 %
157 06-03-2019 07:18:17 9.4 C 73 %
158 06-03-2019 07:30:17 9.3 C 73 %
159 06-03-2019 07:42:17 9.3 C 73 %
160 06-03-2019 07:54:17 9.3 C 73 %
161 06-03-2019 08:06:17 9.3 C 73 %
162 06-03-2019 08:18:17 9.4 C 73 %
163 06-03-2019 08:30:17 9.3 C 73 %
164 06-03-2019 08:42:17 9.3 C 73 %
165 06-03-2019 08:54:17 9.3 C 73 %
166 06-03-2019 09:06:17 9.3 C 73 %
167 06-03-2019 09:18:17 9.3 C 73 %
168 06-03-2019 09:30:17 9.3 C 73 %
169 06-03-2019 09:42:17 9.4 C 73 %
170 06-03-2019 09:54:17 9.3 C 73 %
171 06-03-2019 10:06:17 9.3 C 73 %
172 06-03-2019 10:18:17 9.4 C 73 %
173 06-03-2019 10:30:17 9.3 C 73 %
174 06-03-2019 10:42:17 9.3 C 74 %
175 06-03-2019 10:54:17 9.3 C 74 %
Sensor: Nr:Datum:Temp:Feuchte:
G-T/H 176 06-03-2019 11:06:17 9.4 C 74 %
177 06-03-2019 11:18:18 9.4 C 74 %
178 06-03-2019 11:30:17 9.4 C 74 %
179 06-03-2019 11:42:17 9.4 C 74 %
180 06-03-2019 11:54:17 9.4 C 74 %
181 06-03-2019 12:06:18 9.5 C 74 %
182 06-03-2019 12:18:17 9.5 C 74 %
183 06-03-2019 12:30:17 9.5 C 74 %
184 06-03-2019 12:42:17 9.5 C 74 %
185 06-03-2019 12:54:17 9.5 C 74 %
186 06-03-2019 13:06:18 9.5 C 74 %
187 06-03-2019 13:18:17 9.6 C 74 %
188 06-03-2019 13:30:17 9.6 C 74 %
189 06-03-2019 13:42:17 9.6 C 74 %
190 06-03-2019 13:54:17 9.6 C 74 %
191 06-03-2019 14:06:18 9.7 C 74 %
192 06-03-2019 14:18:17 9.7 C 74 %
193 06-03-2019 14:30:17 9.7 C 74 %
194 06-03-2019 14:42:17 9.7 C 74 %
195 06-03-2019 14:54:17 9.8 C 74 %
196 06-03-2019 15:06:17 9.7 C 74 %
197 06-03-2019 15:18:17 9.8 C 74 %
198 06-03-2019 15:30:17 9.8 C 74 %
199 06-03-2019 15:42:17 9.8 C 74 %
200 06-03-2019 15:54:17 9.9 C 74 %
Sensor: Nr:Datum:Temp:Feuchte:
G-T/H 201 06-03-2019 16:06:17 9.9 C 74 %
202 06-03-2019 16:18:17 9.9 C 74 %
203 06-03-2019 16:30:17 9.9 C 74 %
204 06-03-2019 16:42:17 10 C 73 %
205 06-03-2019 16:54:17 10 C 73 %
206 06-03-2019 17:06:17 10 C 73 %
207 06-03-2019 17:18:17 10 C 73 %
208 06-03-2019 17:30:17 10.1 C 73 %
209 06-03-2019 17:42:17 10 C 73 %
210 06-03-2019 17:54:17 10.1 C 73 %
211 06-03-2019 18:06:17 10.1 C 73 %
212 06-03-2019 18:18:17 10.1 C 73 %
213 06-03-2019 18:30:17 10.1 C 73 %
214 06-03-2019 18:42:17 10.1 C 73 %
215 06-03-2019 18:54:17 10.2 C 73 %
216 06-03-2019 19:06:17 10.2 C 73 %
217 06-03-2019 19:18:17 10.2 C 73 %
218 06-03-2019 19:30:17 10.2 C 73 %
219 06-03-2019 19:42:17 10.2 C 74 %
220 06-03-2019 19:54:17 10.2 C 74 %
221 06-03-2019 20:06:17 10.2 C 74 %
222 06-03-2019 20:18:17 10.2 C 74 %
223 06-03-2019 20:30:17 10.2 C 74 %
224 06-03-2019 20:42:17 10.2 C 74 %
225 06-03-2019 20:54:17 10.2 C 74 %
Sensor: Nr:Datum:Temp:Feuchte:
G-T/H 226 06-03-2019 21:06:17 10.3 C 74 %
227 06-03-2019 21:18:17 10.2 C 74 %
228 06-03-2019 21:30:17 10.3 C 74 %
229 06-03-2019 21:42:17 10.3 C 74 %
230 06-03-2019 21:54:17 10.3 C 74 %
231 06-03-2019 22:06:18 10.3 C 74 %
232 06-03-2019 22:18:17 10.3 C 74 %
233 06-03-2019 22:30:17 10.3 C 74 %
234 06-03-2019 22:42:17 10.4 C 74 %
235 06-03-2019 22:54:17 10.4 C 74 %
236 06-03-2019 23:06:17 10.4 C 74 %
237 06-03-2019 23:18:17 10.4 C 74 %
238 06-03-2019 23:30:17 10.4 C 74 %
239 06-03-2019 23:42:17 10.4 C 74 %
240 06-03-2019 23:54:17 10.4 C 74 %
241 07-03-2019 00:06:17 10.4 C 74 %
242 07-03-2019 00:18:17 10.4 C 74 %
243 07-03-2019 00:30:17 10.4 C 74 %
244 07-03-2019 00:42:18 10.4 C 74 %
245 07-03-2019 00:54:17 10.4 C 74 %
246 07-03-2019 01:06:17 10.4 C 74 %
247 07-03-2019 01:18:17 10.4 C 74 %
248 07-03-2019 01:30:17 10.4 C 74 %
249 07-03-2019 01:42:17 10.4 C 74 %
250 07-03-2019 01:54:17 10.4 C 74 %
Sensor: Nr:Datum:Temp:Feuchte:
G-T/H 251 07-03-2019 02:06:17 10.4 C 74 %
252 07-03-2019 02:18:17 10.4 C 74 %
253 07-03-2019 02:30:17 10.4 C 74 %
254 07-03-2019 02:42:17 10.4 C 74 %
255 07-03-2019 02:54:17 10.4 C 74 %
256 07-03-2019 03:06:17 10.4 C 74 %
257 07-03-2019 03:18:17 10.4 C 74 %
258 07-03-2019 03:30:18 10.4 C 74 %
259 07-03-2019 03:42:18 10.4 C 74 %
260 07-03-2019 03:54:17 10.4 C 74 %
261 07-03-2019 04:06:17 10.4 C 74 %
262 07-03-2019 04:18:17 10.4 C 74 %
263 07-03-2019 04:30:17 10.5 C 74 %
264 07-03-2019 04:42:17 10.4 C 74 %
265 07-03-2019 04:54:17 10.5 C 74 %
266 07-03-2019 05:06:17 10.5 C 75 %
267 07-03-2019 05:19:17 10.5 C 75 %
268 07-03-2019 05:30:17 10.5 C 75 %
269 07-03-2019 05:42:17 10.5 C 75 %
270 07-03-2019 05:54:17 10.5 C 74 %
271 07-03-2019 06:06:17 10.5 C 74 %
272 07-03-2019 06:18:17 10.5 C 74 %
273 07-03-2019 06:30:18 10.5 C 74 %
274 07-03-2019 06:42:18 10.5 C 74 %
275 07-03-2019 06:55:17 10.5 C 74 %
Sensor: Nr:Datum:Temp:Feuchte:
G-T/H 276 07-03-2019 07:06:17 10.5 C 74 %
277 07-03-2019 07:18:18 10.5 C 74 %
278 07-03-2019 07:31:17 10.5 C 74 %
279 07-03-2019 07:42:17 10.5 C 74 %
280 07-03-2019 07:54:17 10.5 C 74 %
281 07-03-2019 08:06:17 10.5 C 74 %
282 07-03-2019 08:19:17 10.5 C 74 %
283 07-03-2019 08:30:17 10.5 C 74 %
284 07-03-2019 08:42:17 10.5 C 74 %
285 07-03-2019 08:54:17 10.5 C 74 %
286 07-03-2019 09:06:17 10.5 C 74 %
287 07-03-2019 09:19:17 10.5 C 74 %
288 07-03-2019 09:30:17 10.5 C 74 %
289 07-03-2019 09:42:17 10.5 C 74 %
290 07-03-2019 09:54:17 10.5 C 74 %
291 07-03-2019 10:07:17 10.5 C 74 %
292 07-03-2019 10:19:17 10.5 C 74 %
293 07-03-2019 10:30:17 10.5 C 74 %
294 07-03-2019 10:42:17 10.5 C 74 %
295 07-03-2019 10:54:17 10.5 C 74 %
296 07-03-2019 11:07:17 10.5 C 74 %
297 07-03-2019 11:19:17 10.5 C 74 %
298 07-03-2019 11:30:17 10.5 C 74 %
299 07-03-2019 11:42:17 10.5 C 74 %
300 07-03-2019 11:55:17 10.5 C 74 %
Sensor: Nr:Datum:Temp:Feuchte:
G-T/H 301 07-03-2019 12:07:17 10.5 C 74 %
302 07-03-2019 12:18:17 10.5 C 74 %
303 07-03-2019 12:30:18 10.5 C 74 %
304 07-03-2019 12:42:18 10.5 C 74 %
305 07-03-2019 12:55:17 10.5 C 74 %
306 07-03-2019 13:07:17 10.5 C 74 %
307 07-03-2019 13:18:18 10.5 C 74 %
308 07-03-2019 13:31:17 10.6 C 74 %
309 07-03-2019 13:43:17 10.6 C 74 %
310 07-03-2019 13:55:17 10.6 C 74 %
311 07-03-2019 14:06:17 10.6 C 74 %
312 07-03-2019 14:19:17 10.5 C 74 %
313 07-03-2019 14:31:17 10.5 C 74 %
314 07-03-2019 14:43:17 10.6 C 74 %
315 07-03-2019 14:55:17 10.6 C 74 %
316 07-03-2019 15:06:17 10.6 C 74 %
317 07-03-2019 15:19:17 10.6 C 74 %
318 07-03-2019 15:31:17 10.6 C 74 %
319 07-03-2019 15:43:17 10.6 C 74 %
320 07-03-2019 15:55:17 10.6 C 74 %
321 07-03-2019 16:07:17 10.6 C 74 %
322 07-03-2019 16:19:17 10.6 C 74 %
323 07-03-2019 16:31:17 10.6 C 74 %
324 07-03-2019 16:43:17 10.6 C 74 %
325 07-03-2019 16:55:17 10.6 C 74 %
Sensor: Nr:Datum:Temp:Feuchte:
G-T/H 326 07-03-2019 17:07:18 10.6 C 74 %
327 07-03-2019 17:19:17 10.6 C 74 %
328 07-03-2019 17:31:17 10.6 C 74 %
329 07-03-2019 17:43:18 10.6 C 74 %
330 07-03-2019 17:55:17 10.6 C 74 %
331 07-03-2019 18:06:18 10.6 C 74 %
332 07-03-2019 18:19:17 10.6 C 74 %
333 07-03-2019 18:31:17 10.5 C 74 %
334 07-03-2019 18:43:17 10.5 C 74 %
335 07-03-2019 18:55:17 10.5 C 73 %
336 07-03-2019 19:07:17 10.5 C 73 %
337 07-03-2019 19:19:17 10.5 C 72 %
338 07-03-2019 19:31:17 10.5 C 72 %
339 07-03-2019 19:43:17 10.5 C 72 %
340 07-03-2019 19:55:17 10.5 C 73 %
341 07-03-2019 20:06:18 10.5 C 73 %
342 07-03-2019 20:19:17 10.5 C 73 %
343 07-03-2019 20:31:17 10.5 C 73 %
344 07-03-2019 20:43:17 10.4 C 72 %
345 07-03-2019 20:55:18 10.4 C 72 %
346 07-03-2019 21:07:17 10.4 C 72 %
347 07-03-2019 21:19:17 10.4 C 72 %
348 07-03-2019 21:31:17 10.4 C 72 %
349 07-03-2019 21:43:18 10.4 C 72 %
350 07-03-2019 21:55:17 10.4 C 72 %
Sensor: Nr:Datum:Temp:Feuchte:
G-T/H 351 07-03-2019 22:07:17 10.4 C 72 %
352 07-03-2019 22:19:18 10.4 C 72 %
353 07-03-2019 22:31:17 10.4 C 72 %
354 07-03-2019 22:43:17 10.4 C 72 %
355 07-03-2019 22:55:17 10.4 C 72 %
356 07-03-2019 23:07:17 10.4 C 72 %
357 07-03-2019 23:19:17 10.4 C 72 %
358 07-03-2019 23:31:17 10.3 C 72 %
359 07-03-2019 23:43:17 10.4 C 72 %
360 07-03-2019 23:55:18 10.3 C 72 %
361 08-03-2019 00:07:17 10.3 C 73 %
362 08-03-2019 00:19:17 10.3 C 73 %
363 08-03-2019 00:31:18 10.3 C 73 %
364 08-03-2019 00:43:18 10.3 C 73 %
365 08-03-2019 00:55:17 10.2 C 73 %
366 08-03-2019 01:07:17 10.2 C 73 %
367 08-03-2019 01:19:17 10.2 C 73 %
368 08-03-2019 01:31:17 10.2 C 73 %
369 08-03-2019 01:43:17 10.2 C 73 %
370 08-03-2019 01:55:17 10.2 C 73 %
371 08-03-2019 02:07:17 10.2 C 73 %
372 08-03-2019 02:19:17 10.2 C 73 %
373 08-03-2019 02:31:17 10.2 C 73 %
374 08-03-2019 02:43:17 10.2 C 73 %
375 08-03-2019 02:55:18 10.2 C 73 %
Sensor: Nr:Datum:Temp:Feuchte:
G-T/H 376 08-03-2019 03:07:17 10.2 C 73 %
377 08-03-2019 03:19:17 10.2 C 73 %
378 08-03-2019 03:31:17 10.2 C 73 %
379 08-03-2019 03:43:17 10.1 C 73 %
380 08-03-2019 03:55:17 10.1 C 73 %
381 08-03-2019 04:07:17 10.1 C 73 %
382 08-03-2019 04:19:17 10.1 C 73 %
383 08-03-2019 04:31:17 10.1 C 72 %
384 08-03-2019 04:43:17 10.1 C 72 %
385 08-03-2019 04:55:17 10.1 C 72 %
386 08-03-2019 05:07:17 10 C 72 %
387 08-03-2019 05:19:17 10 C 71 %
388 08-03-2019 05:31:17 10 C 71 %
389 08-03-2019 05:43:18 10 C 71 %
390 08-03-2019 05:55:18 10 C 71 %
391 08-03-2019 06:07:17 10 C 71 %
392 08-03-2019 06:19:17 10 C 71 %
393 08-03-2019 06:31:17 10 C 71 %
394 08-03-2019 06:43:17 10 C 71 %
395 08-03-2019 06:55:17 10 C 71 %
396 08-03-2019 07:07:17 10 C 72 %
397 08-03-2019 07:19:17 10 C 72 %
398 08-03-2019 07:31:17 10 C 72 %
399 08-03-2019 07:43:17 10 C 72 %
400 08-03-2019 07:55:17 10 C 72 %
Sensor: Nr:Datum:Temp:Feuchte:
G-T/H 401 08-03-2019 08:07:18 10 C 72 %
402 08-03-2019 08:19:17 9.9 C 73 %
403 08-03-2019 08:31:17 9.9 C 73 %
404 08-03-2019 08:43:17 9.9 C 73 %
405 08-03-2019 08:55:17 9.9 C 73 %
406 08-03-2019 09:07:18 9.9 C 73 %
407 08-03-2019 09:19:17 9.9 C 73 %
408 08-03-2019 09:31:17 9.9 C 73 %
409 08-03-2019 09:43:17 9.9 C 73 %
410 08-03-2019 09:55:17 9.9 C 73 %
411 08-03-2019 10:07:18 9.9 C 73 %
412 08-03-2019 10:19:17 9.9 C 73 %
413 08-03-2019 10:31:17 9.9 C 73 %
414 08-03-2019 10:43:17 9.9 C 73 %
415 08-03-2019 10:55:17 9.9 C 73 %
416 08-03-2019 11:07:18 9.9 C 73 %
417 08-03-2019 11:19:17 9.9 C 73 %
418 08-03-2019 11:31:17 9.9 C 73 %
419 08-03-2019 11:43:17 9.9 C 73 %
420 08-03-2019 11:55:17 9.9 C 73 %
421 08-03-2019 12:07:18 9.9 C 73 %
422 08-03-2019 12:19:17 9.9 C 73 %
423 08-03-2019 12:31:17 9.9 C 73 %
424 08-03-2019 12:43:17 9.9 C 73 %
425 08-03-2019 12:55:17 9.9 C 73 %
Sensor: Nr:Datum:Temp:Feuchte:
G-T/H 426 08-03-2019 13:07:17 9.9 C 73 %
427 08-03-2019 13:19:17 10 C 72 %
428 08-03-2019 13:31:17 9.9 C 73 %
429 08-03-2019 13:43:17 9.9 C 73 %
430 08-03-2019 13:55:17 9.9 C 73 %
431 08-03-2019 14:07:17 10 C 72 %
432 08-03-2019 14:19:17 10 C 72 %
433 08-03-2019 14:31:17 10 C 72 %
434 08-03-2019 14:43:17 10 C 72 %
435 08-03-2019 14:55:17 10 C 73 %
436 08-03-2019 15:07:17 10 C 73 %
437 08-03-2019 15:19:17 10 C 73 %
438 08-03-2019 15:31:17 10 C 73 %
439 08-03-2019 15:43:17 10.1 C 73 %
440 08-03-2019 15:55:17 10.1 C 73 %
441 08-03-2019 16:07:17 10.1 C 73 %
442 08-03-2019 16:19:17 10.1 C 73 %
443 08-03-2019 16:31:17 10.1 C 73 %
444 08-03-2019 16:43:18 10.1 C 73 %
445 08-03-2019 16:55:17 10.1 C 73 %
446 08-03-2019 17:07:17 10.1 C 73 %
447 08-03-2019 17:19:17 10.1 C 73 %
448 08-03-2019 17:31:17 10.1 C 73 %
449 08-03-2019 17:43:17 10.1 C 73 %
450 08-03-2019 17:55:17 10.1 C 73 %
Sensor: Nr:Datum:Temp:Feuchte:
G-T/H 451 08-03-2019 18:07:17 10.1 C 73 %
452 08-03-2019 18:19:17 10.1 C 73 %
453 08-03-2019 18:31:17 10.1 C 73 %
454 08-03-2019 18:43:17 10.1 C 73 %
455 08-03-2019 18:55:18 10.2 C 73 %
456 08-03-2019 19:07:17 10.2 C 73 %
457 08-03-2019 19:19:17 10.2 C 73 %
458 08-03-2019 19:31:18 10.1 C 73 %
459 08-03-2019 19:43:18 10.2 C 73 %
460 08-03-2019 19:55:17 10.2 C 73 %
461 08-03-2019 20:07:17 10.1 C 73 %
462 08-03-2019 20:19:18 10.2 C 73 %
463 08-03-2019 20:31:17 10.2 C 73 %
464 08-03-2019 20:43:17 10.2 C 73 %
465 08-03-2019 20:55:17 10.1 C 73 %
466 08-03-2019 21:07:17 10.2 C 73 %
467 08-03-2019 21:19:18 10.1 C 73 %
468 08-03-2019 21:31:17 10.1 C 73 %
469 08-03-2019 21:43:17 10.1 C 73 %
470 08-03-2019 21:55:17 10.1 C 73 %
471 08-03-2019 22:07:17 10.1 C 73 %
472 08-03-2019 22:19:18 10.1 C 73 %
473 08-03-2019 22:31:17 10.1 C 73 %
474 08-03-2019 22:43:17 10.1 C 73 %
475 08-03-2019 22:55:17 10.1 C 73 %
Sensor: Nr:Datum:Temp:Feuchte:
G-T/H 476 08-03-2019 23:07:17 10.1 C 73 %
477 08-03-2019 23:19:17 10.1 C 73 %
478 08-03-2019 23:31:18 10.1 C 73 %
479 08-03-2019 23:43:18 10.1 C 73 %
480 08-03-2019 23:55:17 10 C 73 %
481 09-03-2019 00:07:17 10 C 73 %
482 09-03-2019 00:19:17 10.1 C 73 %
483 09-03-2019 00:31:18 10 C 73 %
484 09-03-2019 00:43:18 10.1 C 73 %
485 09-03-2019 00:55:17 10 C 73 %
486 09-03-2019 01:07:17 10 C 73 %
487 09-03-2019 01:19:17 10 C 73 %
488 09-03-2019 01:31:17 10 C 73 %
489 09-03-2019 01:43:17 10 C 73 %
490 09-03-2019 01:55:17 10 C 73 %
491 09-03-2019 02:07:17 10 C 73 %
492 09-03-2019 02:19:17 10 C 73 %
493 09-03-2019 02:31:17 10 C 73 %
494 09-03-2019 02:43:17 10 C 73 %
495 09-03-2019 02:55:17 10 C 73 %
496 09-03-2019 03:07:17 10 C 73 %
497 09-03-2019 03:19:17 10 C 73 %
498 09-03-2019 03:31:17 10 C 73 %
499 09-03-2019 03:43:17 10 C 73 %
500 09-03-2019 03:55:17 10 C 73 %
Sensor: Nr:Datum:Temp:Feuchte:
G-T/H 501 09-03-2019 04:07:17 10 C 73 %
502 09-03-2019 04:19:17 10 C 73 %
503 09-03-2019 04:31:17 10 C 73 %
504 09-03-2019 04:43:17 10 C 73 %
505 09-03-2019 04:55:17 10 C 73 %
506 09-03-2019 05:07:17 9.9 C 74 %
507 09-03-2019 05:19:17 9.9 C 74 %
508 09-03-2019 05:31:17 9.9 C 74 %
509 09-03-2019 05:43:17 9.9 C 74 %
510 09-03-2019 05:55:17 9.9 C 74 %
511 09-03-2019 06:07:17 9.9 C 74 %
512 09-03-2019 06:19:17 9.9 C 74 %
513 09-03-2019 06:31:17 9.9 C 74 %
514 09-03-2019 06:43:17 9.9 C 74 %
515 09-03-2019 06:55:17 9.9 C 74 %
516 09-03-2019 07:07:18 9.9 C 74 %
517 09-03-2019 07:19:17 9.9 C 74 %
518 09-03-2019 07:31:17 9.9 C 74 %
519 09-03-2019 07:43:17 9.9 C 74 %
520 09-03-2019 07:55:17 9.9 C 74 %
521 09-03-2019 08:07:17 9.9 C 74 %
522 09-03-2019 08:19:17 9.9 C 74 %
523 09-03-2019 08:31:17 9.9 C 74 %
524 09-03-2019 08:43:17 9.9 C 74 %
525 09-03-2019 08:55:17 9.9 C 74 %
Sensor: Nr:Datum:Temp:Feuchte:
G-T/H 526 09-03-2019 09:07:17 9.9 C 74 %
527 09-03-2019 09:19:17 9.9 C 74 %
528 09-03-2019 09:31:17 10 C 73 %
529 09-03-2019 09:43:18 9.9 C 74 %
530 09-03-2019 09:55:17 9.9 C 74 %
531 09-03-2019 10:07:17 10 C 73 %
532 09-03-2019 10:19:17 10 C 73 %
533 09-03-2019 10:31:18 9.9 C 74 %
534 09-03-2019 10:43:18 9.9 C 74 %
535 09-03-2019 10:55:17 10 C 73 %
536 09-03-2019 11:07:17 10 C 73 %
537 09-03-2019 11:19:17 9.9 C 74 %
538 09-03-2019 11:31:18 10 C 73 %
539 09-03-2019 11:43:18 10 C 73 %
540 09-03-2019 11:55:17 10 C 74 %
541 09-03-2019 12:07:17 10 C 74 %
542 09-03-2019 12:19:17 10 C 74 %
543 09-03-2019 12:31:17 10 C 74 %
544 09-03-2019 12:43:18 10.1 C 74 %
545 09-03-2019 12:55:17 10.1 C 74 %
546 09-03-2019 13:07:17 10.1 C 74 %
547 09-03-2019 13:19:17 10.1 C 74 %
548 09-03-2019 13:31:17 10.1 C 74 %
549 09-03-2019 13:43:17 10.1 C 74 %
550 09-03-2019 13:55:18 10.2 C 74 %
Sensor: Nr:Datum:Temp:Feuchte:
G-T/H 551 09-03-2019 14:07:17 10.1 C 74 %
552 09-03-2019 14:19:17 10.1 C 74 %
553 09-03-2019 14:31:18 10.2 C 74 %
554 09-03-2019 14:43:18 10.2 C 74 %
555 09-03-2019 14:55:17 10.2 C 74 %
556 09-03-2019 15:07:17 10.3 C 74 %
557 09-03-2019 15:19:17 10.3 C 74 %
558 09-03-2019 15:31:18 10.3 C 74 %
559 09-03-2019 15:43:18 10.3 C 74 %
560 09-03-2019 15:55:17 10.3 C 74 %
561 09-03-2019 16:07:17 10.3 C 74 %
562 09-03-2019 16:19:17 10.4 C 74 %
563 09-03-2019 16:31:17 10.3 C 74 %
564 09-03-2019 16:43:17 10.4 C 74 %
565 09-03-2019 16:55:17 10.4 C 74 %
566 09-03-2019 17:07:17 10.4 C 74 %
567 09-03-2019 17:19:17 10.4 C 74 %
568 09-03-2019 17:31:17 10.4 C 74 %
569 09-03-2019 17:43:17 10.4 C 74 %
570 09-03-2019 17:55:17 10.4 C 74 %
571 09-03-2019 18:07:17 10.4 C 73 %
572 09-03-2019 18:19:17 10.5 C 73 %
573 09-03-2019 18:31:17 10.5 C 73 %
574 09-03-2019 18:43:17 10.5 C 73 %
575 09-03-2019 18:55:17 10.5 C 73 %
Sensor: Nr:Datum:Temp:Feuchte:
G-T/H 576 09-03-2019 19:07:18 10.5 C 73 %
577 09-03-2019 19:19:17 10.5 C 73 %
578 09-03-2019 19:31:17 10.5 C 72 %
579 09-03-2019 19:43:17 10.5 C 72 %
580 09-03-2019 19:55:17 10.5 C 72 %
581 09-03-2019 20:07:18 10.5 C 72 %
582 09-03-2019 20:19:17 10.5 C 72 %
583 09-03-2019 20:31:17 10.5 C 72 %
584 09-03-2019 20:43:17 10.5 C 73 %
585 09-03-2019 20:55:17 10.5 C 73 %
586 09-03-2019 21:07:17 10.5 C 73 %
587 09-03-2019 21:19:17 10.6 C 73 %
588 09-03-2019 21:31:18 10.5 C 73 %
589 09-03-2019 21:43:18 10.6 C 73 %
590 09-03-2019 21:55:17 10.6 C 73 %
591 09-03-2019 22:07:17 10.6 C 73 %
592 09-03-2019 22:19:17 10.6 C 73 %
593 09-03-2019 22:31:17 10.6 C 73 %
594 09-03-2019 22:43:17 10.6 C 73 %
595 09-03-2019 22:55:17 10.6 C 73 %
596 09-03-2019 23:07:18 10.6 C 73 %
597 09-03-2019 23:19:17 10.6 C 73 %
598 09-03-2019 23:31:17 10.6 C 73 %
599 09-03-2019 23:43:17 10.6 C 73 %
600 09-03-2019 23:55:17 10.6 C 73 %
Sensor: Nr:Datum:Temp:Feuchte:
G-T/H 601 10-03-2019 00:07:17 10.6 C 73 %
602 10-03-2019 00:19:17 10.6 C 73 %
603 10-03-2019 00:31:17 10.6 C 73 %
604 10-03-2019 00:43:17 10.6 C 73 %
605 10-03-2019 00:55:17 10.6 C 73 %
606 10-03-2019 01:07:17 10.6 C 73 %
607 10-03-2019 01:19:17 10.6 C 73 %
608 10-03-2019 01:31:17 10.6 C 73 %
609 10-03-2019 01:43:17 10.6 C 73 %
610 10-03-2019 01:55:17 10.6 C 73 %
611 10-03-2019 02:07:17 10.6 C 73 %
612 10-03-2019 02:19:18 10.6 C 73 %
613 10-03-2019 02:31:17 10.6 C 73 %
614 10-03-2019 02:43:17 10.6 C 73 %
615 10-03-2019 02:55:17 10.6 C 73 %
616 10-03-2019 03:07:17 10.6 C 74 %
617 10-03-2019 03:19:17 10.6 C 74 %
618 10-03-2019 03:31:17 10.6 C 74 %
619 10-03-2019 03:43:17 10.6 C 74 %
620 10-03-2019 03:55:17 10.6 C 74 %
621 10-03-2019 04:07:17 10.6 C 74 %
622 10-03-2019 04:19:17 10.6 C 74 %
623 10-03-2019 04:31:17 10.6 C 74 %
624 10-03-2019 04:43:17 10.6 C 74 %
625 10-03-2019 04:55:17 10.6 C 74 %
Sensor: Nr:Datum:Temp:Feuchte:
G-T/H 626 10-03-2019 05:07:17 10.6 C 74 %
627 10-03-2019 05:19:17 10.6 C 74 %
628 10-03-2019 05:31:17 10.6 C 74 %
629 10-03-2019 05:43:17 10.5 C 74 %
630 10-03-2019 05:55:18 10.5 C 74 %
631 10-03-2019 06:07:17 10.5 C 74 %
632 10-03-2019 06:19:18 10.5 C 74 %
633 10-03-2019 06:31:17 10.5 C 74 %
634 10-03-2019 06:43:17 10.5 C 74 %
635 10-03-2019 06:55:17 10.5 C 74 %
636 10-03-2019 07:07:18 10.5 C 74 %
637 10-03-2019 07:19:17 10.5 C 74 %
638 10-03-2019 07:31:17 10.5 C 74 %
639 10-03-2019 07:43:17 10.5 C 74 %
640 10-03-2019 07:55:17 10.5 C 74 %
641 10-03-2019 08:07:17 10.5 C 74 %
642 10-03-2019 08:19:17 10.5 C 74 %
643 10-03-2019 08:31:17 10.5 C 74 %
644 10-03-2019 08:43:17 10.5 C 74 %
645 10-03-2019 08:55:17 10.5 C 74 %
646 10-03-2019 09:07:17 10.5 C 74 %
647 10-03-2019 09:19:17 10.5 C 74 %
648 10-03-2019 09:31:17 10.5 C 74 %
649 10-03-2019 09:43:17 10.5 C 74 %
650 10-03-2019 09:55:17 10.5 C 74 %
Sensor: Nr:Datum:Temp:Feuchte:
G-T/H 651 10-03-2019 10:07:18 10.6 C 74 %
652 10-03-2019 10:19:17 10.5 C 74 %
653 10-03-2019 10:31:17 10.6 C 74 %
654 10-03-2019 10:43:17 10.6 C 74 %
655 10-03-2019 10:55:17 10.6 C 74 %
656 10-03-2019 11:07:17 10.6 C 74 %
657 10-03-2019 11:19:17 10.6 C 74 %
658 10-03-2019 11:31:17 10.6 C 74 %
659 10-03-2019 11:43:17 10.6 C 74 %
660 10-03-2019 11:55:18 10.6 C 74 %
661 10-03-2019 12:07:17 10.6 C 74 %
662 10-03-2019 12:19:17 10.7 C 74 %
663 10-03-2019 12:31:18 10.7 C 74 %
664 10-03-2019 12:43:18 10.7 C 74 %
665 10-03-2019 12:55:17 10.7 C 74 %
666 10-03-2019 13:07:17 10.7 C 74 %
667 10-03-2019 13:19:17 10.7 C 74 %
668 10-03-2019 13:31:17 10.7 C 74 %
669 10-03-2019 13:43:17 10.8 C 74 %
670 10-03-2019 13:55:17 10.8 C 74 %
671 10-03-2019 14:07:17 10.8 C 74 %
672 10-03-2019 14:19:17 10.8 C 74 %
673 10-03-2019 14:31:17 10.8 C 74 %
674 10-03-2019 14:43:17 10.8 C 74 %
675 10-03-2019 14:55:17 10.8 C 74 %
Sensor: Nr:Datum:Temp:Feuchte:
G-T/H 676 10-03-2019 15:07:17 10.9 C 74 %
677 10-03-2019 15:19:17 10.9 C 73 %
678 10-03-2019 15:31:17 10.9 C 73 %
679 10-03-2019 15:43:17 10.9 C 73 %
680 10-03-2019 15:55:17 10.9 C 72 %
681 10-03-2019 16:07:18 10.9 C 72 %
682 10-03-2019 16:19:17 10.9 C 71 %
683 10-03-2019 16:31:18 10.9 C 71 %
684 10-03-2019 16:43:18 10.9 C 71 %
685 10-03-2019 16:55:17 10.9 C 71 %
686 10-03-2019 17:07:17 10.8 C 70 %
687 10-03-2019 17:19:17 10.8 C 69 %
688 10-03-2019 17:31:17 10.8 C 68 %
689 10-03-2019 17:43:17 10.8 C 67 %
690 10-03-2019 17:55:17 10.8 C 67 %
691 10-03-2019 18:07:18 10.8 C 67 %
692 10-03-2019 18:19:17 10.8 C 68 %
693 10-03-2019 18:31:18 10.8 C 68 %
694 10-03-2019 18:43:18 10.8 C 68 %
695 10-03-2019 18:55:17 10.8 C 69 %
696 10-03-2019 19:07:17 10.8 C 69 %
697 10-03-2019 19:19:17 10.8 C 69 %
698 10-03-2019 19:31:18 10.7 C 69 %
699 10-03-2019 19:43:18 10.7 C 68 %
700 10-03-2019 19:55:17 10.7 C 68 %
Sensor: Nr:Datum:Temp:Feuchte:
G-T/H 701 10-03-2019 20:07:17 10.6 C 67 %
702 10-03-2019 20:19:17 10.6 C 67 %
703 10-03-2019 20:31:17 10.6 C 66 %
704 10-03-2019 20:43:17 10.5 C 66 %
705 10-03-2019 20:55:17 10.5 C 66 %
706 10-03-2019 21:07:17 10.5 C 65 %
707 10-03-2019 21:19:17 10.4 C 65 %
708 10-03-2019 21:31:17 10.4 C 65 %
709 10-03-2019 21:43:17 10.4 C 65 %
710 10-03-2019 21:55:17 10.4 C 64 %
711 10-03-2019 22:07:17 10.4 C 64 %
712 10-03-2019 22:19:17 10.3 C 64 %
713 10-03-2019 22:31:17 10.3 C 64 %
714 10-03-2019 22:43:17 10.3 C 64 %
715 10-03-2019 22:55:17 10.3 C 64 %
716 10-03-2019 23:07:17 10.2 C 64 %
717 10-03-2019 23:19:17 10.3 C 64 %
718 10-03-2019 23:31:17 10.2 C 64 %
719 10-03-2019 23:43:17 10.2 C 64 %
720 10-03-2019 23:55:17 10.2 C 64 %
721 11-03-2019 00:07:17 10.1 C 64 %
722 11-03-2019 00:19:17 10.1 C 63 %
723 11-03-2019 00:31:17 10.1 C 63 %
724 11-03-2019 00:43:17 10.1 C 63 %
725 11-03-2019 00:55:18 10 C 63 %
Sensor: Nr:Datum:Temp:Feuchte:
G-T/H 726 11-03-2019 01:07:17 10 C 63 %
727 11-03-2019 01:19:17 10 C 63 %
728 11-03-2019 01:31:18 10 C 63 %
729 11-03-2019 01:43:18 10 C 63 %
730 11-03-2019 01:55:17 9.9 C 63 %
731 11-03-2019 02:07:17 9.9 C 63 %
732 11-03-2019 02:19:17 9.9 C 63 %
733 11-03-2019 02:31:17 9.9 C 63 %
734 11-03-2019 02:43:17 9.9 C 63 %
735 11-03-2019 02:55:17 9.8 C 63 %
736 11-03-2019 03:07:17 9.8 C 63 %
737 11-03-2019 03:19:17 9.8 C 63 %
738 11-03-2019 03:31:17 9.8 C 63 %
739 11-03-2019 03:43:17 9.7 C 63 %
740 11-03-2019 03:55:17 9.7 C 63 %
741 11-03-2019 04:07:18 9.7 C 64 %
742 11-03-2019 04:19:17 9.7 C 64 %
743 11-03-2019 04:31:17 9.8 C 64 %
744 11-03-2019 04:43:17 9.8 C 65 %
745 11-03-2019 04:55:17 9.8 C 65 %
746 11-03-2019 05:07:17 9.8 C 65 %
747 11-03-2019 05:19:17 9.8 C 66 %
748 11-03-2019 05:31:17 9.7 C 66 %
749 11-03-2019 05:43:17 9.7 C 66 %
750 11-03-2019 05:55:17 9.7 C 66 %
Sensor: Nr:Datum:Temp:Feuchte:
G-T/H 751 11-03-2019 06:07:18 9.7 C 66 %
752 11-03-2019 06:19:17 9.7 C 66 %
753 11-03-2019 06:31:17 9.7 C 66 %
754 11-03-2019 06:43:17 9.7 C 67 %
755 11-03-2019 06:55:17 9.6 C 67 %
756 11-03-2019 07:07:17 9.6 C 67 %
757 11-03-2019 07:19:17 9.6 C 67 %
758 11-03-2019 07:31:17 9.6 C 67 %
759 11-03-2019 07:43:17 9.5 C 67 %
760 11-03-2019 07:55:17 9.5 C 67 %
761 11-03-2019 08:07:17 9.5 C 67 %
762 11-03-2019 08:19:17 9.5 C 67 %
763 11-03-2019 08:31:18 9.5 C 67 %
764 11-03-2019 08:43:18 9.5 C 67 %
765 11-03-2019 08:55:17 9.5 C 68 %
766 11-03-2019 09:07:17 9.5 C 68 %
767 11-03-2019 09:19:18 9.4 C 68 %
768 11-03-2019 09:31:17 9.4 C 68 %
769 11-03-2019 09:43:17 9.4 C 68 %
770 11-03-2019 09:55:17 9.3 C 68 %
771 11-03-2019 10:07:17 9.4 C 68 %
772 11-03-2019 10:19:17 9.3 C 68 %
773 11-03-2019 10:31:17 9.3 C 68 %
774 11-03-2019 10:43:17 9.3 C 68 %
775 11-03-2019 10:55:17 9.3 C 68 %
Sensor: Nr:Datum:Temp:Feuchte:
G-T/H 776 11-03-2019 11:07:18 9.3 C 68 %
777 11-03-2019 11:19:17 9.3 C 68 %
778 11-03-2019 11:31:17 9.3 C 68 %
779 11-03-2019 11:43:17 9.3 C 68 %
780 11-03-2019 11:55:18 9.3 C 68 %
781 11-03-2019 12:07:17 9.3 C 68 %
782 11-03-2019 12:19:17 9.3 C 68 %
783 11-03-2019 12:31:17 9.3 C 68 %
784 11-03-2019 12:43:17 9.2 C 69 %
785 11-03-2019 12:55:17 9.2 C 69 %
786 11-03-2019 13:07:17 9.2 C 69 %
787 11-03-2019 13:19:17 9.2 C 69 %
788 11-03-2019 13:31:17 9.2 C 69 %
789 11-03-2019 13:43:17 9.2 C 69 %
790 11-03-2019 13:55:17 9.2 C 69 %
791 11-03-2019 14:07:17 9.2 C 69 %
792 11-03-2019 14:19:17 9.2 C 69 %
793 11-03-2019 14:31:17 9.2 C 69 %
794 11-03-2019 14:43:17 9.2 C 69 %
795 11-03-2019 14:55:17 9.2 C 69 %
796 11-03-2019 15:07:17 9.2 C 69 %
797 11-03-2019 15:19:17 9.2 C 69 %
798 11-03-2019 15:31:17 9.2 C 69 %
799 11-03-2019 15:43:17 9.3 C 69 %
800 11-03-2019 15:55:17 9.2 C 69 %
Sensor: Nr:Datum:Temp:Feuchte:
G-T/H 801 11-03-2019 16:07:17 9.2 C 69 %
802 11-03-2019 16:19:17 9.2 C 69 %
803 11-03-2019 16:31:17 9.3 C 69 %
804 11-03-2019 16:43:17 9.3 C 69 %
805 11-03-2019 16:55:17 9.3 C 69 %
806 11-03-2019 17:07:17 9.2 C 69 %
807 11-03-2019 17:19:18 9.3 C 69 %
808 11-03-2019 17:31:17 9.3 C 69 %
809 11-03-2019 17:43:17 9.3 C 69 %
810 11-03-2019 17:55:17 9.3 C 69 %
811 11-03-2019 18:07:18 9.3 C 69 %
812 11-03-2019 18:19:17 9.3 C 69 %
813 11-03-2019 18:31:17 9.3 C 69 %
814 11-03-2019 18:43:17 9.2 C 69 %
815 11-03-2019 18:55:17 9.2 C 69 %
816 11-03-2019 19:07:17 9.3 C 69 %
817 11-03-2019 19:19:17 9.2 C 69 %
818 11-03-2019 19:31:17 9.3 C 69 %
819 11-03-2019 19:43:17 9.3 C 69 %
820 11-03-2019 19:55:17 9.3 C 69 %
821 11-03-2019 20:07:17 9.3 C 69 %
822 11-03-2019 20:19:17 9.3 C 69 %
823 11-03-2019 20:31:17 9.2 C 69 %
824 11-03-2019 20:43:18 9.3 C 69 %
825 11-03-2019 20:55:17 9.2 C 69 %
Sensor: Nr:Datum:Temp:Feuchte:
G-T/H 826 11-03-2019 21:07:17 9.3 C 69 %
827 11-03-2019 21:19:17 9.2 C 69 %
828 11-03-2019 21:31:17 9.2 C 69 %
829 11-03-2019 21:43:17 9.2 C 70 %
830 11-03-2019 21:55:17 9.2 C 70 %
831 11-03-2019 22:07:17 9.2 C 70 %
832 11-03-2019 22:19:17 9.2 C 70 %
833 11-03-2019 22:31:17 9.2 C 70 %
834 11-03-2019 22:43:17 9.2 C 70 %
835 11-03-2019 22:55:17 9.2 C 70 %
836 11-03-2019 23:07:17 9.2 C 70 %
837 11-03-2019 23:19:17 9.2 C 70 %
838 11-03-2019 23:31:18 9.2 C 70 %
839 11-03-2019 23:43:18 9.1 C 70 %
840 11-03-2019 23:55:17 9.1 C 70 %
841 12-03-2019 00:07:17 9.1 C 70 %
842 12-03-2019 00:19:17 9.1 C 70 %
843 12-03-2019 00:31:18 9.1 C 70 %
844 12-03-2019 00:43:18 9.1 C 70 %
845 12-03-2019 00:55:17 9.1 C 70 %
846 12-03-2019 01:07:17 9.1 C 70 %
847 12-03-2019 01:19:17 9.1 C 70 %
848 12-03-2019 01:31:18 9.1 C 69 %
849 12-03-2019 01:43:18 9 C 69 %
850 12-03-2019 01:55:17 9 C 69 %
Sensor: Nr:Datum:Temp:Feuchte:
G-T/H 851 12-03-2019 02:07:17 9 C 69 %
852 12-03-2019 02:19:18 9 C 69 %
853 12-03-2019 02:31:17 9 C 69 %
854 12-03-2019 02:43:17 8.9 C 70 %
855 12-03-2019 02:55:17 8.9 C 70 %
856 12-03-2019 03:07:18 8.9 C 70 %
857 12-03-2019 03:19:17 8.9 C 70 %
858 12-03-2019 03:31:17 8.9 C 70 %
859 12-03-2019 03:43:17 8.9 C 70 %
860 12-03-2019 03:55:17 8.9 C 70 %
861 12-03-2019 04:07:18 8.9 C 70 %
862 12-03-2019 04:19:17 8.8 C 70 %
863 12-03-2019 04:31:17 8.8 C 70 %
864 12-03-2019 04:43:17 8.8 C 70 %
865 12-03-2019 04:55:17 8.8 C 70 %
866 12-03-2019 05:07:17 8.8 C 70 %
867 12-03-2019 05:19:17 8.7 C 70 %
868 12-03-2019 05:31:17 8.7 C 70 %
869 12-03-2019 05:43:17 8.7 C 70 %
870 12-03-2019 05:55:17 8.7 C 70 %
871 12-03-2019 06:07:17 8.7 C 70 %
872 12-03-2019 06:19:17 8.7 C 70 %
873 12-03-2019 06:31:17 8.7 C 70 %
874 12-03-2019 06:43:17 8.7 C 70 %
875 12-03-2019 06:55:18 8.7 C 70 %
Sensor: Nr:Datum:Temp:Feuchte:
G-T/H 876 12-03-2019 07:07:17 8.6 C 70 %
877 12-03-2019 07:19:17 8.6 C 70 %
878 12-03-2019 07:31:17 8.6 C 70 %
879 12-03-2019 07:43:18 8.6 C 70 %
880 12-03-2019 07:55:17 8.6 C 70 %
881 12-03-2019 08:07:17 8.6 C 70 %
882 12-03-2019 08:19:17 8.6 C 70 %
883 12-03-2019 08:31:18 8.6 C 70 %
884 12-03-2019 08:43:18 8.6 C 70 %
885 12-03-2019 08:55:17 8.6 C 70 %
886 12-03-2019 09:07:17 8.6 C 70 %
887 12-03-2019 09:19:18 8.6 C 70 %
888 12-03-2019 09:31:17 8.5 C 70 %
889 12-03-2019 09:43:17 8.6 C 70 %
890 12-03-2019 09:55:17 8.5 C 70 %
891 12-03-2019 10:07:17 8.5 C 70 %
892 12-03-2019 10:19:17 8.6 C 70 %
893 12-03-2019 10:31:17 8.6 C 70 %
894 12-03-2019 10:43:17 8.6 C 70 %
895 12-03-2019 10:55:17 8.6 C 71 %
896 12-03-2019 11:07:17 8.6 C 71 %
897 12-03-2019 11:19:17 8.6 C 71 %
898 12-03-2019 11:31:17 8.6 C 71 %
899 12-03-2019 11:43:17 8.6 C 71 %
900 12-03-2019 11:55:17 8.6 C 71 %
Sensor: Nr:Datum:Temp:Feuchte:
G-T/H 901 12-03-2019 12:07:17 8.6 C 71 %
902 12-03-2019 12:19:17 8.6 C 71 %
903 12-03-2019 12:31:17 8.7 C 71 %
904 12-03-2019 12:43:17 8.7 C 71 %
905 12-03-2019 12:55:17 8.7 C 71 %
906 12-03-2019 13:07:18 8.7 C 71 %
907 12-03-2019 13:19:17 8.7 C 71 %
908 12-03-2019 13:31:17 8.7 C 71 %
909 12-03-2019 13:43:17 8.7 C 71 %
910 12-03-2019 13:55:17 8.7 C 71 %
911 12-03-2019 14:07:17 8.8 C 71 %
912 12-03-2019 14:19:17 8.8 C 71 %
913 12-03-2019 14:31:18 8.8 C 71 %
914 12-03-2019 14:43:18 8.8 C 71 %
915 12-03-2019 14:55:17 8.9 C 71 %
916 12-03-2019 15:07:17 8.9 C 71 %
917 12-03-2019 15:19:17 8.9 C 71 %
918 12-03-2019 15:31:17 8.9 C 71 %
919 12-03-2019 15:43:17 8.9 C 71 %
920 12-03-2019 15:55:17 8.9 C 71 %
921 12-03-2019 16:07:18 9 C 70 %
922 12-03-2019 16:19:17 9 C 70 %
923 12-03-2019 16:31:17 9 C 70 %
924 12-03-2019 16:43:17 9 C 70 %
925 12-03-2019 16:55:17 9 C 71 %
Sensor: Nr:Datum:Temp:Feuchte:
G-T/H 926 12-03-2019 17:07:17 9 C 71 %
927 12-03-2019 17:19:17 9.1 C 71 %
928 12-03-2019 17:31:18 9.1 C 71 %
929 12-03-2019 17:43:18 9.1 C 71 %
930 12-03-2019 17:55:17 9.1 C 71 %
931 12-03-2019 18:07:17 9.1 C 71 %
932 12-03-2019 18:19:17 9.1 C 71 %
933 12-03-2019 18:31:17 9.2 C 71 %
934 12-03-2019 18:43:17 9.2 C 71 %
935 12-03-2019 18:55:17 9.2 C 71 %
936 12-03-2019 19:07:17 9.2 C 71 %
937 12-03-2019 19:19:17 9.2 C 71 %
938 12-03-2019 19:31:17 9.2 C 71 %
939 12-03-2019 19:43:17 9.2 C 71 %
940 12-03-2019 19:55:17 9.3 C 71 %
941 12-03-2019 20:07:17 9.3 C 71 %
942 12-03-2019 20:19:17 9.3 C 71 %
943 12-03-2019 20:31:17 9.3 C 71 %
944 12-03-2019 20:43:17 9.3 C 71 %
945 12-03-2019 20:55:17 9.3 C 71 %
946 12-03-2019 21:07:18 9.3 C 71 %
947 12-03-2019 21:19:17 9.3 C 71 %
948 12-03-2019 21:31:17 9.3 C 71 %
949 12-03-2019 21:43:17 9.3 C 71 %
950 12-03-2019 21:55:17 9.3 C 71 %
Sensor: Nr:Datum:Temp:Feuchte:
G-T/H 951 12-03-2019 22:07:18 9.4 C 71 %
952 12-03-2019 22:19:17 9.4 C 71 %
953 12-03-2019 22:31:17 9.4 C 71 %
954 12-03-2019 22:43:17 9.4 C 71 %
955 12-03-2019 22:55:17 9.4 C 71 %
956 12-03-2019 23:07:17 9.4 C 71 %
957 12-03-2019 23:19:17 9.4 C 71 %
958 12-03-2019 23:31:17 9.4 C 71 %
959 12-03-2019 23:43:17 9.5 C 71 %
960 12-03-2019 23:55:17 9.5 C 71 %
961 13-03-2019 00:07:17 9.5 C 71 %
962 13-03-2019 00:19:17 9.5 C 71 %
963 13-03-2019 00:31:17 9.5 C 71 %
964 13-03-2019 00:43:17 9.5 C 71 %
965 13-03-2019 00:55:17 9.5 C 71 %
966 13-03-2019 01:07:17 9.5 C 71 %
967 13-03-2019 01:19:18 9.5 C 71 %
968 13-03-2019 01:31:17 9.5 C 71 %
969 13-03-2019 01:43:17 9.5 C 71 %
970 13-03-2019 01:55:17 9.5 C 71 %
971 13-03-2019 02:07:18 9.5 C 71 %
972 13-03-2019 02:19:17 9.5 C 71 %
973 13-03-2019 02:31:17 9.5 C 71 %
974 13-03-2019 02:43:17 9.5 C 71 %
975 13-03-2019 02:55:17 9.5 C 71 %
Sensor: Nr:Datum:Temp:Feuchte:
G-T/H 976 13-03-2019 03:07:17 9.4 C 71 %
977 13-03-2019 03:19:17 9.5 C 71 %
978 13-03-2019 03:31:17 9.5 C 71 %
979 13-03-2019 03:43:18 9.5 C 71 %
980 13-03-2019 03:55:17 9.5 C 71 %
981 13-03-2019 04:07:17 9.4 C 71 %
982 13-03-2019 04:19:17 9.4 C 71 %
983 13-03-2019 04:31:17 9.4 C 71 %
984 13-03-2019 04:43:17 9.4 C 71 %
985 13-03-2019 04:55:17 9.4 C 71 %
986 13-03-2019 05:07:17 9.4 C 71 %
987 13-03-2019 05:19:17 9.3 C 71 %
988 13-03-2019 05:31:17 9.3 C 71 %
989 13-03-2019 05:43:17 9.3 C 71 %
990 13-03-2019 05:55:17 9.3 C 71 %
991 13-03-2019 06:07:17 9.3 C 71 %
992 13-03-2019 06:19:17 9.3 C 71 %
993 13-03-2019 06:31:17 9.3 C 71 %
994 13-03-2019 06:43:17 9.3 C 71 %
995 13-03-2019 06:55:18 9.3 C 71 %
996 13-03-2019 07:07:17 9.2 C 71 %
997 13-03-2019 07:19:17 9.2 C 71 %
998 13-03-2019 07:31:17 9.2 C 71 %
999 13-03-2019 07:43:17 9.2 C 71 %
1000 13-03-2019 07:55:18 9.2 C 71 %
Sensor: Nr:Datum:Temp:Feuchte:
G-T/H 1001 13-03-2019 08:07:17 9.2 C 71 %
1002 13-03-2019 08:19:17 9.2 C 71 %
1003 13-03-2019 08:31:17 9.2 C 71 %
1004 13-03-2019 08:43:18 9.1 C 71 %
1005 13-03-2019 08:55:17 9.2 C 71 %
1006 13-03-2019 09:07:17 9.2 C 71 %
1007 13-03-2019 09:19:17 9.2 C 71 %
1008 13-03-2019 09:31:18 9.1 C 71 %
1009 13-03-2019 09:43:18 9.1 C 71 %
1010 13-03-2019 09:55:17 9.1 C 71 %
1011 13-03-2019 10:07:17 9.1 C 71 %
1012 13-03-2019 10:19:17 9.1 C 71 %
1013 13-03-2019 10:31:17 9.1 C 71 %
1014 13-03-2019 10:43:17 9.1 C 71 %
1015 13-03-2019 10:55:17 9.1 C 71 %
1016 13-03-2019 11:07:17 9.1 C 71 %
1017 13-03-2019 11:19:17 9.1 C 71 %
1018 13-03-2019 11:31:17 9.1 C 71 %
1019 13-03-2019 11:43:17 9.1 C 71 %
1020 13-03-2019 11:55:17 9.1 C 71 %
1021 13-03-2019 12:07:17 9.1 C 71 %
1022 13-03-2019 12:19:17 9.1 C 71 %
1023 13-03-2019 12:31:17 9.1 C 71 %
1024 13-03-2019 12:43:17 9.2 C 71 %
1025 13-03-2019 12:55:17 9.2 C 71 %
Sensor: Nr:Datum:Temp:Feuchte:
G-T/H 1026 13-03-2019 13:07:17 9.2 C 71 %
1027 13-03-2019 13:19:17 9.2 C 71 %
1028 13-03-2019 13:31:17 9.2 C 71 %
1029 13-03-2019 13:43:17 9.2 C 71 %
1030 13-03-2019 13:55:17 9.2 C 71 %
1031 13-03-2019 14:07:18 9.2 C 71 %
1032 13-03-2019 14:19:17 9.2 C 71 %
1033 13-03-2019 14:31:17 9.3 C 71 %
1034 13-03-2019 14:43:17 9.3 C 71 %
1035 13-03-2019 14:55:17 9.3 C 71 %
1036 13-03-2019 15:07:17 9.3 C 71 %
1037 13-03-2019 15:19:17 9.3 C 71 %
1038 13-03-2019 15:31:18 9.3 C 71 %
1039 13-03-2019 15:43:18 9.3 C 71 %
1040 13-03-2019 15:55:17 9.4 C 71 %
1041 13-03-2019 16:07:17 9.4 C 71 %
1042 13-03-2019 16:19:17 9.4 C 72 %
1043 13-03-2019 16:31:17 9.4 C 72 %
1044 13-03-2019 16:43:18 9.4 C 72 %
1045 13-03-2019 16:55:17 9.4 C 72 %
1046 13-03-2019 17:07:17 9.5 C 72 %
1047 13-03-2019 17:19:18 9.5 C 72 %
1048 13-03-2019 17:31:17 9.5 C 72 %
1049 13-03-2019 17:43:17 9.5 C 72 %
1050 13-03-2019 17:55:17 9.5 C 72 %
Sensor: Nr:Datum:Temp:Feuchte:
G-T/H 1051 13-03-2019 18:07:17 9.5 C 72 %
1052 13-03-2019 18:19:17 9.5 C 72 %
1053 13-03-2019 18:31:17 9.5 C 72 %
1054 13-03-2019 18:43:17 9.5 C 72 %
1055 13-03-2019 18:55:17 9.5 C 72 %
1056 13-03-2019 19:07:17 9.5 C 72 %
1057 13-03-2019 19:19:17 9.5 C 72 %
1058 13-03-2019 19:31:17 9.5 C 72 %
1059 13-03-2019 19:43:17 9.5 C 72 %
1060 13-03-2019 19:55:17 9.5 C 72 %
1061 13-03-2019 20:07:17 9.5 C 72 %
1062 13-03-2019 20:19:17 9.5 C 72 %
1063 13-03-2019 20:31:17 9.5 C 72 %
1064 13-03-2019 20:43:17 9.5 C 72 %
1065 13-03-2019 20:55:17 9.5 C 72 %
1066 13-03-2019 21:07:17 9.5 C 72 %
1067 13-03-2019 21:19:17 9.5 C 72 %
1068 13-03-2019 21:31:17 9.4 C 72 %
1069 13-03-2019 21:43:17 9.5 C 72 %
1070 13-03-2019 21:55:17 9.4 C 72 %
1071 13-03-2019 22:07:17 9.5 C 72 %
1072 13-03-2019 22:19:17 9.4 C 72 %
1073 13-03-2019 22:31:18 9.4 C 72 %
1074 13-03-2019 22:43:18 9.4 C 72 %
1075 13-03-2019 22:55:17 9.4 C 72 %
Sensor: Nr:Datum:Temp:Feuchte:
G-T/H 1076 13-03-2019 23:07:17 9.4 C 72 %
1077 13-03-2019 23:19:17 9.4 C 72 %
1078 13-03-2019 23:31:18 9.4 C 72 %
1079 13-03-2019 23:43:18 9.3 C 72 %
1080 13-03-2019 23:55:17 9.3 C 72 %
1081 14-03-2019 00:07:17 9.3 C 72 %
1082 14-03-2019 00:19:17 9.3 C 72 %
1083 14-03-2019 00:31:17 9.4 C 72 %
1084 14-03-2019 00:43:17 9.3 C 72 %
1085 14-03-2019 00:55:17 9.3 C 72 %
1086 14-03-2019 01:07:17 9.3 C 72 %
1087 14-03-2019 01:19:17 9.3 C 72 %
1088 14-03-2019 01:31:17 9.3 C 72 %
1089 14-03-2019 01:43:17 9.2 C 72 %
1090 14-03-2019 01:55:17 9.3 C 72 %
1091 14-03-2019 02:07:17 9.2 C 72 %
1092 14-03-2019 02:19:18 9.2 C 72 %
1093 14-03-2019 02:31:17 9.2 C 72 %
1094 14-03-2019 02:43:17 9.2 C 72 %
1095 14-03-2019 02:55:17 9.2 C 72 %
1096 14-03-2019 03:07:17 9.2 C 72 %
1097 14-03-2019 03:19:17 9.2 C 72 %
1098 14-03-2019 03:31:17 9.1 C 72 %
1099 14-03-2019 03:43:17 9.2 C 72 %
1100 14-03-2019 03:55:17 9.1 C 72 %
Sensor: Nr:Datum:Temp:Feuchte:
G-T/H 1101 14-03-2019 04:07:17 9.1 C 72 %
1102 14-03-2019 04:19:17 9.1 C 72 %
1103 14-03-2019 04:31:17 9.1 C 72 %
1104 14-03-2019 04:43:17 9.1 C 72 %
1105 14-03-2019 04:55:17 9.1 C 72 %
1106 14-03-2019 05:07:17 9.1 C 72 %
1107 14-03-2019 05:19:17 9.1 C 72 %
1108 14-03-2019 05:31:17 9.1 C 72 %
1109 14-03-2019 05:43:17 9.1 C 72 %
1110 14-03-2019 05:55:17 9.1 C 72 %
1111 14-03-2019 06:07:17 9.1 C 72 %
1112 14-03-2019 06:19:17 9.1 C 72 %
1113 14-03-2019 06:31:18 9.1 C 72 %
1114 14-03-2019 06:43:18 9.1 C 72 %
1115 14-03-2019 06:55:17 9 C 72 %
1116 14-03-2019 07:07:17 9 C 72 %
1117 14-03-2019 07:19:17 9 C 72 %
1118 14-03-2019 07:31:17 9 C 72 %
1119 14-03-2019 07:43:17 9 C 72 %
1120 14-03-2019 07:55:17 9 C 72 %
1121 14-03-2019 08:07:17 9 C 72 %
1122 14-03-2019 08:19:17 9 C 72 %
1123 14-03-2019 08:31:17 9 C 72 %
1124 14-03-2019 08:43:17 9 C 72 %
1125 14-03-2019 08:55:17 9 C 72 %
Sensor: Nr:Datum:Temp:Feuchte:
G-T/H 1126 14-03-2019 09:07:18 9 C 72 %
1127 14-03-2019 09:19:17 9 C 72 %
1128 14-03-2019 09:31:17 9 C 72 %
1129 14-03-2019 09:43:17 9 C 72 %
1130 14-03-2019 09:55:17 9 C 72 %
1131 14-03-2019 10:07:18 9 C 72 %
1132 14-03-2019 10:19:17 9 C 72 %
1133 14-03-2019 10:31:17 9 C 72 %
1134 14-03-2019 10:43:18 9 C 72 %
1135 14-03-2019 10:55:17 9 C 72 %
1136 14-03-2019 11:07:17 9 C 72 %
1137 14-03-2019 11:19:18 9 C 72 %
1138 14-03-2019 11:31:17 9 C 72 %
1139 14-03-2019 11:43:17 9 C 72 %
1140 14-03-2019 11:55:17 9 C 72 %
1141 14-03-2019 12:07:18 9 C 72 %
1142 14-03-2019 12:19:17 9 C 72 %
1143 14-03-2019 12:31:17 9 C 72 %
1144 14-03-2019 12:43:17 9 C 72 %
1145 14-03-2019 12:55:17 9 C 72 %
1146 14-03-2019 13:07:17 9 C 72 %
1147 14-03-2019 13:19:17 9 C 72 %
1148 14-03-2019 13:31:18 9 C 72 %
1149 14-03-2019 13:43:18 9 C 72 %
1150 14-03-2019 13:55:17 9 C 72 %
Sensor: Nr:Datum:Temp:Feuchte:
G-T/H 1151 14-03-2019 14:07:17 9 C 72 %
1152 14-03-2019 14:19:17 9 C 72 %
1153 14-03-2019 14:31:17 9 C 72 %
1154 14-03-2019 14:43:17 9 C 72 %
1155 14-03-2019 14:55:17 9.1 C 72 %
1156 14-03-2019 15:07:18 9.1 C 73 %
1157 14-03-2019 15:19:17 9.1 C 73 %
1158 14-03-2019 15:31:17 9.1 C 73 %
1159 14-03-2019 15:43:17 9.1 C 73 %
1160 14-03-2019 15:55:17 9.1 C 73 %
1161 14-03-2019 16:07:17 9.1 C 73 %
1162 14-03-2019 16:19:17 9.1 C 73 %
1163 14-03-2019 16:31:18 9.1 C 73 %
1164 14-03-2019 16:43:18 9.1 C 73 %
1165 14-03-2019 16:55:17 9.2 C 73 %
1166 14-03-2019 17:07:17 9.1 C 73 %
1167 14-03-2019 17:19:18 9.2 C 73 %
1168 14-03-2019 17:31:17 9.2 C 73 %
1169 14-03-2019 17:43:17 9.2 C 73 %
1170 14-03-2019 17:55:17 9.2 C 73 %
1171 14-03-2019 18:07:17 9.2 C 73 %
1172 14-03-2019 18:19:17 9.2 C 73 %
1173 14-03-2019 18:31:18 9.2 C 73 %
1174 14-03-2019 18:43:18 9.2 C 73 %
1175 14-03-2019 18:55:17 9.2 C 73 %
Sensor: Nr:Datum:Temp:Feuchte:
G-T/H 1176 14-03-2019 19:07:17 9.2 C 73 %
1177 14-03-2019 19:19:18 9.2 C 73 %
1178 14-03-2019 19:31:17 9.2 C 73 %
1179 14-03-2019 19:43:17 9.2 C 73 %
1180 14-03-2019 19:55:17 9.3 C 73 %
1181 14-03-2019 20:07:18 9.2 C 73 %
1182 14-03-2019 20:19:17 9.3 C 73 %
1183 14-03-2019 20:31:17 9.2 C 73 %
1184 14-03-2019 20:43:17 9.2 C 73 %
1185 14-03-2019 20:55:18 9.3 C 73 %
1186 14-03-2019 21:07:17 9.2 C 73 %
1187 14-03-2019 21:19:17 9.3 C 73 %
1188 14-03-2019 21:31:17 9.3 C 73 %
1189 14-03-2019 21:43:17 9.3 C 73 %
1190 14-03-2019 21:55:17 9.3 C 73 %
1191 14-03-2019 22:07:17 9.3 C 73 %
1192 14-03-2019 22:19:17 9.3 C 73 %
1193 14-03-2019 22:31:17 9.3 C 73 %
1194 14-03-2019 22:43:17 9.3 C 73 %
1195 14-03-2019 22:55:17 9.3 C 73 %
1196 14-03-2019 23:07:18 9.3 C 73 %
1197 14-03-2019 23:19:17 9.3 C 73 %
1198 14-03-2019 23:31:17 9.3 C 73 %
1199 14-03-